Wetterdaten: Montag, 18.06.2018
Datum Zeit Temp. A. Feuchte A. Luftdruck Regen Wind Richtung Richtung Taupunkt Windben Empfang
18.06.2018 00:00 14,6 C 74 % 1018,2 hPa 0,0 l/m 0,0 km/h (0 Bft) SW 235 10,0 C 0,0 km/h (0 Bft) 100 %
18.06.2018 00:01 14,6 C 74 % 1018,3 hPa 0,0 l/m 0,2 km/h (0 Bft) W-NW 286 10,0 C 3,1 km/h (1 Bft) 100 %
18.06.2018 00:02 14,5 C 74 % 1018,3 hPa 0,0 l/m 0,0 km/h (0 Bft) W-NW 286 9,9 C 0,0 km/h (0 Bft) 100 %
18.06.2018 00:03 14,5 C 74 % 1018,3 hPa 0,0 l/m 0,1 km/h (0 Bft) W-NW 286 9,9 C 3,1 km/h (1 Bft) 100 %
18.06.2018 00:04 14,4 C 74 % 1018,3 hPa 0,0 l/m 0,2 km/h (0 Bft) W-NW 286 9,8 C 3,1 km/h (1 Bft) 100 %
18.06.2018 00:05 14,4 C 74 % 1018,3 hPa 0,0 l/m 0,0 km/h (0 Bft) W-NW 286 9,8 C 0,0 km/h (0 Bft) 100 %
18.06.2018 00:06 14,4 C 74 % 1018,3 hPa 0,0 l/m 0,1 km/h (0 Bft) W 278 9,8 C 3,1 km/h (1 Bft) 100 %
18.06.2018 00:07 14,4 C 74 % 1018,3 hPa 0,0 l/m 0,0 km/h (0 Bft) W 278 9,8 C 0,0 km/h (0 Bft) 100 %
18.06.2018 00:08 14,4 C 74 % 1018,3 hPa 0,0 l/m 0,1 km/h (0 Bft) W 278 9,8 C 3,1 km/h (1 Bft) 100 %
18.06.2018 00:09 14,4 C 74 % 1018,3 hPa 0,0 l/m 0,5 km/h (0 Bft) W 278 9,8 C 3,1 km/h (1 Bft) 96 %
18.06.2018 00:10 14,3 C 74 % 1018,3 hPa 0,0 l/m 0,0 km/h (0 Bft) W 278 9,7 C 0,0 km/h (0 Bft) 96 %
18.06.2018 00:11 14,3 C 75 % 1018,3 hPa 0,0 l/m 0,0 km/h (0 Bft) W 278 9,9 C 0,0 km/h (0 Bft) 96 %
18.06.2018 00:12 14,3 C 75 % 1018,3 hPa 0,0 l/m 0,1 km/h (0 Bft) W 278 9,9 C 3,1 km/h (1 Bft) 96 %
18.06.2018 00:13 14,3 C 74 % 1018,3 hPa 0,0 l/m 0,2 km/h (0 Bft) W 278 9,7 C 3,1 km/h (1 Bft) 100 %
18.06.2018 00:14 14,3 C 75 % 1018,3 hPa 0,0 l/m 0,1 km/h (0 Bft) W 278 9,9 C 3,1 km/h (1 Bft) 96 %
18.06.2018 00:15 14,3 C 75 % 1018,3 hPa 0,0 l/m 0,0 km/h (0 Bft) W 278 9,9 C 0,0 km/h (0 Bft) 100 %
18.06.2018 00:16 14,3 C 75 % 1018,4 hPa 0,0 l/m 0,1 km/h (0 Bft) W 278 9,9 C 3,1 km/h (1 Bft) 96 %
18.06.2018 00:17 14,3 C 75 % 1018,4 hPa 0,0 l/m 0,0 km/h (0 Bft) W 278 9,9 C 0,0 km/h (0 Bft) 100 %
18.06.2018 00:18 14,3 C 75 % 1018,4 hPa 0,0 l/m 0,0 km/h (0 Bft) W 278 9,9 C 0,0 km/h (0 Bft) 94 %
18.06.2018 00:19 14,2 C 75 % 1018,4 hPa 0,0 l/m 0,0 km/h (0 Bft) W 278 9,8 C 0,0 km/h (0 Bft) 100 %
18.06.2018 00:20 14,2 C 75 % 1018,4 hPa 0,0 l/m 0,0 km/h (0 Bft) W 278 9,8 C 0,0 km/h (0 Bft) 96 %
18.06.2018 00:21 14,2 C 76 % 1018,4 hPa 0,0 l/m 0,0 km/h (0 Bft) W 278 10,0 C 0,0 km/h (0 Bft) 96 %
18.06.2018 00:22 14,2 C 76 % 1018,4 hPa 0,0 l/m 0,0 km/h (0 Bft) W 278 10,0 C 0,0 km/h (0 Bft) 100 %
18.06.2018 00:23 14,2 C 76 % 1018,4 hPa 0,0 l/m 0,0 km/h (0 Bft) W 278 10,0 C 0,0 km/h (0 Bft) 96 %
18.06.2018 00:24 14,2 C 76 % 1018,5 hPa 0,0 l/m 0,0 km/h (0 Bft) W 278 10,0 C 0,0 km/h (0 Bft) 100 %
18.06.2018 00:25 14,1 C 76 % 1018,5 hPa 0,0 l/m 0,1 km/h (0 Bft) W 278 9,9 C 3,1 km/h (1 Bft) 100 %
18.06.2018 00:26 14,1 C 75 % 1018,5 hPa 0,0 l/m 0,0 km/h (0 Bft) W 278 9,7 C 0,0 km/h (0 Bft) 100 %
18.06.2018 00:27 14,1 C 76 % 1018,5 hPa 0,0 l/m 0,0 km/h (0 Bft) W 278 9,9 C 0,0 km/h (0 Bft) 100 %
18.06.2018 00:28 14,1 C 76 % 1018,6 hPa 0,0 l/m 0,0 km/h (0 Bft) W 278 9,9 C 0,0 km/h (0 Bft) 100 %
18.06.2018 00:29 14,1 C 76 % 1018,6 hPa 0,0 l/m 0,0 km/h (0 Bft) W 278 9,9 C 0,0 km/h (0 Bft) 100 %
18.06.2018 00:30 14,1 C 76 % 1018,6 hPa 0,0 l/m 0,0 km/h (0 Bft) W 278 9,9 C 0,0 km/h (0 Bft) 100 %
18.06.2018 00:31 14,1 C 77 % 1018,6 hPa 0,0 l/m 0,0 km/h (0 Bft) W 278 10,1 C 0,0 km/h (0 Bft) 100 %
18.06.2018 00:32 14,1 C 76 % 1018,5 hPa 0,0 l/m 0,0 km/h (0 Bft) W 278 9,9 C 0,0 km/h (0 Bft) 100 %
18.06.2018 00:33 14,1 C 76 % 1018,6 hPa 0,0 l/m 0,0 km/h (0 Bft) W 278 9,9 C 0,0 km/h (0 Bft) 100 %
18.06.2018 00:34 14,1 C 76 % 1018,6 hPa 0,0 l/m 0,0 km/h (0 Bft) W 278 9,9 C 0,0 km/h (0 Bft) 100 %
18.06.2018 00:35 14,0 C 76 % 1018,5 hPa 0,0 l/m 0,0 km/h (0 Bft) W 278 9,8 C 0,0 km/h (0 Bft) 100 %
18.06.2018 00:36 14,0 C 76 % 1018,5 hPa 0,0 l/m 0,1 km/h (0 Bft) W 278 9,8 C 3,1 km/h (1 Bft) 100 %
18.06.2018 00:37 14,0 C 76 % 1018,6 hPa 0,0 l/m 0,0 km/h (0 Bft) W 278 9,8 C 0,0 km/h (0 Bft) 100 %
18.06.2018 00:38 14,0 C 76 % 1018,6 hPa 0,0 l/m 0,0 km/h (0 Bft) W 278 9,8 C 0,0 km/h (0 Bft) 100 %
18.06.2018 00:39 14,0 C 76 % 1018,6 hPa 0,0 l/m 0,2 km/h (0 Bft) W 278 9,8 C 3,1 km/h (1 Bft) 100 %
18.06.2018 00:40 13,9 C 76 % 1018,6 hPa 0,0 l/m 0,3 km/h (0 Bft) W-SW 238 9,7 C 3,1 km/h (1 Bft) 100 %
18.06.2018 00:41 13,9 C 76 % 1018,6 hPa 0,0 l/m 0,0 km/h (0 Bft) W-SW 238 9,7 C 0,0 km/h (0 Bft) 100 %
18.06.2018 00:42 13,9 C 76 % 1018,5 hPa 0,0 l/m 0,0 km/h (0 Bft) W-SW 238 9,7 C 0,0 km/h (0 Bft) 100 %
18.06.2018 00:43 13,9 C 76 % 1018,5 hPa 0,0 l/m 0,0 km/h (0 Bft) W-SW 238 9,7 C 0,0 km/h (0 Bft) 100 %
18.06.2018 00:44 13,9 C 77 % 1018,5 hPa 0,0 l/m 0,0 km/h (0 Bft) W-SW 238 9,9 C 0,0 km/h (0 Bft) 100 %
18.06.2018 00:45 13,9 C 76 % 1018,5 hPa 0,0 l/m 0,0 km/h (0 Bft) W-SW 238 9,7 C 0,0 km/h (0 Bft) 100 %
18.06.2018 00:46 13,9 C 77 % 1018,5 hPa 0,0 l/m 0,0 km/h (0 Bft) W-SW 238 9,9 C 0,0 km/h (0 Bft) 100 %
18.06.2018 00:47 13,9 C 77 % 1018,5 hPa 0,0 l/m 0,0 km/h (0 Bft) W-SW 238 9,9 C 0,0 km/h (0 Bft) 100 %
18.06.2018 00:48 13,9 C 77 % 1018,5 hPa 0,0 l/m 0,0 km/h (0 Bft) W-SW 238 9,9 C 0,0 km/h (0 Bft) 100 %
18.06.2018 00:49 13,9 C 77 % 1018,5 hPa 0,0 l/m 0,0 km/h (0 Bft) W-SW 238 9,9 C 0,0 km/h (0 Bft) 99 %
18.06.2018 00:50 13,8 C 77 % 1018,6 hPa 0,0 l/m 0,0 km/h (0 Bft) W-SW 238 9,8 C 0,0 km/h (0 Bft) 100 %
18.06.2018 00:51 13,8 C 77 % 1018,6 hPa 0,0 l/m 0,0 km/h (0 Bft) W-SW 238 9,8 C 0,0 km/h (0 Bft) 100 %
18.06.2018 00:52 13,8 C 77 % 1018,5 hPa 0,0 l/m 0,0 km/h (0 Bft) W-SW 238 9,8 C 0,0 km/h (0 Bft) 100 %
18.06.2018 00:53 13,8 C 77 % 1018,5 hPa 0,0 l/m 0,0 km/h (0 Bft) W-SW 238 9,8 C 0,0 km/h (0 Bft) 100 %
18.06.2018 00:54 13,8 C 77 % 1018,5 hPa 0,0 l/m 0,3 km/h (0 Bft) W-SW 238 9,8 C 3,1 km/h (1 Bft) 100 %
18.06.2018 00:55 13,8 C 77 % 1018,5 hPa 0,0 l/m 1,0 km/h (0 Bft) W 259 9,8 C 3,1 km/h (1 Bft) 100 %
18.06.2018 00:56 13,8 C 77 % 1018,5 hPa 0,0 l/m 0,0 km/h (0 Bft) W 259 9,8 C 0,0 km/h (0 Bft) 100 %
18.06.2018 00:57 13,8 C 77 % 1018,5 hPa 0,0 l/m 0,0 km/h (0 Bft) W 259 9,8 C 0,0 km/h (0 Bft) 100 %
18.06.2018 00:58 13,8 C 76 % 1018,5 hPa 0,0 l/m 0,0 km/h (0 Bft) W 259 9,6 C 0,0 km/h (0 Bft) 100 %
18.06.2018 00:59 13,8 C 77 % 1018,5 hPa 0,0 l/m 0,1 km/h (0 Bft) W 259 9,8 C 3,1 km/h (1 Bft) 100 %
18.06.2018 01:00 13,8 C 77 % 1018,5 hPa 0,0 l/m 0,2 km/h (0 Bft) W 259 9,8 C 3,1 km/h (1 Bft) 100 %
18.06.2018 01:01 13,8 C 77 % 1018,6 hPa 0,0 l/m 0,0 km/h (0 Bft) W 259 9,8 C 0,0 km/h (0 Bft) 100 %
18.06.2018 01:02 13,8 C 77 % 1018,6 hPa 0,0 l/m 0,0 km/h (0 Bft) W 259 9,8 C 0,0 km/h (0 Bft) 100 %
18.06.2018 01:03 13,8 C 77 % 1018,5 hPa 0,0 l/m 0,0 km/h (0 Bft) W 259 9,8 C 0,0 km/h (0 Bft) 100 %
18.06.2018 01:04 13,8 C 77 % 1018,5 hPa 0,0 l/m 0,0 km/h (0 Bft) W 259 9,8 C 0,0 km/h (0 Bft) 100 %
18.06.2018 01:05 13,8 C 77 % 1018,5 hPa 0,0 l/m 0,0 km/h (0 Bft) W 259 9,8 C 0,0 km/h (0 Bft) 100 %
18.06.2018 01:06 13,8 C 77 % 1018,4 hPa 0,0 l/m 0,0 km/h (0 Bft) W 259 9,8 C 0,0 km/h (0 Bft) 100 %
18.06.2018 01:07 13,8 C 77 % 1018,5 hPa 0,0 l/m 0,0 km/h (0 Bft) W 259 9,8 C 0,0 km/h (0 Bft) 100 %
18.06.2018 01:08 13,8 C 77 % 1018,5 hPa 0,0 l/m 0,0 km/h (0 Bft) W 259 9,8 C 0,0 km/h (0 Bft) 100 %
18.06.2018 01:09 13,8 C 77 % 1018,5 hPa 0,0 l/m 0,4 km/h (0 Bft) W 261 9,8 C 3,1 km/h (1 Bft) 100 %
18.06.2018 01:10 13,8 C 77 % 1018,5 hPa 0,0 l/m 0,1 km/h (0 Bft) W 264 9,8 C 3,1 km/h (1 Bft) 100 %
18.06.2018 01:11 13,8 C 77 % 1018,6 hPa 0,0 l/m 0,1 km/h (0 Bft) W 264 9,8 C 3,1 km/h (1 Bft) 100 %
18.06.2018 01:12 13,8 C 77 % 1018,7 hPa 0,0 l/m 0,1 km/h (0 Bft) W-NW 297 9,8 C 3,1 km/h (1 Bft) 100 %
18.06.2018 01:13 13,9 C 77 % 1018,7 hPa 0,0 l/m 2,7 km/h (1 Bft) W-NW 299 9,9 C 6,3 km/h (2 Bft) 100 %
18.06.2018 01:14 13,9 C 77 % 1018,7 hPa 0,0 l/m 3,8 km/h (1 Bft) W 270 9,9 C 6,3 km/h (2 Bft) 100 %
18.06.2018 01:15 13,9 C 77 % 1018,6 hPa 0,0 l/m 0,3 km/h (0 Bft) W 281 9,9 C 3,1 km/h (1 Bft) 100 %
18.06.2018 01:16 13,9 C 77 % 1018,6 hPa 0,0 l/m 1,3 km/h (1 Bft) W-SW 244 9,9 C 3,1 km/h (1 Bft) 100 %
18.06.2018 01:17 13,9 C 76 % 1018,7 hPa 0,0 l/m 0,9 km/h (0 Bft) W-SW 253 9,7 C 3,1 km/h (1 Bft) 100 %
18.06.2018 01:18 13,9 C 76 % 1018,6 hPa 0,0 l/m 1,2 km/h (1 Bft) NW 307 9,7 C 6,3 km/h (2 Bft) 100 %
18.06.2018 01:19 13,9 C 77 % 1018,7 hPa 0,0 l/m 1,6 km/h (1 Bft) W 278 9,9 C 6,3 km/h (2 Bft) 96 %
18.06.2018 01:20 14,0 C 76 % 1018,7 hPa 0,0 l/m 1,2 km/h (1 Bft) W-NW 300 9,8 C 6,3 km/h (2 Bft) 96 %
18.06.2018 01:21 13,9 C 77 % 1018,7 hPa 0,0 l/m 0,4 km/h (0 Bft) W-NW 298 9,9 C 3,1 km/h (1 Bft) 100 %
18.06.2018 01:22 14,0 C 77 % 1018,7 hPa 0,0 l/m 0,1 km/h (0 Bft) W-SW 257 10,0 C 3,1 km/h (1 Bft) 96 %
18.06.2018 01:23 14,0 C 77 % 1018,7 hPa 0,0 l/m 0,4 km/h (0 Bft) SW 231 10,0 C 3,1 km/h (1 Bft) 100 %
18.06.2018 01:24 14,0 C 76 % 1018,6 hPa 0,0 l/m 0,8 km/h (0 Bft) NW 314 9,8 C 3,1 km/h (1 Bft) 96 %
18.06.2018 01:25 14,0 C 77 % 1018,6 hPa 0,0 l/m 1,8 km/h (1 Bft) NW 311 10,0 C 3,1 km/h (1 Bft) 100 %
18.06.2018 01:26 14,0 C 76 % 1018,6 hPa 0,0 l/m 3,5 km/h (1 Bft) NW 307 9,8 C 6,3 km/h (2 Bft) 96 %
18.06.2018 01:27 14,0 C 76 % 1018,6 hPa 0,0 l/m 1,1 km/h (1 Bft) W 269 9,8 C 6,3 km/h (2 Bft) 100 %
18.06.2018 01:28 14,0 C 76 % 1018,6 hPa 0,0 l/m 0,1 km/h (0 Bft) NW 307 9,8 C 3,1 km/h (1 Bft) 96 %
18.06.2018 01:29 14,0 C 76 % 1018,6 hPa 0,0 l/m 1,9 km/h (1 Bft) NW 307 9,8 C 12,6 km/h (3 Bft) 96 %
18.06.2018 01:30 14,0 C 76 % 1018,6 hPa 0,0 l/m 2,5 km/h (1 Bft) W 278 9,8 C 6,3 km/h (2 Bft) 100 %
18.06.2018 01:31 14,0 C 76 % 1018,7 hPa 0,0 l/m 0,3 km/h (0 Bft) W-NW 297 9,8 C 3,1 km/h (1 Bft) 100 %
18.06.2018 01:32 14,0 C 76 % 1018,7 hPa 0,0 l/m 3,6 km/h (1 Bft) NW 315 9,8 C 9,4 km/h (2 Bft) 96 %
18.06.2018 01:33 14,0 C 76 % 1018,7 hPa 0,0 l/m 0,7 km/h (0 Bft) SW 233 9,8 C 3,1 km/h (1 Bft) 100 %
18.06.2018 01:34 14,0 C 76 % 1018,7 hPa 0,0 l/m 0,7 km/h (0 Bft) W 265 9,8 C 3,1 km/h (1 Bft) 100 %
18.06.2018 01:35 14,0 C 77 % 1018,7 hPa 0,0 l/m 0,9 km/h (0 Bft) W-SW 242 10,0 C 3,1 km/h (1 Bft) 100 %
18.06.2018 01:36 14,0 C 76 % 1018,6 hPa 0,0 l/m 0,1 km/h (0 Bft) W-SW 242 9,8 C 3,1 km/h (1 Bft) 100 %
18.06.2018 01:37 14,0 C 76 % 1018,6 hPa 0,0 l/m 0,1 km/h (0 Bft) W-NW 284 9,8 C 3,1 km/h (1 Bft) 100 %
18.06.2018 01:38 14,0 C 77 % 1018,6 hPa 0,0 l/m 0,0 km/h (0 Bft) W-NW 284 10,0 C 0,0 km/h (0 Bft) 100 %
18.06.2018 01:39 13,9 C 77 % 1018,6 hPa 0,0 l/m 1,3 km/h (1 Bft) W-NW 303 9,9 C 3,1 km/h (1 Bft) 100 %
18.06.2018 01:40 13,9 C 77 % 1018,6 hPa 0,0 l/m 0,5 km/h (0 Bft) W-NW 303 9,9 C 3,1 km/h (1 Bft) 100 %
18.06.2018 01:41 13,9 C 77 % 1018,6 hPa 0,0 l/m 0,0 km/h (0 Bft) W-NW 303 9,9 C 0,0 km/h (0 Bft) 100 %
18.06.2018 01:42 13,9 C 77 % 1018,6 hPa 0,0 l/m 0,2 km/h (0 Bft) W-NW 290 9,9 C 3,1 km/h (1 Bft) 100 %
18.06.2018 01:43 13,9 C 77 % 1018,6 hPa 0,0 l/m 0,0 km/h (0 Bft) W-NW 290 9,9 C 0,0 km/h (0 Bft) 100 %
18.06.2018 01:44 13,9 C 78 % 1018,6 hPa 0,0 l/m 0,0 km/h (0 Bft) W-NW 296 10,1 C 0,0 km/h (0 Bft) 100 %
18.06.2018 01:45 13,9 C 78 % 1018,6 hPa 0,0 l/m 0,0 km/h (0 Bft) W-NW 296 10,1 C 0,0 km/h (0 Bft) 100 %
18.06.2018 01:46 13,8 C 78 % 1018,6 hPa 0,0 l/m 0,0 km/h (0 Bft) W-NW 296 10,0 C 0,0 km/h (0 Bft) 100 %
18.06.2018 01:47 13,8 C 78 % 1018,7 hPa 0,0 l/m 0,0 km/h (0 Bft) W-NW 297 10,0 C 0,0 km/h (0 Bft) 100 %
18.06.2018 01:48 13,8 C 78 % 1018,6 hPa 0,0 l/m 0,8 km/h (0 Bft) W-NW 283 10,0 C 3,1 km/h (1 Bft) 100 %
18.06.2018 01:49 13,8 C 78 % 1018,6 hPa 0,0 l/m 0,0 km/h (0 Bft) W-NW 283 10,0 C 0,0 km/h (0 Bft) 100 %
18.06.2018 01:50 13,7 C 78 % 1018,6 hPa 0,0 l/m 0,0 km/h (0 Bft) W-NW 283 9,9 C 0,0 km/h (0 Bft) 100 %
18.06.2018 01:51 13,7 C 78 % 1018,6 hPa 0,0 l/m 0,0 km/h (0 Bft) W-NW 283 9,9 C 0,0 km/h (0 Bft) 100 %
18.06.2018 01:52 13,7 C 78 % 1018,6 hPa 0,0 l/m 2,2 km/h (1 Bft) W-SW 255 9,9 C 3,1 km/h (1 Bft) 100 %
18.06.2018 01:53 13,7 C 78 % 1018,6 hPa 0,0 l/m 0,3 km/h (0 Bft) W-SW 255 9,9 C 3,1 km/h (1 Bft) 100 %
18.06.2018 01:54 13,6 C 79 % 1018,6 hPa 0,0 l/m 0,0 km/h (0 Bft) W-SW 255 10,0 C 0,0 km/h (0 Bft) 100 %
18.06.2018 01:55 13,6 C 79 % 1018,6 hPa 0,0 l/m 0,0 km/h (0 Bft) W-SW 255 10,0 C 0,0 km/h (0 Bft) 100 %
18.06.2018 01:56 13,6 C 79 % 1018,6 hPa 0,0 l/m 0,0 km/h (0 Bft) W-SW 255 10,0 C 0,0 km/h (0 Bft) 100 %
18.06.2018 01:57 13,6 C 79 % 1018,7 hPa 0,0 l/m 0,0 km/h (0 Bft) W-SW 257 10,0 C 0,0 km/h (0 Bft) 100 %
18.06.2018 01:58 13,5 C 79 % 1018,7 hPa 0,0 l/m 0,0 km/h (0 Bft) W-SW 257 9,9 C 0,0 km/h (0 Bft) 100 %
18.06.2018 01:59 13,5 C 79 % 1018,7 hPa 0,0 l/m 0,0 km/h (0 Bft) W-SW 257 9,9 C 0,0 km/h (0 Bft) 100 %
18.06.2018 02:00 13,5 C 80 % 1018,7 hPa 0,0 l/m 0,0 km/h (0 Bft) W-SW 257 10,1 C 0,0 km/h (0 Bft) 100 %
18.06.2018 02:01 13,4 C 80 % 1018,7 hPa 0,0 l/m 0,3 km/h (0 Bft) W 264 10,0 C 3,1 km/h (1 Bft) 100 %
18.06.2018 02:02 13,4 C 80 % 1018,8 hPa 0,0 l/m 2,0 km/h (1 Bft) W-NW 283 10,0 C 3,1 km/h (1 Bft) 100 %
18.06.2018 02:03 13,4 C 80 % 1018,8 hPa 0,0 l/m 2,0 km/h (1 Bft) NW 304 10,0 C 6,3 km/h (2 Bft) 100 %
18.06.2018 02:04 13,4 C 80 % 1018,8 hPa 0,0 l/m 0,0 km/h (0 Bft) NW 304 10,0 C 0,0 km/h (0 Bft) 100 %
18.06.2018 02:05 13,4 C 80 % 1018,8 hPa 0,0 l/m 0,7 km/h (0 Bft) W 266 10,0 C 3,1 km/h (1 Bft) 100 %
18.06.2018 02:06 13,4 C 80 % 1018,9 hPa 0,0 l/m 1,6 km/h (1 Bft) W-NW 295 10,0 C 3,1 km/h (1 Bft) 100 %
18.06.2018 02:07 13,4 C 80 % 1018,8 hPa 0,0 l/m 0,1 km/h (0 Bft) W-NW 296 10,0 C 3,1 km/h (1 Bft) 100 %
18.06.2018 02:08 13,4 C 80 % 1018,9 hPa 0,0 l/m 0,0 km/h (0 Bft) W-NW 296 10,0 C 0,0 km/h (0 Bft) 100 %
18.06.2018 02:09 13,4 C 80 % 1018,9 hPa 0,0 l/m 0,1 km/h (0 Bft) W-NW 296 10,0 C 3,1 km/h (1 Bft) 100 %
18.06.2018 02:10 13,4 C 80 % 1018,9 hPa 0,0 l/m 0,0 km/h (0 Bft) W-NW 296 10,0 C 0,0 km/h (0 Bft) 100 %
18.06.2018 02:11 13,4 C 80 % 1019,0 hPa 0,0 l/m 0,0 km/h (0 Bft) W-NW 296 10,0 C 0,0 km/h (0 Bft) 100 %
18.06.2018 02:12 13,4 C 80 % 1018,9 hPa 0,0 l/m 0,0 km/h (0 Bft) W-NW 296 10,0 C 0,0 km/h (0 Bft) 100 %
18.06.2018 02:13 13,4 C 80 % 1019,0 hPa 0,0 l/m 0,0 km/h (0 Bft) W-NW 296 10,0 C 0,0 km/h (0 Bft) 100 %
18.06.2018 02:14 13,4 C 80 % 1018,9 hPa 0,0 l/m 0,0 km/h (0 Bft) W-NW 296 10,0 C 0,0 km/h (0 Bft) 100 %
18.06.2018 02:15 13,4 C 80 % 1019,0 hPa 0,0 l/m 0,0 km/h (0 Bft) W-NW 296 10,0 C 0,0 km/h (0 Bft) 100 %
18.06.2018 02:16 13,4 C 80 % 1019,0 hPa 0,0 l/m 0,0 km/h (0 Bft) W-NW 296 10,0 C 0,0 km/h (0 Bft) 100 %
18.06.2018 02:17 13,4 C 80 % 1019,0 hPa 0,0 l/m 0,0 km/h (0 Bft) W-NW 296 10,0 C 0,0 km/h (0 Bft) 100 %
18.06.2018 02:18 13,4 C 80 % 1019,0 hPa 0,0 l/m 0,3 km/h (0 Bft) W-NW 296 10,0 C 3,1 km/h (1 Bft) 100 %
18.06.2018 02:19 13,4 C 80 % 1019,0 hPa 0,0 l/m 0,1 km/h (0 Bft) W-NW 291 10,0 C 3,1 km/h (1 Bft) 100 %
18.06.2018 02:20 13,4 C 80 % 1018,9 hPa 0,0 l/m 0,0 km/h (0 Bft) W-NW 291 10,0 C 0,0 km/h (0 Bft) 100 %
18.06.2018 02:21 13,4 C 80 % 1019,0 hPa 0,0 l/m 0,0 km/h (0 Bft) W-NW 291 10,0 C 0,0 km/h (0 Bft) 100 %
18.06.2018 02:22 13,4 C 80 % 1019,0 hPa 0,0 l/m 0,0 km/h (0 Bft) W-NW 291 10,0 C 0,0 km/h (0 Bft) 100 %
18.06.2018 02:23 13,4 C 80 % 1019,0 hPa 0,0 l/m 0,0 km/h (0 Bft) W-NW 291 10,0 C 0,0 km/h (0 Bft) 100 %
18.06.2018 02:24 13,4 C 80 % 1019,0 hPa 0,0 l/m 0,0 km/h (0 Bft) W-NW 291 10,0 C 0,0 km/h (0 Bft) 100 %
18.06.2018 02:25 13,4 C 80 % 1019,0 hPa 0,0 l/m 0,0 km/h (0 Bft) W-NW 291 10,0 C 0,0 km/h (0 Bft) 96 %
18.06.2018 02:26 13,4 C 80 % 1019,0 hPa 0,0 l/m 0,0 km/h (0 Bft) W-SW 240 10,0 C 0,0 km/h (0 Bft) 100 %
18.06.2018 02:27 13,4 C 80 % 1019,1 hPa 0,0 l/m 0,0 km/h (0 Bft) W-SW 240 10,0 C 0,0 km/h (0 Bft) 96 %
18.06.2018 02:28 13,4 C 81 % 1019,1 hPa 0,0 l/m 0,3 km/h (0 Bft) W-SW 242 10,2 C 3,1 km/h (1 Bft) 96 %
18.06.2018 02:29 13,4 C 80 % 1019,1 hPa 0,0 l/m 1,0 km/h (0 Bft) W-SW 257 10,0 C 3,1 km/h (1 Bft) 100 %
18.06.2018 02:30 13,4 C 80 % 1019,1 hPa 0,0 l/m 0,0 km/h (0 Bft) SW 236 10,0 C 0,0 km/h (0 Bft) 96 %
18.06.2018 02:31 13,4 C 80 % 1019,1 hPa 0,0 l/m 0,0 km/h (0 Bft) SW 236 10,0 C 0,0 km/h (0 Bft) 100 %
18.06.2018 02:32 13,4 C 80 % 1019,1 hPa 0,0 l/m 0,0 km/h (0 Bft) SW 236 10,0 C 0,0 km/h (0 Bft) 96 %
18.06.2018 02:33 13,4 C 80 % 1019,1 hPa 0,0 l/m 0,1 km/h (0 Bft) SW 236 10,0 C 3,1 km/h (1 Bft) 100 %
18.06.2018 02:34 13,4 C 80 % 1019,1 hPa 0,0 l/m 0,3 km/h (0 Bft) SW 236 10,0 C 3,1 km/h (1 Bft) 96 %
18.06.2018 02:35 13,4 C 80 % 1019,1 hPa 0,0 l/m 0,3 km/h (0 Bft) SW 225 10,0 C 3,1 km/h (1 Bft) 100 %
18.06.2018 02:37 13,4 C 80 % 1019,0 hPa 0,0 l/m 0,7 km/h (0 Bft) S-SW 212 10,0 C 3,1 km/h (1 Bft) 98 %
18.06.2018 02:38 13,4 C 80 % 1019,0 hPa 0,0 l/m 0,0 km/h (0 Bft) S-SW 212 10,0 C 0,0 km/h (0 Bft) 96 %
18.06.2018 02:39 13,4 C 80 % 1019,1 hPa 0,0 l/m 0,0 km/h (0 Bft) S-SW 212 10,0 C 0,0 km/h (0 Bft) 100 %
18.06.2018 02:40 13,4 C 81 % 1019,0 hPa 0,0 l/m 0,0 km/h (0 Bft) S-SW 212 10,2 C 0,0 km/h (0 Bft) 96 %
18.06.2018 02:41 13,4 C 81 % 1019,0 hPa 0,0 l/m 0,0 km/h (0 Bft) S-SW 212 10,2 C 0,0 km/h (0 Bft) 96 %
18.06.2018 02:42 13,4 C 81 % 1019,0 hPa 0,0 l/m 0,0 km/h (0 Bft) S-SW 212 10,2 C 0,0 km/h (0 Bft) 100 %
18.06.2018 02:43 13,4 C 81 % 1019,0 hPa 0,0 l/m 0,2 km/h (0 Bft) SW 214 10,2 C 3,1 km/h (1 Bft) 100 %
18.06.2018 02:44 13,4 C 80 % 1019,0 hPa 0,0 l/m 0,2 km/h (0 Bft) W-NW 299 10,0 C 3,1 km/h (1 Bft) 100 %
18.06.2018 02:45 13,4 C 80 % 1018,9 hPa 0,0 l/m 0,9 km/h (0 Bft) SW 233 10,0 C 3,1 km/h (1 Bft) 100 %
18.06.2018 02:46 13,4 C 80 % 1018,9 hPa 0,0 l/m 0,0 km/h (0 Bft) SW 233 10,0 C 0,0 km/h (0 Bft) 100 %
18.06.2018 02:47 13,4 C 80 % 1018,9 hPa 0,0 l/m 0,2 km/h (0 Bft) SW 233 10,0 C 3,1 km/h (1 Bft) 100 %
18.06.2018 02:48 13,4 C 81 % 1018,9 hPa 0,0 l/m 0,2 km/h (0 Bft) W-NW 302 10,2 C 3,1 km/h (1 Bft) 100 %
18.06.2018 02:49 13,4 C 81 % 1018,9 hPa 0,0 l/m 0,2 km/h (0 Bft) W-NW 301 10,2 C 3,1 km/h (1 Bft) 100 %
18.06.2018 02:50 13,4 C 81 % 1018,9 hPa 0,0 l/m 0,0 km/h (0 Bft) W-NW 301 10,2 C 0,0 km/h (0 Bft) 100 %
18.06.2018 02:51 13,4 C 81 % 1018,9 hPa 0,0 l/m 0,0 km/h (0 Bft) W-NW 301 10,2 C 0,0 km/h (0 Bft) 100 %
18.06.2018 02:52 13,4 C 81 % 1018,8 hPa 0,0 l/m 0,0 km/h (0 Bft) W-NW 301 10,2 C 0,0 km/h (0 Bft) 100 %
18.06.2018 02:53 13,5 C 81 % 1018,8 hPa 0,0 l/m 0,0 km/h (0 Bft) W-NW 301 10,3 C 0,0 km/h (0 Bft) 100 %
18.06.2018 02:54 13,4 C 81 % 1018,9 hPa 0,0 l/m 0,3 km/h (0 Bft) W-SW 245 10,2 C 3,1 km/h (1 Bft) 100 %
18.06.2018 02:55 13,5 C 81 % 1018,8 hPa 0,0 l/m 0,0 km/h (0 Bft) W-SW 245 10,3 C 0,0 km/h (0 Bft) 100 %
18.06.2018 02:56 13,5 C 81 % 1018,9 hPa 0,0 l/m 0,0 km/h (0 Bft) W-SW 245 10,3 C 0,0 km/h (0 Bft) 100 %
18.06.2018 02:57 13,5 C 81 % 1018,9 hPa 0,0 l/m 0,0 km/h (0 Bft) W-SW 245 10,3 C 0,0 km/h (0 Bft) 100 %
18.06.2018 02:58 13,5 C 81 % 1018,9 hPa 0,0 l/m 0,0 km/h (0 Bft) W-SW 245 10,3 C 0,0 km/h (0 Bft) 100 %
18.06.2018 02:59 13,5 C 81 % 1018,9 hPa 0,0 l/m 0,1 km/h (0 Bft) W-SW 245 10,3 C 3,1 km/h (1 Bft) 100 %
18.06.2018 03:00 13,5 C 81 % 1018,9 hPa 0,0 l/m 0,0 km/h (0 Bft) W-SW 245 10,3 C 0,0 km/h (0 Bft) 100 %
18.06.2018 03:01 13,5 C 81 % 1018,9 hPa 0,0 l/m 0,0 km/h (0 Bft) W-SW 245 10,3 C 0,0 km/h (0 Bft) 100 %
18.06.2018 03:02 13,5 C 81 % 1019,0 hPa 0,0 l/m 0,0 km/h (0 Bft) W-SW 245 10,3 C 0,0 km/h (0 Bft) 100 %
18.06.2018 03:03 13,5 C 81 % 1018,9 hPa 0,0 l/m 0,1 km/h (0 Bft) W-SW 245 10,3 C 3,1 km/h (1 Bft) 100 %
18.06.2018 03:04 13,5 C 81 % 1018,9 hPa 0,0 l/m 0,0 km/h (0 Bft) W-SW 245 10,3 C 0,0 km/h (0 Bft) 100 %
18.06.2018 03:05 13,5 C 81 % 1018,9 hPa 0,0 l/m 0,0 km/h (0 Bft) W-SW 245 10,3 C 0,0 km/h (0 Bft) 100 %
18.06.2018 03:06 13,5 C 81 % 1018,9 hPa 0,0 l/m 0,0 km/h (0 Bft) W-SW 245 10,3 C 0,0 km/h (0 Bft) 100 %
18.06.2018 03:07 13,5 C 81 % 1018,9 hPa 0,0 l/m 0,0 km/h (0 Bft) W-SW 245 10,3 C 0,0 km/h (0 Bft) 100 %
18.06.2018 03:08 13,5 C 81 % 1018,9 hPa 0,0 l/m 0,0 km/h (0 Bft) W-SW 245 10,3 C 0,0 km/h (0 Bft) 100 %
18.06.2018 03:09 13,5 C 82 % 1018,9 hPa 0,0 l/m 0,0 km/h (0 Bft) W-SW 245 10,5 C 0,0 km/h (0 Bft) 100 %
18.06.2018 03:10 13,5 C 81 % 1018,9 hPa 0,0 l/m 0,0 km/h (0 Bft) W-SW 245 10,3 C 0,0 km/h (0 Bft) 100 %
18.06.2018 03:11 13,5 C 81 % 1018,9 hPa 0,0 l/m 0,0 km/h (0 Bft) W-SW 245 10,3 C 0,0 km/h (0 Bft) 100 %
18.06.2018 03:12 13,5 C 81 % 1018,9 hPa 0,0 l/m 0,0 km/h (0 Bft) W-SW 245 10,3 C 0,0 km/h (0 Bft) 100 %
18.06.2018 03:13 13,5 C 81 % 1018,9 hPa 0,0 l/m 0,0 km/h (0 Bft) W-SW 245 10,3 C 0,0 km/h (0 Bft) 100 %
18.06.2018 03:14 13,5 C 81 % 1018,9 hPa 0,0 l/m 0,0 km/h (0 Bft) W-SW 245 10,3 C 0,0 km/h (0 Bft) 100 %
18.06.2018 03:15 13,4 C 81 % 1018,9 hPa 0,0 l/m 0,0 km/h (0 Bft) W-SW 245 10,2 C 0,0 km/h (0 Bft) 100 %
18.06.2018 03:16 13,4 C 81 % 1018,9 hPa 0,0 l/m 0,0 km/h (0 Bft) W-SW 245 10,2 C 0,0 km/h (0 Bft) 100 %
18.06.2018 03:17 13,4 C 81 % 1018,9 hPa 0,0 l/m 0,0 km/h (0 Bft) W-SW 245 10,2 C 0,0 km/h (0 Bft) 96 %
18.06.2018 03:18 13,4 C 82 % 1018,9 hPa 0,0 l/m 0,0 km/h (0 Bft) W-SW 245 10,4 C 0,0 km/h (0 Bft) 100 %
18.06.2018 03:19 13,4 C 82 % 1018,9 hPa 0,0 l/m 0,0 km/h (0 Bft) W-SW 245 10,4 C 0,0 km/h (0 Bft) 100 %
18.06.2018 03:20 13,4 C 82 % 1018,9 hPa 0,0 l/m 0,0 km/h (0 Bft) W-SW 245 10,4 C 0,0 km/h (0 Bft) 100 %
18.06.2018 03:21 13,4 C 82 % 1018,9 hPa 0,0 l/m 0,0 km/h (0 Bft) W-SW 245 10,4 C 0,0 km/h (0 Bft) 100 %
18.06.2018 03:22 13,4 C 82 % 1018,9 hPa 0,0 l/m 0,0 km/h (0 Bft) W-SW 245 10,4 C 0,0 km/h (0 Bft) 100 %
18.06.2018 03:23 13,4 C 81 % 1018,9 hPa 0,0 l/m 0,0 km/h (0 Bft) W-SW 245 10,2 C 0,0 km/h (0 Bft) 100 %
18.06.2018 03:24 13,4 C 81 % 1018,9 hPa 0,0 l/m 0,0 km/h (0 Bft) W-SW 245 10,2 C 0,0 km/h (0 Bft) 100 %
18.06.2018 03:25 13,4 C 81 % 1018,9 hPa 0,0 l/m 0,0 km/h (0 Bft) W-SW 245 10,2 C 0,0 km/h (0 Bft) 100 %
18.06.2018 03:26 13,4 C 81 % 1018,9 hPa 0,0 l/m 0,0 km/h (0 Bft) W-SW 245 10,2 C 0,0 km/h (0 Bft) 100 %
18.06.2018 03:27 13,4 C 81 % 1018,9 hPa 0,0 l/m 0,0 km/h (0 Bft) W-SW 245 10,2 C 0,0 km/h (0 Bft) 100 %
18.06.2018 03:28 13,4 C 82 % 1018,9 hPa 0,0 l/m 0,0 km/h (0 Bft) W-SW 245 10,4 C 0,0 km/h (0 Bft) 100 %
18.06.2018 03:29 13,4 C 82 % 1018,8 hPa 0,0 l/m 0,0 km/h (0 Bft) W-SW 245 10,4 C 0,0 km/h (0 Bft) 100 %
18.06.2018 03:30 13,4 C 82 % 1018,9 hPa 0,0 l/m 0,0 km/h (0 Bft) W-SW 245 10,4 C 0,0 km/h (0 Bft) 100 %
18.06.2018 03:31 13,4 C 82 % 1018,9 hPa 0,0 l/m 0,0 km/h (0 Bft) W-SW 245 10,4 C 0,0 km/h (0 Bft) 100 %
18.06.2018 03:32 13,4 C 83 % 1018,9 hPa 0,0 l/m 0,0 km/h (0 Bft) W-SW 245 10,6 C 0,0 km/h (0 Bft) 100 %
18.06.2018 03:33 13,4 C 82 % 1018,9 hPa 0,0 l/m 0,0 km/h (0 Bft) W-SW 245 10,4 C 0,0 km/h (0 Bft) 100 %
18.06.2018 03:34 13,4 C 82 % 1018,9 hPa 0,0 l/m 0,0 km/h (0 Bft) W-SW 244 10,4 C 0,0 km/h (0 Bft) 96 %
18.06.2018 03:35 13,4 C 82 % 1018,9 hPa 0,0 l/m 0,0 km/h (0 Bft) W-SW 244 10,4 C 0,0 km/h (0 Bft) 96 %
18.06.2018 03:36 13,4 C 82 % 1018,9 hPa 0,0 l/m 0,0 km/h (0 Bft) W-SW 244 10,4 C 0,0 km/h (0 Bft) 100 %
18.06.2018 03:37 13,4 C 82 % 1019,0 hPa 0,0 l/m 0,0 km/h (0 Bft) W-SW 244 10,4 C 0,0 km/h (0 Bft) 100 %
18.06.2018 03:38 13,4 C 82 % 1019,0 hPa 0,0 l/m 0,0 km/h (0 Bft) W-SW 244 10,4 C 0,0 km/h (0 Bft) 96 %
18.06.2018 03:39 13,4 C 82 % 1019,0 hPa 0,0 l/m 0,0 km/h (0 Bft) W-SW 244 10,4 C 0,0 km/h (0 Bft) 100 %
18.06.2018 03:40 13,4 C 82 % 1019,0 hPa 0,0 l/m 0,0 km/h (0 Bft) W-SW 244 10,4 C 0,0 km/h (0 Bft) 96 %
18.06.2018 03:41 13,4 C 82 % 1019,0 hPa 0,0 l/m 0,0 km/h (0 Bft) W-SW 244 10,4 C 0,0 km/h (0 Bft) 100 %
18.06.2018 03:42 13,4 C 82 % 1018,9 hPa 0,0 l/m 0,0 km/h (0 Bft) W-SW 244 10,4 C 0,0 km/h (0 Bft) 96 %
18.06.2018 03:43 13,3 C 82 % 1018,9 hPa 0,0 l/m 0,0 km/h (0 Bft) W-SW 244 10,3 C 0,0 km/h (0 Bft) 100 %
18.06.2018 03:44 13,4 C 82 % 1018,8 hPa 0,0 l/m 0,0 km/h (0 Bft) W-SW 243 10,4 C 0,0 km/h (0 Bft) 96 %
18.06.2018 03:45 13,4 C 82 % 1018,8 hPa 0,0 l/m 0,0 km/h (0 Bft) W-SW 244 10,4 C 0,0 km/h (0 Bft) 100 %
18.06.2018 03:46 13,4 C 82 % 1018,8 hPa 0,0 l/m 0,0 km/h (0 Bft) W-SW 244 10,4 C 0,0 km/h (0 Bft) 96 %
18.06.2018 03:47 13,4 C 82 % 1018,8 hPa 0,0 l/m 0,0 km/h (0 Bft) W-SW 244 10,4 C 0,0 km/h (0 Bft) 100 %
18.06.2018 03:48 13,4 C 82 % 1018,8 hPa 0,0 l/m 0,0 km/h (0 Bft) W-SW 243 10,4 C 0,0 km/h (0 Bft) 96 %
18.06.2018 03:49 13,4 C 82 % 1018,8 hPa 0,0 l/m 0,0 km/h (0 Bft) W-SW 244 10,4 C 0,0 km/h (0 Bft) 96 %
18.06.2018 03:50 13,4 C 82 % 1018,9 hPa 0,0 l/m 0,0 km/h (0 Bft) W-SW 244 10,4 C 0,0 km/h (0 Bft) 100 %
18.06.2018 03:51 13,4 C 82 % 1018,8 hPa 0,0 l/m 0,0 km/h (0 Bft) W-SW 244 10,4 C 0,0 km/h (0 Bft) 100 %
18.06.2018 03:52 13,4 C 82 % 1018,8 hPa 0,0 l/m 0,0 km/h (0 Bft) W-SW 244 10,4 C 0,0 km/h (0 Bft) 100 %
18.06.2018 03:53 13,4 C 82 % 1018,8 hPa 0,0 l/m 0,0 km/h (0 Bft) W-SW 244 10,4 C 0,0 km/h (0 Bft) 100 %
18.06.2018 03:54 13,4 C 82 % 1018,7 hPa 0,0 l/m 0,0 km/h (0 Bft) W-SW 244 10,4 C 0,0 km/h (0 Bft) 100 %
18.06.2018 03:55 13,4 C 82 % 1018,7 hPa 0,0 l/m 0,0 km/h (0 Bft) W-SW 244 10,4 C 0,0 km/h (0 Bft) 100 %
18.06.2018 03:56 13,4 C 82 % 1018,7 hPa 0,0 l/m 0,0 km/h (0 Bft) W-SW 244 10,4 C 0,0 km/h (0 Bft) 100 %
18.06.2018 03:57 13,4 C 82 % 1018,7 hPa 0,0 l/m 0,0 km/h (0 Bft) W-SW 244 10,4 C 0,0 km/h (0 Bft) 100 %
18.06.2018 03:58 13,4 C 82 % 1018,7 hPa 0,0 l/m 0,0 km/h (0 Bft) W-SW 244 10,4 C 0,0 km/h (0 Bft) 100 %
18.06.2018 03:59 13,4 C 82 % 1018,8 hPa 0,0 l/m 0,0 km/h (0 Bft) W-SW 244 10,4 C 0,0 km/h (0 Bft) 100 %
18.06.2018 04:00 13,4 C 82 % 1018,8 hPa 0,0 l/m 0,0 km/h (0 Bft) W-SW 244 10,4 C 0,0 km/h (0 Bft) 100 %
18.06.2018 04:01 13,4 C 82 % 1018,8 hPa 0,0 l/m 0,1 km/h (0 Bft) SW 217 10,4 C 3,1 km/h (1 Bft) 100 %
18.06.2018 04:02 13,4 C 81 % 1018,8 hPa 0,0 l/m 0,0 km/h (0 Bft) SW 219 10,2 C 0,0 km/h (0 Bft) 100 %
18.06.2018 04:03 13,4 C 81 % 1018,8 hPa 0,0 l/m 0,0 km/h (0 Bft) SW 219 10,2 C 0,0 km/h (0 Bft) 100 %
18.06.2018 04:04 13,4 C 81 % 1018,8 hPa 0,0 l/m 0,0 km/h (0 Bft) SW 219 10,2 C 0,0 km/h (0 Bft) 100 %
18.06.2018 04:05 13,4 C 81 % 1018,8 hPa 0,0 l/m 0,0 km/h (0 Bft) W-SW 239 10,2 C 0,0 km/h (0 Bft) 100 %
18.06.2018 04:06 13,4 C 81 % 1018,8 hPa 0,0 l/m 0,0 km/h (0 Bft) W-SW 239 10,2 C 0,0 km/h (0 Bft) 100 %
18.06.2018 04:07 13,4 C 81 % 1018,8 hPa 0,0 l/m 0,0 km/h (0 Bft) W-SW 239 10,2 C 0,0 km/h (0 Bft) 100 %
18.06.2018 04:08 13,4 C 81 % 1018,8 hPa 0,0 l/m 0,0 km/h (0 Bft) W-SW 239 10,2 C 0,0 km/h (0 Bft) 100 %
18.06.2018 04:09 13,4 C 82 % 1018,7 hPa 0,0 l/m 0,0 km/h (0 Bft) W-SW 239 10,4 C 0,0 km/h (0 Bft) 100 %
18.06.2018 04:10 13,4 C 82 % 1018,7 hPa 0,0 l/m 0,0 km/h (0 Bft) W-SW 239 10,4 C 0,0 km/h (0 Bft) 100 %
18.06.2018 04:11 13,4 C 81 % 1018,7 hPa 0,0 l/m 0,0 km/h (0 Bft) W-SW 239 10,2 C 0,0 km/h (0 Bft) 100 %
18.06.2018 04:12 13,4 C 81 % 1018,6 hPa 0,0 l/m 0,0 km/h (0 Bft) W-SW 239 10,2 C 0,0 km/h (0 Bft) 100 %
18.06.2018 04:13 13,4 C 81 % 1018,6 hPa 0,0 l/m 0,0 km/h (0 Bft) W-SW 239 10,2 C 0,0 km/h (0 Bft) 100 %
18.06.2018 04:14 13,4 C 81 % 1018,6 hPa 0,0 l/m 0,0 km/h (0 Bft) W-SW 256 10,2 C 0,0 km/h (0 Bft) 100 %
18.06.2018 04:15 13,4 C 81 % 1018,6 hPa 0,0 l/m 0,0 km/h (0 Bft) W-SW 255 10,2 C 0,0 km/h (0 Bft) 100 %
18.06.2018 04:16 13,5 C 81 % 1018,6 hPa 0,0 l/m 0,0 km/h (0 Bft) W-SW 256 10,3 C 0,0 km/h (0 Bft) 100 %
18.06.2018 04:17 13,5 C 81 % 1018,5 hPa 0,0 l/m 0,0 km/h (0 Bft) W-SW 255 10,3 C 0,0 km/h (0 Bft) 100 %
18.06.2018 04:18 13,5 C 81 % 1018,6 hPa 0,0 l/m 0,0 km/h (0 Bft) W-SW 255 10,3 C 0,0 km/h (0 Bft) 100 %
18.06.2018 04:19 13,5 C 81 % 1018,6 hPa 0,0 l/m 0,0 km/h (0 Bft) W-SW 256 10,3 C 0,0 km/h (0 Bft) 100 %
18.06.2018 04:20 13,5 C 81 % 1018,6 hPa 0,0 l/m 0,0 km/h (0 Bft) W-SW 255 10,3 C 0,0 km/h (0 Bft) 100 %
18.06.2018 04:21 13,5 C 81 % 1018,6 hPa 0,0 l/m 0,0 km/h (0 Bft) S-SW 211 10,3 C 0,0 km/h (0 Bft) 100 %
18.06.2018 04:22 13,5 C 81 % 1018,6 hPa 0,0 l/m 0,0 km/h (0 Bft) S-SW 212 10,3 C 0,0 km/h (0 Bft) 100 %
18.06.2018 04:23 13,5 C 81 % 1018,6 hPa 0,0 l/m 0,0 km/h (0 Bft) S-SW 212 10,3 C 0,0 km/h (0 Bft) 100 %
18.06.2018 04:24 13,5 C 81 % 1018,7 hPa 0,0 l/m 0,0 km/h (0 Bft) S-SW 212 10,3 C 0,0 km/h (0 Bft) 100 %
18.06.2018 04:25 13,5 C 81 % 1018,7 hPa 0,0 l/m 0,0 km/h (0 Bft) S-SW 212 10,3 C 0,0 km/h (0 Bft) 100 %
18.06.2018 04:26 13,5 C 81 % 1018,7 hPa 0,0 l/m 0,0 km/h (0 Bft) S-SW 212 10,3 C 0,0 km/h (0 Bft) 100 %
18.06.2018 04:27 13,6 C 81 % 1018,7 hPa 0,0 l/m 0,0 km/h (0 Bft) S-SW 212 10,4 C 0,0 km/h (0 Bft) 100 %
18.06.2018 04:28 13,5 C 81 % 1018,7 hPa 0,0 l/m 0,0 km/h (0 Bft) S-SW 212 10,3 C 0,0 km/h (0 Bft) 100 %
18.06.2018 04:29 13,5 C 81 % 1018,7 hPa 0,0 l/m 0,0 km/h (0 Bft) S-SW 212 10,3 C 0,0 km/h (0 Bft) 100 %
18.06.2018 04:30 13,6 C 81 % 1018,8 hPa 0,0 l/m 0,0 km/h (0 Bft) SW 219 10,4 C 0,0 km/h (0 Bft) 100 %
18.06.2018 04:31 13,6 C 81 % 1018,8 hPa 0,0 l/m 0,0 km/h (0 Bft) SW 219 10,4 C 0,0 km/h (0 Bft) 100 %
18.06.2018 04:32 13,5 C 81 % 1018,8 hPa 0,0 l/m 0,0 km/h (0 Bft) SW 219 10,3 C 0,0 km/h (0 Bft) 100 %
18.06.2018 04:33 13,5 C 81 % 1018,8 hPa 0,0 l/m 0,0 km/h (0 Bft) S-SW 210 10,3 C 0,0 km/h (0 Bft) 100 %
18.06.2018 04:34 13,5 C 81 % 1018,8 hPa 0,0 l/m 0,0 km/h (0 Bft) S-SW 210 10,3 C 0,0 km/h (0 Bft) 100 %
18.06.2018 04:35 13,5 C 81 % 1018,8 hPa 0,0 l/m 0,0 km/h (0 Bft) S-SW 210 10,3 C 0,0 km/h (0 Bft) 100 %
18.06.2018 04:36 13,5 C 81 % 1018,8 hPa 0,0 l/m 0,0 km/h (0 Bft) W-SW 254 10,3 C 0,0 km/h (0 Bft) 100 %
18.06.2018 04:37 13,5 C 81 % 1018,8 hPa 0,0 l/m 0,0 km/h (0 Bft) W-SW 254 10,3 C 0,0 km/h (0 Bft) 100 %
18.06.2018 04:38 13,5 C 82 % 1018,8 hPa 0,0 l/m 0,0 km/h (0 Bft) W-SW 254 10,5 C 0,0 km/h (0 Bft) 100 %
18.06.2018 04:39 13,5 C 82 % 1018,7 hPa 0,0 l/m 0,0 km/h (0 Bft) W-SW 254 10,5 C 0,0 km/h (0 Bft) 100 %
18.06.2018 04:40 13,5 C 82 % 1018,7 hPa 0,0 l/m 0,0 km/h (0 Bft) W-SW 254 10,5 C 0,0 km/h (0 Bft) 100 %
18.06.2018 04:41 13,5 C 82 % 1018,7 hPa 0,0 l/m 0,0 km/h (0 Bft) W-SW 254 10,5 C 0,0 km/h (0 Bft) 100 %
18.06.2018 04:42 13,5 C 81 % 1018,7 hPa 0,0 l/m 0,0 km/h (0 Bft) W-SW 242 10,3 C 0,0 km/h (0 Bft) 100 %
18.06.2018 04:43 13,5 C 81 % 1018,6 hPa 0,0 l/m 0,0 km/h (0 Bft) W-SW 252 10,3 C 0,0 km/h (0 Bft) 100 %
18.06.2018 04:44 13,5 C 81 % 1018,6 hPa 0,0 l/m 0,0 km/h (0 Bft) W-SW 253 10,3 C 0,0 km/h (0 Bft) 96 %
18.06.2018 04:45 13,5 C 82 % 1018,6 hPa 0,0 l/m 0,0 km/h (0 Bft) W-SW 253 10,5 C 0,0 km/h (0 Bft) 96 %
18.06.2018 04:46 13,5 C 82 % 1018,6 hPa 0,0 l/m 0,0 km/h (0 Bft) W-SW 253 10,5 C 0,0 km/h (0 Bft) 96 %
18.06.2018 04:47 13,5 C 82 % 1018,6 hPa 0,0 l/m 0,0 km/h (0 Bft) W-SW 253 10,5 C 0,0 km/h (0 Bft) 100 %
18.06.2018 04:48 13,4 C 82 % 1018,6 hPa 0,0 l/m 0,0 km/h (0 Bft) SW 214 10,4 C 0,0 km/h (0 Bft) 100 %
18.06.2018 04:49 13,5 C 82 % 1018,7 hPa 0,0 l/m 0,0 km/h (0 Bft) SW 214 10,5 C 0,0 km/h (0 Bft) 96 %
18.06.2018 04:50 13,4 C 82 % 1018,7 hPa 0,0 l/m 0,0 km/h (0 Bft) SW 214 10,4 C 0,0 km/h (0 Bft) 100 %
18.06.2018 04:51 13,4 C 82 % 1018,8 hPa 0,0 l/m 0,0 km/h (0 Bft) SW 214 10,4 C 0,0 km/h (0 Bft) 96 %
18.06.2018 04:52 13,4 C 82 % 1018,8 hPa 0,0 l/m 0,0 km/h (0 Bft) SW 214 10,4 C 0,0 km/h (0 Bft) 96 %
18.06.2018 04:53 13,4 C 82 % 1018,8 hPa 0,0 l/m 0,0 km/h (0 Bft) SW 214 10,4 C 0,0 km/h (0 Bft) 100 %
18.06.2018 04:54 13,4 C 82 % 1018,9 hPa 0,0 l/m 0,0 km/h (0 Bft) W-SW 244 10,4 C 0,0 km/h (0 Bft) 96 %
18.06.2018 04:55 13,4 C 81 % 1018,8 hPa 0,0 l/m 0,0 km/h (0 Bft) SW 234 10,2 C 0,0 km/h (0 Bft) 100 %
18.06.2018 04:56 13,4 C 81 % 1018,8 hPa 0,0 l/m 0,0 km/h (0 Bft) SW 234 10,2 C 0,0 km/h (0 Bft) 96 %
18.06.2018 04:57 13,4 C 82 % 1018,8 hPa 0,0 l/m 0,0 km/h (0 Bft) SW 234 10,4 C 0,0 km/h (0 Bft) 100 %
18.06.2018 04:58 13,4 C 82 % 1018,8 hPa 0,0 l/m 0,0 km/h (0 Bft) W 270 10,4 C 0,0 km/h (0 Bft) 96 %
18.06.2018 04:59 13,4 C 82 % 1018,7 hPa 0,0 l/m 0,0 km/h (0 Bft) SW 235 10,4 C 0,0 km/h (0 Bft) 100 %
18.06.2018 05:00 13,4 C 82 % 1018,7 hPa 0,0 l/m 0,0 km/h (0 Bft) SW 235 10,4 C 0,0 km/h (0 Bft) 100 %
18.06.2018 05:01 13,4 C 82 % 1018,7 hPa 0,0 l/m 0,0 km/h (0 Bft) SW 235 10,4 C 0,0 km/h (0 Bft) 100 %
18.06.2018 05:02 13,4 C 82 % 1018,7 hPa 0,0 l/m 0,0 km/h (0 Bft) SW 222 10,4 C 0,0 km/h (0 Bft) 100 %
18.06.2018 05:03 13,4 C 82 % 1018,7 hPa 0,0 l/m 0,0 km/h (0 Bft) SW 222 10,4 C 0,0 km/h (0 Bft) 100 %
18.06.2018 05:04 13,4 C 82 % 1018,7 hPa 0,0 l/m 0,0 km/h (0 Bft) SW 222 10,4 C 0,0 km/h (0 Bft) 100 %
18.06.2018 05:05 13,4 C 82 % 1018,7 hPa 0,0 l/m 0,0 km/h (0 Bft) SW 233 10,4 C 0,0 km/h (0 Bft) 100 %
18.06.2018 05:06 13,4 C 82 % 1018,7 hPa 0,0 l/m 0,0 km/h (0 Bft) SW 233 10,4 C 0,0 km/h (0 Bft) 100 %
18.06.2018 05:07 13,4 C 82 % 1018,7 hPa 0,0 l/m 0,0 km/h (0 Bft) SW 233 10,4 C 0,0 km/h (0 Bft) 100 %
18.06.2018 05:08 13,4 C 82 % 1018,6 hPa 0,0 l/m 0,0 km/h (0 Bft) SW 233 10,4 C 0,0 km/h (0 Bft) 100 %
18.06.2018 05:09 13,4 C 82 % 1018,7 hPa 0,0 l/m 0,0 km/h (0 Bft) SW 233 10,4 C 0,0 km/h (0 Bft) 100 %
18.06.2018 05:10 13,4 C 82 % 1018,6 hPa 0,0 l/m 0,0 km/h (0 Bft) SW 233 10,4 C 0,0 km/h (0 Bft) 100 %
18.06.2018 05:11 13,4 C 82 % 1018,6 hPa 0,0 l/m 0,0 km/h (0 Bft) SW 218 10,4 C 0,0 km/h (0 Bft) 100 %
18.06.2018 05:12 13,4 C 82 % 1018,6 hPa 0,0 l/m 0,0 km/h (0 Bft) SW 215 10,4 C 0,0 km/h (0 Bft) 100 %
18.06.2018 05:13 13,4 C 82 % 1018,6 hPa 0,0 l/m 0,0 km/h (0 Bft) W-SW 250 10,4 C 0,0 km/h (0 Bft) 100 %
18.06.2018 05:14 13,4 C 82 % 1018,6 hPa 0,0 l/m 0,0 km/h (0 Bft) W-SW 250 10,4 C 0,0 km/h (0 Bft) 100 %
18.06.2018 05:15 13,4 C 83 % 1018,6 hPa 0,0 l/m 0,0 km/h (0 Bft) W-SW 250 10,6 C 0,0 km/h (0 Bft) 100 %
18.06.2018 05:16 13,3 C 83 % 1018,6 hPa 0,0 l/m 0,0 km/h (0 Bft) W-SW 250 10,5 C 0,0 km/h (0 Bft) 100 %
18.06.2018 05:17 13,3 C 83 % 1018,6 hPa 0,0 l/m 0,0 km/h (0 Bft) W-SW 250 10,5 C 0,0 km/h (0 Bft) 100 %
18.06.2018 05:18 13,3 C 83 % 1018,7 hPa 0,0 l/m 0,0 km/h (0 Bft) W-SW 250 10,5 C 0,0 km/h (0 Bft) 100 %
18.06.2018 05:19 13,3 C 83 % 1018,7 hPa 0,0 l/m 0,0 km/h (0 Bft) W-SW 250 10,5 C 0,0 km/h (0 Bft) 100 %
18.06.2018 05:20 13,3 C 83 % 1018,7 hPa 0,0 l/m 0,0 km/h (0 Bft) W-SW 250 10,5 C 0,0 km/h (0 Bft) 100 %
18.06.2018 05:21 13,3 C 83 % 1018,7 hPa 0,0 l/m 0,0 km/h (0 Bft) W-SW 243 10,5 C 0,0 km/h (0 Bft) 100 %
18.06.2018 05:22 13,3 C 83 % 1018,7 hPa 0,0 l/m 0,0 km/h (0 Bft) SW 226 10,5 C 0,0 km/h (0 Bft) 100 %
18.06.2018 05:23 13,3 C 83 % 1018,7 hPa 0,0 l/m 0,0 km/h (0 Bft) SW 226 10,5 C 0,0 km/h (0 Bft) 100 %
18.06.2018 05:24 13,3 C 83 % 1018,7 hPa 0,0 l/m 0,0 km/h (0 Bft) SW 226 10,5 C 0,0 km/h (0 Bft) 100 %
18.06.2018 05:25 13,3 C 83 % 1018,8 hPa 0,0 l/m 0,0 km/h (0 Bft) SW 226 10,5 C 0,0 km/h (0 Bft) 100 %
18.06.2018 05:26 13,3 C 83 % 1018,8 hPa 0,0 l/m 0,0 km/h (0 Bft) SW 226 10,5 C 0,0 km/h (0 Bft) 100 %
18.06.2018 05:27 13,3 C 83 % 1018,8 hPa 0,0 l/m 0,0 km/h (0 Bft) SW 227 10,5 C 0,0 km/h (0 Bft) 100 %
18.06.2018 05:28 13,3 C 83 % 1018,8 hPa 0,0 l/m 0,0 km/h (0 Bft) SW 227 10,5 C 0,0 km/h (0 Bft) 100 %
18.06.2018 05:29 13,3 C 83 % 1018,9 hPa 0,0 l/m 0,0 km/h (0 Bft) SW 232 10,5 C 0,0 km/h (0 Bft) 100 %
18.06.2018 05:30 13,3 C 83 % 1018,9 hPa 0,0 l/m 0,0 km/h (0 Bft) W-SW 238 10,5 C 0,0 km/h (0 Bft) 100 %
18.06.2018 05:31 13,4 C 83 % 1018,9 hPa 0,0 l/m 0,0 km/h (0 Bft) W-SW 238 10,6 C 0,0 km/h (0 Bft) 100 %
18.06.2018 05:32 13,4 C 83 % 1018,9 hPa 0,0 l/m 0,0 km/h (0 Bft) SW 227 10,6 C 0,0 km/h (0 Bft) 100 %
18.06.2018 05:33 13,4 C 83 % 1018,9 hPa 0,0 l/m 0,0 km/h (0 Bft) SW 227 10,6 C 0,0 km/h (0 Bft) 100 %
18.06.2018 05:34 13,4 C 83 % 1018,8 hPa 0,0 l/m 0,0 km/h (0 Bft) SW 227 10,6 C 0,0 km/h (0 Bft) 100 %
18.06.2018 05:35 13,4 C 83 % 1018,8 hPa 0,0 l/m 0,0 km/h (0 Bft) SW 227 10,6 C 0,0 km/h (0 Bft) 100 %
18.06.2018 05:36 13,4 C 83 % 1018,9 hPa 0,0 l/m 0,0 km/h (0 Bft) S-SW 212 10,6 C 0,0 km/h (0 Bft) 100 %
18.06.2018 05:37 13,4 C 83 % 1018,8 hPa 0,0 l/m 0,0 km/h (0 Bft) SW 222 10,6 C 0,0 km/h (0 Bft) 100 %
18.06.2018 05:38 13,4 C 83 % 1018,8 hPa 0,0 l/m 0,0 km/h (0 Bft) N-NW 344 10,6 C 0,0 km/h (0 Bft) 100 %
18.06.2018 05:39 13,4 C 83 % 1018,8 hPa 0,0 l/m 0,0 km/h (0 Bft) S-SW 211 10,6 C 0,0 km/h (0 Bft) 100 %
18.06.2018 05:40 13,4 C 83 % 1018,8 hPa 0,0 l/m 0,0 km/h (0 Bft) SW 226 10,6 C 0,0 km/h (0 Bft) 100 %
18.06.2018 05:41 13,4 C 83 % 1018,9 hPa 0,0 l/m 0,0 km/h (0 Bft) W-NW 286 10,6 C 0,0 km/h (0 Bft) 100 %
18.06.2018 05:42 13,4 C 83 % 1018,9 hPa 0,0 l/m 0,0 km/h (0 Bft) W-SW 252 10,6 C 0,0 km/h (0 Bft) 100 %
18.06.2018 05:43 13,4 C 83 % 1018,9 hPa 0,0 l/m 0,0 km/h (0 Bft) W-SW 238 10,6 C 0,0 km/h (0 Bft) 100 %
18.06.2018 05:44 13,4 C 83 % 1018,9 hPa 0,0 l/m 0,0 km/h (0 Bft) SW 227 10,6 C 0,0 km/h (0 Bft) 100 %
18.06.2018 05:45 13,4 C 83 % 1018,9 hPa 0,0 l/m 0,0 km/h (0 Bft) S-SW 213 10,6 C 0,0 km/h (0 Bft) 100 %
18.06.2018 05:46 13,4 C 83 % 1018,9 hPa 0,0 l/m 0,0 km/h (0 Bft) W-SW 252 10,6 C 0,0 km/h (0 Bft) 100 %
18.06.2018 05:47 13,4 C 83 % 1018,9 hPa 0,0 l/m 0,0 km/h (0 Bft) W-SW 252 10,6 C 0,0 km/h (0 Bft) 100 %
18.06.2018 05:48 13,4 C 83 % 1018,8 hPa 0,0 l/m 0,0 km/h (0 Bft) SW 231 10,6 C 0,0 km/h (0 Bft) 100 %
18.06.2018 05:49 13,4 C 83 % 1018,8 hPa 0,0 l/m 0,0 km/h (0 Bft) SW 221 10,6 C 0,0 km/h (0 Bft) 100 %
18.06.2018 05:50 13,4 C 83 % 1018,8 hPa 0,0 l/m 0,0 km/h (0 Bft) W-SW 257 10,6 C 0,0 km/h (0 Bft) 100 %
18.06.2018 05:51 13,4 C 83 % 1018,8 hPa 0,0 l/m 0,0 km/h (0 Bft) S-SW 212 10,6 C 0,0 km/h (0 Bft) 100 %
18.06.2018 05:52 13,4 C 83 % 1018,8 hPa 0,0 l/m 0,0 km/h (0 Bft) S-SW 212 10,6 C 0,0 km/h (0 Bft) 92 %
18.06.2018 05:53 13,4 C 83 % 1018,8 hPa 0,0 l/m 0,0 km/h (0 Bft) SW 234 10,6 C 0,0 km/h (0 Bft) 92 %
18.06.2018 05:54 13,4 C 83 % 1018,8 hPa 0,0 l/m 0,0 km/h (0 Bft) SW 234 10,6 C 0,0 km/h (0 Bft) 100 %
18.06.2018 05:55 13,4 C 83 % 1018,8 hPa 0,0 l/m 0,0 km/h (0 Bft) SW 227 10,6 C 0,0 km/h (0 Bft) 96 %
18.06.2018 05:56 13,4 C 83 % 1018,8 hPa 0,0 l/m 0,0 km/h (0 Bft) SW 214 10,6 C 0,0 km/h (0 Bft) 100 %
18.06.2018 05:57 13,4 C 83 % 1018,8 hPa 0,0 l/m 0,0 km/h (0 Bft) S-SW 203 10,6 C 0,0 km/h (0 Bft) 96 %
18.06.2018 05:58 13,4 C 83 % 1018,8 hPa 0,0 l/m 0,0 km/h (0 Bft) S-SW 203 10,6 C 0,0 km/h (0 Bft) 100 %
18.06.2018 05:59 13,4 C 83 % 1018,8 hPa 0,0 l/m 0,0 km/h (0 Bft) SW 233 10,6 C 0,0 km/h (0 Bft) 96 %
18.06.2018 06:00 13,4 C 83 % 1018,8 hPa 0,0 l/m 0,0 km/h (0 Bft) S-SW 209 10,6 C 0,0 km/h (0 Bft) 100 %
18.06.2018 06:01 13,4 C 83 % 1018,8 hPa 0,0 l/m 1,6 km/h (1 Bft) W-SW 255 10,6 C 6,3 km/h (2 Bft) 96 %
18.06.2018 06:02 13,4 C 83 % 1018,8 hPa 0,0 l/m 1,4 km/h (1 Bft) SW 216 10,6 C 6,3 km/h (2 Bft) 100 %
18.06.2018 06:03 13,5 C 83 % 1018,8 hPa 0,0 l/m 1,0 km/h (0 Bft) SW 236 10,7 C 3,1 km/h (1 Bft) 96 %
18.06.2018 06:04 13,4 C 83 % 1018,8 hPa 0,0 l/m 0,4 km/h (0 Bft) SW 229 10,6 C 3,1 km/h (1 Bft) 96 %
18.06.2018 06:05 13,5 C 83 % 1018,8 hPa 0,0 l/m 2,4 km/h (1 Bft) S-SW 213 10,7 C 6,3 km/h (2 Bft) 100 %
18.06.2018 06:06 13,5 C 83 % 1018,8 hPa 0,0 l/m 1,6 km/h (1 Bft) SW 217 10,7 C 3,1 km/h (1 Bft) 96 %
18.06.2018 06:07 13,5 C 83 % 1018,8 hPa 0,0 l/m 0,6 km/h (0 Bft) SW 234 10,7 C 6,3 km/h (2 Bft) 100 %
18.06.2018 06:08 13,5 C 83 % 1018,8 hPa 0,0 l/m 0,1 km/h (0 Bft) SW 220 10,7 C 3,1 km/h (1 Bft) 100 %
18.06.2018 06:09 13,6 C 83 % 1018,8 hPa 0,0 l/m 0,0 km/h (0 Bft) SW 220 10,8 C 0,0 km/h (0 Bft) 100 %
18.06.2018 06:10 13,6 C 83 % 1018,8 hPa 0,0 l/m 0,0 km/h (0 Bft) W-SW 246 10,8 C 0,0 km/h (0 Bft) 100 %
18.06.2018 06:11 13,6 C 83 % 1018,8 hPa 0,0 l/m 2,0 km/h (1 Bft) W-SW 241 10,8 C 6,3 km/h (2 Bft) 100 %
18.06.2018 06:12 13,6 C 83 % 1018,8 hPa 0,0 l/m 2,4 km/h (1 Bft) SW 232 10,8 C 6,3 km/h (2 Bft) 100 %
18.06.2018 06:13 13,6 C 83 % 1018,9 hPa 0,0 l/m 0,9 km/h (0 Bft) W 265 10,8 C 3,1 km/h (1 Bft) 100 %
18.06.2018 06:14 13,6 C 83 % 1018,8 hPa 0,0 l/m 0,0 km/h (0 Bft) W 265 10,8 C 0,0 km/h (0 Bft) 100 %
18.06.2018 06:15 13,6 C 83 % 1018,8 hPa 0,0 l/m 0,0 km/h (0 Bft) W 262 10,8 C 0,0 km/h (0 Bft) 100 %
18.06.2018 06:16 13,6 C 83 % 1018,8 hPa 0,0 l/m 0,0 km/h (0 Bft) W 262 10,8 C 0,0 km/h (0 Bft) 100 %
18.06.2018 06:17 13,6 C 83 % 1018,8 hPa 0,0 l/m 0,1 km/h (0 Bft) W-NW 296 10,8 C 3,1 km/h (1 Bft) 100 %
18.06.2018 06:18 13,6 C 83 % 1018,7 hPa 0,0 l/m 0,2 km/h (0 Bft) W 265 10,8 C 3,1 km/h (1 Bft) 100 %
18.06.2018 06:19 13,7 C 83 % 1018,8 hPa 0,0 l/m 0,2 km/h (0 Bft) W 259 10,9 C 3,1 km/h (1 Bft) 100 %
18.06.2018 06:20 13,7 C 83 % 1018,8 hPa 0,0 l/m 0,0 km/h (0 Bft) W 259 10,9 C 0,0 km/h (0 Bft) 100 %
18.06.2018 06:21 13,7 C 83 % 1018,7 hPa 0,0 l/m 0,1 km/h (0 Bft) W 259 10,9 C 3,1 km/h (1 Bft) 100 %
18.06.2018 06:22 13,7 C 83 % 1018,8 hPa 0,0 l/m 0,0 km/h (0 Bft) SW 229 10,9 C 0,0 km/h (0 Bft) 100 %
18.06.2018 06:23 13,7 C 83 % 1018,7 hPa 0,0 l/m 0,5 km/h (0 Bft) SW 235 10,9 C 3,1 km/h (1 Bft) 100 %
18.06.2018 06:24 13,7 C 83 % 1018,8 hPa 0,0 l/m 0,7 km/h (0 Bft) SW 228 10,9 C 6,3 km/h (2 Bft) 100 %
18.06.2018 06:25 13,7 C 82 % 1018,8 hPa 0,0 l/m 0,9 km/h (0 Bft) W-SW 257 10,7 C 6,3 km/h (2 Bft) 100 %
18.06.2018 06:26 13,7 C 82 % 1018,8 hPa 0,0 l/m 0,1 km/h (0 Bft) W-SW 254 10,7 C 3,1 km/h (1 Bft) 100 %
18.06.2018 06:27 13,7 C 82 % 1018,8 hPa 0,0 l/m 1,6 km/h (1 Bft) W 259 10,7 C 6,3 km/h (2 Bft) 100 %
18.06.2018 06:28 13,7 C 82 % 1018,8 hPa 0,0 l/m 0,5 km/h (0 Bft) SW 221 10,7 C 3,1 km/h (1 Bft) 100 %
18.06.2018 06:29 13,7 C 82 % 1018,9 hPa 0,0 l/m 0,8 km/h (0 Bft) W 274 10,7 C 3,1 km/h (1 Bft) 100 %
18.06.2018 06:30 13,7 C 82 % 1018,8 hPa 0,0 l/m 0,3 km/h (0 Bft) SW 234 10,7 C 3,1 km/h (1 Bft) 100 %
18.06.2018 06:31 13,7 C 82 % 1018,8 hPa 0,0 l/m 0,4 km/h (0 Bft) SW 224 10,7 C 3,1 km/h (1 Bft) 100 %
18.06.2018 06:32 13,7 C 83 % 1018,8 hPa 0,0 l/m 0,4 km/h (0 Bft) SW 233 10,9 C 3,1 km/h (1 Bft) 100 %
18.06.2018 06:33 13,7 C 83 % 1018,8 hPa 0,0 l/m 0,5 km/h (0 Bft) SW 225 10,9 C 3,1 km/h (1 Bft) 100 %
18.06.2018 06:34 13,7 C 82 % 1018,8 hPa 0,0 l/m 8,4 km/h (2 Bft) W-SW 247 10,7 C 12,6 km/h (3 Bft) 100 %
18.06.2018 06:35 13,7 C 82 % 1018,8 hPa 0,0 l/m 0,8 km/h (0 Bft) S-SW 204 10,7 C 6,3 km/h (2 Bft) 100 %
18.06.2018 06:36 13,8 C 82 % 1018,8 hPa 0,0 l/m 4,3 km/h (1 Bft) SW 214 10,8 C 15,7 km/h (3 Bft) 100 %
18.06.2018 06:37 13,8 C 82 % 1018,8 hPa 0,0 l/m 2,5 km/h (1 Bft) SW 233 10,8 C 9,4 km/h (2 Bft) 100 %
18.06.2018 06:38 13,8 C 83 % 1018,8 hPa 0,0 l/m 0,7 km/h (0 Bft) SW 236 11,0 C 9,4 km/h (2 Bft) 100 %
18.06.2018 06:39 13,8 C 83 % 1018,9 hPa 0,0 l/m 3,8 km/h (1 Bft) W-SW 256 11,0 C 9,4 km/h (2 Bft) 100 %
18.06.2018 06:40 13,8 C 83 % 1018,9 hPa 0,0 l/m 1,3 km/h (1 Bft) SW 229 11,0 C 6,3 km/h (2 Bft) 100 %
18.06.2018 06:41 13,8 C 83 % 1018,8 hPa 0,0 l/m 3,0 km/h (1 Bft) S-SO 155 11,0 C 12,6 km/h (3 Bft) 100 %
18.06.2018 06:42 13,8 C 83 % 1018,9 hPa 0,0 l/m 1,0 km/h (0 Bft) SW 223 11,0 C 6,3 km/h (2 Bft) 100 %
18.06.2018 06:43 13,8 C 83 % 1018,8 hPa 0,0 l/m 1,4 km/h (1 Bft) NW 319 11,0 C 9,4 km/h (2 Bft) 100 %
18.06.2018 06:44 13,8 C 83 % 1018,8 hPa 0,0 l/m 1,3 km/h (1 Bft) NW 310 11,0 C 6,3 km/h (2 Bft) 100 %
18.06.2018 06:45 13,8 C 83 % 1018,8 hPa 0,0 l/m 3,7 km/h (1 Bft) SW 217 11,0 C 9,4 km/h (2 Bft) 100 %
18.06.2018 06:46 13,8 C 83 % 1018,8 hPa 0,0 l/m 1,0 km/h (0 Bft) SW 226 11,0 C 3,1 km/h (1 Bft) 100 %
18.06.2018 06:47 13,8 C 83 % 1018,7 hPa 0,0 l/m 0,8 km/h (0 Bft) W-SW 239 11,0 C 3,1 km/h (1 Bft) 100 %
18.06.2018 06:48 13,8 C 83 % 1018,8 hPa 0,0 l/m 0,0 km/h (0 Bft) W-SW 239 11,0 C 0,0 km/h (0 Bft) 100 %
18.06.2018 06:49 13,8 C 84 % 1018,8 hPa 0,0 l/m 0,9 km/h (0 Bft) W-SW 248 11,1 C 9,4 km/h (2 Bft) 100 %
18.06.2018 06:50 13,8 C 83 % 1018,7 hPa 0,0 l/m 3,0 km/h (1 Bft) W-SW 240 11,0 C 9,4 km/h (2 Bft) 100 %
18.06.2018 06:51 13,8 C 83 % 1018,7 hPa 0,0 l/m 0,8 km/h (0 Bft) S-SW 195 11,0 C 9,4 km/h (2 Bft) 100 %
18.06.2018 06:52 13,8 C 83 % 1018,7 hPa 0,0 l/m 1,0 km/h (0 Bft) W 270 11,0 C 6,3 km/h (2 Bft) 100 %
18.06.2018 06:53 13,8 C 83 % 1018,7 hPa 0,0 l/m 4,4 km/h (1 Bft) W-SW 255 11,0 C 12,6 km/h (3 Bft) 100 %
18.06.2018 06:54 13,9 C 83 % 1018,8 hPa 0,0 l/m 3,8 km/h (1 Bft) SW 218 11,1 C 9,4 km/h (2 Bft) 100 %
18.06.2018 06:55 13,9 C 83 % 1018,8 hPa 0,0 l/m 0,7 km/h (0 Bft) SW 233 11,1 C 3,1 km/h (1 Bft) 100 %
18.06.2018 06:56 13,9 C 83 % 1018,8 hPa 0,0 l/m 6,1 km/h (2 Bft) SW 233 11,1 C 15,7 km/h (3 Bft) 100 %
18.06.2018 06:57 13,9 C 83 % 1018,8 hPa 0,0 l/m 0,5 km/h (0 Bft) SW 226 11,1 C 3,1 km/h (1 Bft) 96 %
18.06.2018 06:58 13,9 C 83 % 1018,8 hPa 0,0 l/m 5,5 km/h (1 Bft) SW 229 11,1 C 12,6 km/h (3 Bft) 100 %
18.06.2018 06:59 13,9 C 83 % 1018,8 hPa 0,0 l/m 4,2 km/h (1 Bft) W 277 11,1 C 12,6 km/h (3 Bft) 96 %
18.06.2018 07:00 13,9 C 83 % 1018,7 hPa 0,0 l/m 1,8 km/h (1 Bft) SW 234 11,1 C 9,4 km/h (2 Bft) 100 %
18.06.2018 07:01 13,9 C 83 % 1018,8 hPa 0,0 l/m 1,0 km/h (0 Bft) W-SW 239 11,1 C 9,4 km/h (2 Bft) 100 %
18.06.2018 07:02 13,9 C 83 % 1018,8 hPa 0,0 l/m 6,7 km/h (2 Bft) S-SW 213 11,1 C 12,6 km/h (3 Bft) 100 %
18.06.2018 07:03 14,0 C 83 % 1018,8 hPa 0,0 l/m 1,3 km/h (1 Bft) W 268 11,2 C 6,3 km/h (2 Bft) 96 %
18.06.2018 07:04 14,0 C 83 % 1018,8 hPa 0,0 l/m 3,5 km/h (1 Bft) W-SW 238 11,2 C 15,7 km/h (3 Bft) 100 %
18.06.2018 07:05 14,0 C 83 % 1018,8 hPa 0,0 l/m 2,7 km/h (1 Bft) W-SW 247 11,2 C 9,4 km/h (2 Bft) 96 %
18.06.2018 07:06 14,0 C 83 % 1018,8 hPa 0,0 l/m 0,0 km/h (0 Bft) W-SW 252 11,2 C 0,0 km/h (0 Bft) 100 %
18.06.2018 07:07 14,1 C 83 % 1018,9 hPa 0,0 l/m 1,2 km/h (1 Bft) NW 314 11,3 C 3,1 km/h (1 Bft) 91 %
18.06.2018 07:08 14,1 C 83 % 1018,8 hPa 0,0 l/m 3,5 km/h (1 Bft) SO 134 11,3 C 9,4 km/h (2 Bft) 100 %
18.06.2018 07:09 14,1 C 82 % 1019,0 hPa 0,0 l/m 4,4 km/h (1 Bft) W-NW 290 11,1 C 12,6 km/h (3 Bft) 93 %
18.06.2018 07:10 14,1 C 82 % 1018,9 hPa 0,0 l/m 0,0 km/h (0 Bft) S-SW 200 11,1 C 0,0 km/h (0 Bft) 100 %
18.06.2018 07:11 14,1 C 82 % 1018,9 hPa 0,0 l/m 1,6 km/h (1 Bft) S-SW 205 11,1 C 3,1 km/h (1 Bft) 96 %
18.06.2018 07:12 14,1 C 82 % 1018,9 hPa 0,0 l/m 5,3 km/h (1 Bft) W-SW 244 11,1 C 12,6 km/h (3 Bft) 96 %
18.06.2018 07:13 14,1 C 82 % 1018,9 hPa 0,0 l/m 2,0 km/h (1 Bft) W-SW 240 11,1 C 6,3 km/h (2 Bft) 100 %
18.06.2018 07:14 14,1 C 82 % 1018,9 hPa 0,0 l/m 1,1 km/h (1 Bft) W-NW 287 11,1 C 3,1 km/h (1 Bft) 100 %
18.06.2018 07:15 14,2 C 82 % 1018,9 hPa 0,0 l/m 4,6 km/h (1 Bft) W 265 11,2 C 6,3 km/h (2 Bft) 100 %
18.06.2018 07:16 14,2 C 82 % 1018,9 hPa 0,0 l/m 1,6 km/h (1 Bft) W-SW 243 11,2 C 9,4 km/h (2 Bft) 100 %
18.06.2018 07:17 14,2 C 81 % 1018,9 hPa 0,0 l/m 6,9 km/h (2 Bft) SW 218 11,0 C 12,6 km/h (3 Bft) 100 %
18.06.2018 07:18 14,2 C 82 % 1018,9 hPa 0,0 l/m 0,1 km/h (0 Bft) SW 218 11,2 C 3,1 km/h (1 Bft) 100 %
18.06.2018 07:19 14,2 C 82 % 1018,9 hPa 0,0 l/m 0,8 km/h (0 Bft) NW 315 11,2 C 3,1 km/h (1 Bft) 100 %
18.06.2018 07:20 14,3 C 82 % 1018,9 hPa 0,0 l/m 2,7 km/h (1 Bft) W-SW 250 11,3 C 12,6 km/h (3 Bft) 100 %
18.06.2018 07:21 14,3 C 82 % 1018,9 hPa 0,0 l/m 5,0 km/h (1 Bft) W 259 11,3 C 9,4 km/h (2 Bft) 100 %
18.06.2018 07:22 14,3 C 82 % 1018,8 hPa 0,0 l/m 0,1 km/h (0 Bft) SO 139 11,3 C 3,1 km/h (1 Bft) 100 %
18.06.2018 07:23 14,3 C 82 % 1018,8 hPa 0,0 l/m 2,5 km/h (1 Bft) S 186 11,3 C 6,3 km/h (2 Bft) 100 %
18.06.2018 07:24 14,3 C 81 % 1018,8 hPa 0,0 l/m 0,8 km/h (0 Bft) SW 224 11,1 C 6,3 km/h (2 Bft) 100 %
18.06.2018 07:25 14,3 C 82 % 1018,9 hPa 0,0 l/m 1,2 km/h (1 Bft) W-SW 238 11,3 C 3,1 km/h (1 Bft) 100 %
18.06.2018 07:26 14,3 C 81 % 1018,9 hPa 0,0 l/m 4,7 km/h (1 Bft) S-SW 212 11,1 C 12,6 km/h (3 Bft) 100 %
18.06.2018 07:27 14,3 C 81 % 1018,9 hPa 0,0 l/m 3,7 km/h (1 Bft) SW 236 11,1 C 9,4 km/h (2 Bft) 100 %
18.06.2018 07:28 14,4 C 81 % 1018,8 hPa 0,0 l/m 6,3 km/h (2 Bft) SW 225 11,2 C 12,6 km/h (3 Bft) 100 %
18.06.2018 07:29 14,4 C 81 % 1018,8 hPa 0,0 l/m 2,2 km/h (1 Bft) SW 235 11,2 C 6,3 km/h (2 Bft) 100 %
18.06.2018 07:30 14,4 C 81 % 1018,8 hPa 0,0 l/m 1,4 km/h (1 Bft) NO 38 11,2 C 3,1 km/h (1 Bft) 100 %
18.06.2018 07:31 14,4 C 80 % 1018,8 hPa 0,0 l/m 6,9 km/h (2 Bft) SW 221 11,0 C 15,7 km/h (3 Bft) 100 %
18.06.2018 07:32 14,4 C 80 % 1018,8 hPa 0,0 l/m 3,4 km/h (1 Bft) SW 218 11,0 C 6,3 km/h (2 Bft) 100 %
18.06.2018 07:33 14,4 C 80 % 1018,8 hPa 0,0 l/m 4,7 km/h (1 Bft) SW 233 11,0 C 9,4 km/h (2 Bft) 100 %
18.06.2018 07:34 14,5 C 80 % 1018,9 hPa 0,0 l/m 3,4 km/h (1 Bft) W 263 11,1 C 9,4 km/h (2 Bft) 100 %
18.06.2018 07:35 14,5 C 80 % 1018,8 hPa 0,0 l/m 1,3 km/h (1 Bft) N 351 11,1 C 3,1 km/h (1 Bft) 100 %
18.06.2018 07:36 14,5 C 80 % 1018,9 hPa 0,0 l/m 1,6 km/h (1 Bft) NW 307 11,1 C 6,3 km/h (2 Bft) 100 %
18.06.2018 07:37 14,6 C 81 % 1019,0 hPa 0,0 l/m 4,2 km/h (1 Bft) NW 311 11,4 C 9,4 km/h (2 Bft) 100 %
18.06.2018 07:38 14,6 C 80 % 1018,9 hPa 0,0 l/m 0,0 km/h (0 Bft) W-SW 252 11,2 C 0,0 km/h (0 Bft) 100 %
18.06.2018 07:39 14,6 C 80 % 1019,0 hPa 0,0 l/m 0,0 km/h (0 Bft) W-SW 252 11,2 C 0,0 km/h (0 Bft) 100 %
18.06.2018 07:40 14,6 C 81 % 1019,0 hPa 0,0 l/m 3,1 km/h (1 Bft) SW 224 11,4 C 9,4 km/h (2 Bft) 100 %
18.06.2018 07:41 14,6 C 80 % 1019,0 hPa 0,0 l/m 2,6 km/h (1 Bft) W-SW 239 11,2 C 3,1 km/h (1 Bft) 100 %
18.06.2018 07:42 14,6 C 80 % 1019,1 hPa 0,0 l/m 1,6 km/h (1 Bft) W 259 11,2 C 3,1 km/h (1 Bft) 100 %
18.06.2018 07:43 14,7 C 80 % 1019,1 hPa 0,0 l/m 4,9 km/h (1 Bft) S-SW 212 11,3 C 9,4 km/h (2 Bft) 100 %
18.06.2018 07:44 14,7 C 80 % 1019,1 hPa 0,0 l/m 2,4 km/h (1 Bft) NW 316 11,3 C 6,3 km/h (2 Bft) 100 %
18.06.2018 07:45 14,7 C 80 % 1019,1 hPa 0,0 l/m 7,6 km/h (2 Bft) S-SW 212 11,3 C 15,7 km/h (3 Bft) 100 %
18.06.2018 07:46 14,7 C 79 % 1019,1 hPa 0,0 l/m 3,4 km/h (1 Bft) SW 236 11,1 C 9,4 km/h (2 Bft) 100 %
18.06.2018 07:47 14,7 C 80 % 1019,1 hPa 0,0 l/m 0,8 km/h (0 Bft) W-SW 250 11,3 C 3,1 km/h (1 Bft) 100 %
18.06.2018 07:48 14,7 C 80 % 1019,1 hPa 0,0 l/m 2,4 km/h (1 Bft) W-SW 242 11,3 C 9,4 km/h (2 Bft) 100 %
18.06.2018 07:49 14,7 C 80 % 1019,1 hPa 0,0 l/m 5,2 km/h (1 Bft) S-SW 206 11,3 C 15,7 km/h (3 Bft) 100 %
18.06.2018 07:50 14,7 C 79 % 1019,1 hPa 0,0 l/m 4,6 km/h (1 Bft) S 186 11,1 C 12,6 km/h (3 Bft) 100 %
18.06.2018 07:51 14,7 C 79 % 1019,1 hPa 0,0 l/m 4,2 km/h (1 Bft) NW 319 11,1 C 9,4 km/h (2 Bft) 100 %
18.06.2018 07:52 14,7 C 80 % 1019,1 hPa 0,0 l/m 1,5 km/h (1 Bft) W-SW 238 11,3 C 3,1 km/h (1 Bft) 100 %
18.06.2018 07:53 14,7 C 80 % 1019,1 hPa 0,0 l/m 4,1 km/h (1 Bft) W-NW 297 11,3 C 12,6 km/h (3 Bft) 100 %
18.06.2018 07:54 14,7 C 79 % 1019,2 hPa 0,0 l/m 2,6 km/h (1 Bft) SW 221 11,1 C 12,6 km/h (3 Bft) 100 %
18.06.2018 07:55 14,7 C 80 % 1019,1 hPa 0,0 l/m 0,6 km/h (0 Bft) SW 226 11,3 C 3,1 km/h (1 Bft) 100 %
18.06.2018 07:56 14,7 C 80 % 1019,1 hPa 0,0 l/m 0,0 km/h (0 Bft) SW 226 11,3 C 0,0 km/h (0 Bft) 100 %
18.06.2018 07:57 14,8 C 80 % 1019,2 hPa 0,0 l/m 1,1 km/h (1 Bft) W-NW 303 11,4 C 3,1 km/h (1 Bft) 100 %
18.06.2018 07:58 14,8 C 80 % 1019,1 hPa 0,0 l/m 2,2 km/h (1 Bft) S-SW 213 11,4 C 9,4 km/h (2 Bft) 100 %
18.06.2018 07:59 14,8 C 79 % 1019,1 hPa 0,0 l/m 3,9 km/h (1 Bft) NW 325 11,2 C 9,4 km/h (2 Bft) 100 %
18.06.2018 08:00 14,8 C 79 % 1019,1 hPa 0,0 l/m 4,6 km/h (1 Bft) W-SW 252 11,2 C 9,4 km/h (2 Bft) 94 %
18.06.2018 08:01 14,8 C 79 % 1019,1 hPa 0,0 l/m 2,1 km/h (1 Bft) W-SW 242 11,2 C 6,3 km/h (2 Bft) 97 %
18.06.2018 08:02 14,8 C 79 % 1019,1 hPa 0,0 l/m 3,0 km/h (1 Bft) W-NW 297 11,2 C 6,3 km/h (2 Bft) 96 %
18.06.2018 08:03 14,8 C 80 % 1019,1 hPa 0,0 l/m 0,0 km/h (0 Bft) W-NW 295 11,4 C 0,0 km/h (0 Bft) 96 %
18.06.2018 08:04 14,8 C 80 % 1019,1 hPa 0,0 l/m 0,0 km/h (0 Bft) N-NO 15 11,4 C 0,0 km/h (0 Bft) 100 %
18.06.2018 08:05 14,9 C 80 % 1019,1 hPa 0,0 l/m 2,2 km/h (1 Bft) S-SO 153 11,5 C 6,3 km/h (2 Bft) 100 %
18.06.2018 08:06 14,9 C 79 % 1019,1 hPa 0,0 l/m 1,0 km/h (0 Bft) W 268 11,3 C 3,1 km/h (1 Bft) 93 %
18.06.2018 08:07 14,9 C 80 % 1019,2 hPa 0,0 l/m 2,7 km/h (1 Bft) W-SW 239 11,5 C 6,3 km/h (2 Bft) 100 %
18.06.2018 08:08 14,9 C 79 % 1019,2 hPa 0,0 l/m 1,3 km/h (1 Bft) W-SW 245 11,3 C 6,3 km/h (2 Bft) 96 %
18.06.2018 08:09 14,9 C 80 % 1019,2 hPa 0,0 l/m 1,0 km/h (0 Bft) SW 224 11,5 C 3,1 km/h (1 Bft) 100 %
18.06.2018 08:10 15,0 C 79 % 1019,2 hPa 0,0 l/m 2,1 km/h (1 Bft) SW 221 11,4 C 6,3 km/h (2 Bft) 96 %
18.06.2018 08:11 15,0 C 80 % 1019,1 hPa 0,0 l/m 0,1 km/h (0 Bft) W-SW 245 11,6 C 3,1 km/h (1 Bft) 100 %
18.06.2018 08:12 15,1 C 79 % 1019,2 hPa 0,0 l/m 3,6 km/h (1 Bft) SW 214 11,5 C 9,4 km/h (2 Bft) 96 %
18.06.2018 08:13 15,1 C 79 % 1019,1 hPa 0,0 l/m 2,9 km/h (1 Bft) S-SW 201 11,5 C 9,4 km/h (2 Bft) 96 %
18.06.2018 08:14 15,1 C 79 % 1019,1 hPa 0,0 l/m 0,0 km/h (0 Bft) S-SW 201 11,5 C 0,0 km/h (0 Bft) 100 %
18.06.2018 08:15 15,1 C 79 % 1019,2 hPa 0,0 l/m 1,4 km/h (1 Bft) S-SW 207 11,5 C 9,4 km/h (2 Bft) 100 %
18.06.2018 08:16 15,1 C 79 % 1019,2 hPa 0,0 l/m 3,0 km/h (1 Bft) W 265 11,5 C 9,4 km/h (2 Bft) 100 %
18.06.2018 08:17 15,1 C 79 % 1019,1 hPa 0,0 l/m 0,0 km/h (0 Bft) W 265 11,5 C 0,0 km/h (0 Bft) 100 %
18.06.2018 08:18 15,1 C 79 % 1019,2 hPa 0,0 l/m 3,8 km/h (1 Bft) W-SW 242 11,5 C 9,4 km/h (2 Bft) 100 %
18.06.2018 08:19 15,1 C 79 % 1019,2 hPa 0,0 l/m 1,0 km/h (0 Bft) S-SW 195 11,5 C 6,3 km/h (2 Bft) 100 %
18.06.2018 08:20 15,1 C 79 % 1019,2 hPa 0,0 l/m 1,3 km/h (1 Bft) W 269 11,5 C 6,3 km/h (2 Bft) 100 %
18.06.2018 08:21 15,1 C 79 % 1019,2 hPa 0,0 l/m 5,6 km/h (1 Bft) W-SW 250 11,5 C 15,7 km/h (3 Bft) 100 %
18.06.2018 08:22 15,1 C 79 % 1019,2 hPa 0,0 l/m 1,8 km/h (1 Bft) NW 324 11,5 C 12,6 km/h (3 Bft) 100 %
18.06.2018 08:23 15,1 C 79 % 1019,2 hPa 0,0 l/m 4,6 km/h (1 Bft) SW 233 11,5 C 6,3 km/h (2 Bft) 100 %
18.06.2018 08:24 15,1 C 79 % 1019,2 hPa 0,0 l/m 0,0 km/h (0 Bft) W-SW 238 11,5 C 0,0 km/h (0 Bft) 100 %
18.06.2018 08:25 15,1 C 79 % 1019,2 hPa 0,0 l/m 0,0 km/h (0 Bft) W-SW 238 11,5 C 0,0 km/h (0 Bft) 100 %
18.06.2018 08:26 15,1 C 79 % 1019,2 hPa 0,0 l/m 0,2 km/h (0 Bft) W-SW 237 11,5 C 3,1 km/h (1 Bft) 100 %
18.06.2018 08:27 15,1 C 79 % 1019,3 hPa 0,0 l/m 2,7 km/h (1 Bft) W 272 11,5 C 6,3 km/h (2 Bft) 100 %
18.06.2018 08:28 15,1 C 80 % 1019,2 hPa 0,0 l/m 0,6 km/h (0 Bft) W 274 11,7 C 3,1 km/h (1 Bft) 100 %
18.06.2018 08:29 15,1 C 79 % 1019,2 hPa 0,0 l/m 1,9 km/h (1 Bft) W 281 11,5 C 6,3 km/h (2 Bft) 100 %
18.06.2018 08:30 15,1 C 79 % 1019,2 hPa 0,0 l/m 4,9 km/h (1 Bft) SW 229 11,5 C 6,3 km/h (2 Bft) 100 %
18.06.2018 08:31 15,1 C 79 % 1019,1 hPa 0,0 l/m 0,2 km/h (0 Bft) NW 308 11,5 C 3,1 km/h (1 Bft) 100 %
18.06.2018 08:32 15,1 C 79 % 1019,1 hPa 0,0 l/m 2,4 km/h (1 Bft) W-SW 250 11,5 C 6,3 km/h (2 Bft) 100 %
18.06.2018 08:33 15,1 C 79 % 1019,2 hPa 0,0 l/m 0,0 km/h (0 Bft) W-SW 250 11,5 C 0,0 km/h (0 Bft) 100 %
18.06.2018 08:34 15,2 C 79 % 1019,1 hPa 0,0 l/m 1,0 km/h (0 Bft) W-NW 292 11,6 C 3,1 km/h (1 Bft) 100 %
18.06.2018 08:35 15,2 C 79 % 1019,1 hPa 0,0 l/m 0,2 km/h (0 Bft) W 275 11,6 C 3,1 km/h (1 Bft) 100 %
18.06.2018 08:36 15,2 C 79 % 1019,2 hPa 0,0 l/m 0,9 km/h (0 Bft) S-SW 203 11,6 C 3,1 km/h (1 Bft) 100 %
18.06.2018 08:37 15,2 C 79 % 1019,2 hPa 0,0 l/m 0,0 km/h (0 Bft) S-SW 206 11,6 C 0,0 km/h (0 Bft) 100 %
18.06.2018 08:38 15,3 C 79 % 1019,1 hPa 0,0 l/m 0,1 km/h (0 Bft) SW 233 11,7 C 3,1 km/h (1 Bft) 100 %
18.06.2018 08:39 15,3 C 79 % 1019,1 hPa 0,0 l/m 0,0 km/h (0 Bft) SW 234 11,7 C 0,0 km/h (0 Bft) 100 %
18.06.2018 08:40 15,3 C 79 % 1019,1 hPa 0,0 l/m 0,0 km/h (0 Bft) SW 234 11,7 C 0,0 km/h (0 Bft) 100 %
18.06.2018 08:41 15,3 C 80 % 1019,1 hPa 0,0 l/m 0,0 km/h (0 Bft) SW 234 11,9 C 0,0 km/h (0 Bft) 100 %
18.06.2018 08:42 15,4 C 79 % 1019,1 hPa 0,0 l/m 2,6 km/h (1 Bft) SW 234 11,8 C 6,3 km/h (2 Bft) 100 %
18.06.2018 08:43 15,4 C 79 % 1019,1 hPa 0,0 l/m 3,1 km/h (1 Bft) W-SW 239 11,8 C 6,3 km/h (2 Bft) 100 %
18.06.2018 08:44 15,4 C 78 % 1019,1 hPa 0,0 l/m 2,6 km/h (1 Bft) W-SW 238 11,6 C 6,3 km/h (2 Bft) 100 %
18.06.2018 08:45 15,4 C 78 % 1019,1 hPa 0,0 l/m 2,8 km/h (1 Bft) SW 219 11,6 C 6,3 km/h (2 Bft) 100 %
18.06.2018 08:46 15,4 C 78 % 1019,1 hPa 0,0 l/m 0,0 km/h (0 Bft) SW 219 11,6 C 0,0 km/h (0 Bft) 100 %
18.06.2018 08:47 15,4 C 78 % 1019,1 hPa 0,0 l/m 1,0 km/h (0 Bft) W-SW 245 11,6 C 3,1 km/h (1 Bft) 100 %
18.06.2018 08:48 15,4 C 78 % 1019,1 hPa 0,0 l/m 2,5 km/h (1 Bft) W-NW 294 11,6 C 6,3 km/h (2 Bft) 100 %
18.06.2018 08:49 15,4 C 78 % 1019,2 hPa 0,0 l/m 1,0 km/h (0 Bft) W 269 11,6 C 6,3 km/h (2 Bft) 100 %
18.06.2018 08:50 15,5 C 78 % 1019,2 hPa 0,0 l/m 4,1 km/h (1 Bft) SW 230 11,7 C 12,6 km/h (3 Bft) 100 %
18.06.2018 08:51 15,5 C 78 % 1019,1 hPa 0,0 l/m 1,7 km/h (1 Bft) W-SW 242 11,7 C 6,3 km/h (2 Bft) 100 %
18.06.2018 08:52 15,5 C 78 % 1019,1 hPa 0,0 l/m 0,7 km/h (0 Bft) W-SW 242 11,7 C 3,1 km/h (1 Bft) 100 %
18.06.2018 08:53 15,6 C 77 % 1019,1 hPa 0,0 l/m 4,4 km/h (1 Bft) SW 218 11,6 C 12,6 km/h (3 Bft) 100 %
18.06.2018 08:54 15,6 C 77 % 1019,2 hPa 0,0 l/m 1,5 km/h (1 Bft) W 265 11,6 C 3,1 km/h (1 Bft) 100 %
18.06.2018 08:55 15,6 C 78 % 1019,2 hPa 0,0 l/m 0,3 km/h (0 Bft) N-NO 19 11,8 C 3,1 km/h (1 Bft) 100 %
18.06.2018 08:56 15,6 C 78 % 1019,2 hPa 0,0 l/m 0,3 km/h (0 Bft) N-NO 19 11,8 C 3,1 km/h (1 Bft) 100 %
18.06.2018 08:57 15,7 C 78 % 1019,2 hPa 0,0 l/m 0,0 km/h (0 Bft) SW 217 11,9 C 0,0 km/h (0 Bft) 100 %
18.06.2018 08:58 15,7 C 77 % 1019,2 hPa 0,0 l/m 7,2 km/h (2 Bft) W-SW 254 11,7 C 12,6 km/h (3 Bft) 100 %
18.06.2018 08:59 15,8 C 78 % 1019,2 hPa 0,0 l/m 0,0 km/h (0 Bft) W 274 12,0 C 0,0 km/h (0 Bft) 100 %
18.06.2018 09:00 15,8 C 78 % 1019,3 hPa 0,0 l/m 0,5 km/h (0 Bft) W 269 12,0 C 3,1 km/h (1 Bft) 100 %
18.06.2018 09:01 15,9 C 78 % 1019,2 hPa 0,0 l/m 2,8 km/h (1 Bft) W-SW 255 12,1 C 6,3 km/h (2 Bft) 100 %
18.06.2018 09:02 15,9 C 77 % 1019,2 hPa 0,0 l/m 2,2 km/h (1 Bft) SW 235 11,9 C 9,4 km/h (2 Bft) 100 %
18.06.2018 09:03 15,9 C 77 % 1019,1 hPa 0,0 l/m 2,2 km/h (1 Bft) NW 316 11,9 C 6,3 km/h (2 Bft) 100 %
18.06.2018 09:04 15,9 C 76 % 1019,2 hPa 0,0 l/m 0,6 km/h (0 Bft) NW 307 11,7 C 3,1 km/h (1 Bft) 100 %
18.06.2018 09:05 16,0 C 77 % 1019,2 hPa 0,0 l/m 0,4 km/h (0 Bft) W 262 12,0 C 3,1 km/h (1 Bft) 96 %
18.06.2018 09:06 16,0 C 77 % 1019,2 hPa 0,0 l/m 2,9 km/h (1 Bft) W 262 12,0 C 6,3 km/h (2 Bft) 100 %
18.06.2018 09:07 16,1 C 77 % 1019,2 hPa 0,0 l/m 3,8 km/h (1 Bft) SW 232 12,1 C 6,3 km/h (2 Bft) 96 %
18.06.2018 09:08 16,1 C 76 % 1019,3 hPa 0,0 l/m 0,1 km/h (0 Bft) SW 232 11,9 C 3,1 km/h (1 Bft) 100 %
18.06.2018 09:09 16,1 C 77 % 1019,4 hPa 0,0 l/m 0,3 km/h (0 Bft) SW 225 12,1 C 3,1 km/h (1 Bft) 96 %
18.06.2018 09:10 16,2 C 76 % 1019,4 hPa 0,0 l/m 0,7 km/h (0 Bft) W 266 12,0 C 3,1 km/h (1 Bft) 100 %
18.06.2018 09:11 16,2 C 76 % 1019,4 hPa 0,0 l/m 2,3 km/h (1 Bft) W-SW 256 12,0 C 6,3 km/h (2 Bft) 96 %
18.06.2018 09:12 16,2 C 76 % 1019,4 hPa 0,0 l/m 4,4 km/h (1 Bft) SW 235 12,0 C 12,6 km/h (3 Bft) 100 %
18.06.2018 09:13 16,2 C 76 % 1019,5 hPa 0,0 l/m 0,0 km/h (0 Bft) W-SW 247 12,0 C 0,0 km/h (0 Bft) 96 %
18.06.2018 09:14 16,2 C 76 % 1019,5 hPa 0,0 l/m 2,9 km/h (1 Bft) W 278 12,0 C 12,6 km/h (3 Bft) 96 %
18.06.2018 09:15 16,2 C 76 % 1019,5 hPa 0,0 l/m 3,3 km/h (1 Bft) W-SW 237 12,0 C 12,6 km/h (3 Bft) 100 %
18.06.2018 09:16 16,2 C 75 % 1019,6 hPa 0,0 l/m 1,0 km/h (0 Bft) W 275 11,8 C 6,3 km/h (2 Bft) 100 %
18.06.2018 09:17 16,2 C 76 % 1019,6 hPa 0,0 l/m 2,3 km/h (1 Bft) S-SW 207 12,0 C 9,4 km/h (2 Bft) 100 %
18.06.2018 09:18 16,2 C 76 % 1019,6 hPa 0,0 l/m 0,7 km/h (0 Bft) S-SW 200 12,0 C 6,3 km/h (2 Bft) 100 %
18.06.2018 09:19 16,3 C 76 % 1019,6 hPa 0,0 l/m 1,7 km/h (1 Bft) W-SW 238 12,1 C 3,1 km/h (1 Bft) 100 %
18.06.2018 09:20 16,3 C 76 % 1019,6 hPa 0,0 l/m 4,3 km/h (1 Bft) W-NW 299 12,1 C 9,4 km/h (2 Bft) 100 %
18.06.2018 09:21 16,3 C 76 % 1019,6 hPa 0,0 l/m 0,1 km/h (0 Bft) NO 37 12,1 C 3,1 km/h (1 Bft) 100 %
18.06.2018 09:22 16,4 C 77 % 1019,6 hPa 0,0 l/m 0,8 km/h (0 Bft) W-SW 243 12,4 C 3,1 km/h (1 Bft) 100 %
18.06.2018 09:23 16,4 C 75 % 1019,6 hPa 0,0 l/m 1,1 km/h (1 Bft) W-SW 240 12,0 C 3,1 km/h (1 Bft) 100 %
18.06.2018 09:24 16,4 C 76 % 1019,6 hPa 0,0 l/m 0,5 km/h (0 Bft) SW 224 12,2 C 6,3 km/h (2 Bft) 100 %
18.06.2018 09:25 16,4 C 76 % 1019,6 hPa 0,0 l/m 1,2 km/h (1 Bft) SW 226 12,2 C 6,3 km/h (2 Bft) 100 %
18.06.2018 09:26 16,5 C 76 % 1019,6 hPa 0,0 l/m 2,6 km/h (1 Bft) SW 215 12,3 C 6,3 km/h (2 Bft) 100 %
18.06.2018 09:27 16,6 C 76 % 1019,5 hPa 0,0 l/m 0,0 km/h (0 Bft) SW 236 12,3 C 0,0 km/h (0 Bft) 100 %
18.06.2018 09:28 16,6 C 75 % 1019,5 hPa 0,0 l/m 0,2 km/h (0 Bft) W-SW 237 12,1 C 3,1 km/h (1 Bft) 100 %
18.06.2018 09:29 16,6 C 76 % 1019,5 hPa 0,0 l/m 0,1 km/h (0 Bft) W-SW 237 12,3 C 3,1 km/h (1 Bft) 100 %
18.06.2018 09:30 16,7 C 77 % 1019,5 hPa 0,0 l/m 0,2 km/h (0 Bft) W-SW 237 12,6 C 3,1 km/h (1 Bft) 100 %
18.06.2018 09:31 16,8 C 77 % 1019,6 hPa 0,0 l/m 1,1 km/h (1 Bft) N-NW 340 12,7 C 3,1 km/h (1 Bft) 100 %
18.06.2018 09:32 16,8 C 76 % 1019,6 hPa 0,0 l/m 3,3 km/h (1 Bft) W-SW 238 12,5 C 9,4 km/h (2 Bft) 100 %
18.06.2018 09:33 16,9 C 75 % 1019,6 hPa 0,0 l/m 0,8 km/h (0 Bft) W 267 12,4 C 3,1 km/h (1 Bft) 100 %
18.06.2018 09:34 16,9 C 77 % 1019,6 hPa 0,0 l/m 0,0 km/h (0 Bft) W 267 12,8 C 0,0 km/h (0 Bft) 100 %
18.06.2018 09:35 17,0 C 76 % 1019,6 hPa 0,0 l/m 0,7 km/h (0 Bft) W-SW 238 12,7 C 3,1 km/h (1 Bft) 100 %
18.06.2018 09:36 17,0 C 76 % 1019,6 hPa 0,0 l/m 0,0 km/h (0 Bft) W-SW 238 12,7 C 0,0 km/h (0 Bft) 100 %
18.06.2018 09:37 17,1 C 76 % 1019,7 hPa 0,0 l/m 1,5 km/h (1 Bft) SW 235 12,8 C 3,1 km/h (1 Bft) 100 %
18.06.2018 09:38 17,1 C 74 % 1019,7 hPa 0,0 l/m 2,3 km/h (1 Bft) SW 222 12,4 C 6,3 km/h (2 Bft) 96 %
18.06.2018 09:39 17,1 C 73 % 1019,6 hPa 0,0 l/m 4,1 km/h (1 Bft) W-NW 285 12,2 C 9,4 km/h (2 Bft) 100 %
18.06.2018 09:40 17,0 C 74 % 1019,6 hPa 0,0 l/m 3,5 km/h (1 Bft) W 275 12,3 C 9,4 km/h (2 Bft) 100 %
18.06.2018 09:41 16,9 C 73 % 1019,6 hPa 0,0 l/m 7,1 km/h (2 Bft) NW 316 12,0 C 12,6 km/h (3 Bft) 100 %
18.06.2018 09:42 16,9 C 73 % 1019,5 hPa 0,0 l/m 5,6 km/h (1 Bft) W-SW 245 12,0 C 9,4 km/h (2 Bft) 100 %
18.06.2018 09:43 16,9 C 74 % 1019,5 hPa 0,0 l/m 0,1 km/h (0 Bft) SW 219 12,2 C 3,1 km/h (1 Bft) 100 %
18.06.2018 09:44 17,0 C 74 % 1019,5 hPa 0,0 l/m 3,3 km/h (1 Bft) NW 321 12,3 C 9,4 km/h (2 Bft) 100 %
18.06.2018 09:45 17,1 C 76 % 1019,5 hPa 0,0 l/m 0,3 km/h (0 Bft) W 273 12,8 C 3,1 km/h (1 Bft) 100 %
18.06.2018 09:46 17,2 C 76 % 1019,5 hPa 0,0 l/m 0,9 km/h (0 Bft) S-SW 199 12,9 C 3,1 km/h (1 Bft) 100 %
18.06.2018 09:47 17,3 C 76 % 1019,5 hPa 0,0 l/m 5,6 km/h (1 Bft) W-NW 287 13,0 C 12,6 km/h (3 Bft) 100 %
18.06.2018 09:48 17,4 C 73 % 1019,5 hPa 0,0 l/m 3,3 km/h (1 Bft) W-SW 240 12,5 C 9,4 km/h (2 Bft) 100 %
18.06.2018 09:49 17,5 C 74 % 1019,5 hPa 0,0 l/m 6,1 km/h (2 Bft) W-NW 283 12,8 C 9,4 km/h (2 Bft) 100 %
18.06.2018 09:50 17,6 C 73 % 1019,5 hPa 0,0 l/m 4,6 km/h (1 Bft) W-NW 298 12,7 C 9,4 km/h (2 Bft) 100 %
18.06.2018 09:51 17,6 C 73 % 1019,5 hPa 0,0 l/m 4,8 km/h (1 Bft) W-NW 289 12,7 C 9,4 km/h (2 Bft) 100 %
18.06.2018 09:52 17,6 C 72 % 1019,4 hPa 0,0 l/m 7,8 km/h (2 Bft) SW 214 12,5 C 12,6 km/h (3 Bft) 100 %
18.06.2018 09:53 17,6 C 72 % 1019,5 hPa 0,0 l/m 4,8 km/h (1 Bft) W 276 12,5 C 12,6 km/h (3 Bft) 100 %
18.06.2018 09:54 17,6 C 72 % 1019,5 hPa 0,0 l/m 5,2 km/h (1 Bft) W-NW 282 12,5 C 18,8 km/h (3 Bft) 100 %
18.06.2018 09:55 17,7 C 72 % 1019,5 hPa 0,0 l/m 3,4 km/h (1 Bft) W 269 12,6 C 9,4 km/h (2 Bft) 100 %
18.06.2018 09:56 17,7 C 74 % 1019,5 hPa 0,0 l/m 0,0 km/h (0 Bft) SO 129 13,0 C 0,0 km/h (0 Bft) 96 %
18.06.2018 09:57 17,8 C 73 % 1019,6 hPa 0,0 l/m 0,0 km/h (0 Bft) SO 146 12,9 C 0,0 km/h (0 Bft) 96 %
18.06.2018 09:58 17,9 C 74 % 1019,5 hPa 0,0 l/m 0,3 km/h (0 Bft) SO 146 13,2 C 3,1 km/h (1 Bft) 100 %
18.06.2018 09:59 18,0 C 73 % 1019,4 hPa 0,0 l/m 0,1 km/h (0 Bft) NW 316 13,1 C 3,1 km/h (1 Bft) 100 %
18.06.2018 10:00 18,1 C 73 % 1019,4 hPa 0,0 l/m 1,7 km/h (1 Bft) SW 214 13,2 C 3,1 km/h (1 Bft) 100 %
18.06.2018 10:01 18,2 C 72 % 1019,4 hPa 0,0 l/m 1,5 km/h (1 Bft) SW 219 13,1 C 6,3 km/h (2 Bft) 91 %
18.06.2018 10:02 18,2 C 71 % 1019,4 hPa 0,0 l/m 3,5 km/h (1 Bft) S-SO 165 12,9 C 9,4 km/h (2 Bft) 100 %
18.06.2018 10:03 18,3 C 73 % 1019,4 hPa 0,0 l/m 2,0 km/h (1 Bft) O-NO 64 13,4 C 6,3 km/h (2 Bft) 96 %
18.06.2018 10:04 18,4 C 72 % 1019,4 hPa 0,0 l/m 2,9 km/h (1 Bft) W-SW 238 13,3 C 6,3 km/h (2 Bft) 100 %
18.06.2018 10:05 18,4 C 70 % 1019,5 hPa 0,0 l/m 3,1 km/h (1 Bft) W 270 12,8 C 9,4 km/h (2 Bft) 96 %
18.06.2018 10:06 18,4 C 70 % 1019,4 hPa 0,0 l/m 0,6 km/h (0 Bft) NW 319 12,8 C 3,1 km/h (1 Bft) 96 %
18.06.2018 10:07 18,4 C 69 % 1019,4 hPa 0,0 l/m 5,6 km/h (1 Bft) S 176 12,6 C 18,8 km/h (3 Bft) 100 %
18.06.2018 10:08 18,3 C 69 % 1019,4 hPa 0,0 l/m 5,4 km/h (1 Bft) W-SW 240 12,5 C 12,6 km/h (3 Bft) 96 %
18.06.2018 10:09 18,2 C 70 % 1019,4 hPa 0,0 l/m 2,1 km/h (1 Bft) SW 216 12,6 C 6,3 km/h (2 Bft) 100 %
18.06.2018 10:10 18,2 C 71 % 1019,4 hPa 0,0 l/m 2,1 km/h (1 Bft) NO 34 12,9 C 6,3 km/h (2 Bft) 100 %
18.06.2018 10:11 18,2 C 71 % 1019,4 hPa 0,0 l/m 0,1 km/h (0 Bft) N-NO 23 12,9 C 3,1 km/h (1 Bft) 100 %
18.06.2018 10:12 18,1 C 72 % 1019,3 hPa 0,0 l/m 1,6 km/h (1 Bft) NO 49 13,0 C 6,3 km/h (2 Bft) 100 %
18.06.2018 10:13 18,1 C 72 % 1019,4 hPa 0,0 l/m 0,3 km/h (0 Bft) NO 39 13,0 C 3,1 km/h (1 Bft) 100 %
18.06.2018 10:14 18,2 C 72 % 1019,3 hPa 0,0 l/m 0,0 km/h (0 Bft) NO 41 13,1 C 0,0 km/h (0 Bft) 100 %
18.06.2018 10:15 18,1 C 71 % 1019,4 hPa 0,0 l/m 2,7 km/h (1 Bft) W-SW 243 12,8 C 6,3 km/h (2 Bft) 100 %
18.06.2018 10:16 18,1 C 71 % 1019,5 hPa 0,0 l/m 2,7 km/h (1 Bft) W-SW 247 12,8 C 9,4 km/h (2 Bft) 100 %
18.06.2018 10:17 18,1 C 72 % 1019,4 hPa 0,0 l/m 4,2 km/h (1 Bft) SW 221 13,0 C 6,3 km/h (2 Bft) 100 %
18.06.2018 10:18 18,1 C 72 % 1019,5 hPa 0,0 l/m 0,6 km/h (0 Bft) SW 236 13,0 C 6,3 km/h (2 Bft) 100 %
18.06.2018 10:19 18,1 C 72 % 1019,4 hPa 0,0 l/m 1,4 km/h (1 Bft) NW 304 13,0 C 6,3 km/h (2 Bft) 100 %
18.06.2018 10:20 18,1 C 72 % 1019,4 hPa 0,0 l/m 1,0 km/h (0 Bft) NW 311 13,0 C 3,1 km/h (1 Bft) 100 %
18.06.2018 10:21 18,1 C 72 % 1019,4 hPa 0,0 l/m 5,5 km/h (1 Bft) W-SW 241 13,0 C 9,4 km/h (2 Bft) 100 %
18.06.2018 10:22 18,1 C 71 % 1019,5 hPa 0,0 l/m 1,3 km/h (1 Bft) W-SW 249 12,8 C 6,3 km/h (2 Bft) 100 %
18.06.2018 10:23 18,1 C 73 % 1019,5 hPa 0,0 l/m 7,4 km/h (2 Bft) W-SW 245 13,2 C 12,6 km/h (3 Bft) 100 %
18.06.2018 10:24 18,1 C 71 % 1019,4 hPa 0,0 l/m 5,1 km/h (1 Bft) W 261 12,8 C 9,4 km/h (2 Bft) 100 %
18.06.2018 10:25 18,1 C 71 % 1019,4 hPa 0,0 l/m 5,8 km/h (2 Bft) W-SW 238 12,8 C 15,7 km/h (3 Bft) 100 %
18.06.2018 10:26 18,0 C 71 % 1019,4 hPa 0,0 l/m 2,5 km/h (1 Bft) SO 132 12,7 C 9,4 km/h (2 Bft) 100 %
18.06.2018 10:27 18,0 C 71 % 1019,4 hPa 0,0 l/m 1,8 km/h (1 Bft) NO 52 12,7 C 3,1 km/h (1 Bft) 100 %
18.06.2018 10:28 18,1 C 72 % 1019,4 hPa 0,0 l/m 1,3 km/h (1 Bft) W-NW 292 13,0 C 9,4 km/h (2 Bft) 100 %
18.06.2018 10:29 18,0 C 72 % 1019,4 hPa 0,0 l/m 5,5 km/h (1 Bft) W 266 12,9 C 12,6 km/h (3 Bft) 100 %
18.06.2018 10:30 18,1 C 72 % 1019,4 hPa 0,0 l/m 2,1 km/h (1 Bft) W 263 13,0 C 9,4 km/h (2 Bft) 100 %
18.06.2018 10:31 18,0 C 71 % 1019,4 hPa 0,0 l/m 3,3 km/h (1 Bft) W-SW 245 12,7 C 6,3 km/h (2 Bft) 100 %
18.06.2018 10:32 18,1 C 73 % 1019,4 hPa 0,0 l/m 2,7 km/h (1 Bft) W-SW 237 13,2 C 9,4 km/h (2 Bft) 100 %
18.06.2018 10:33 18,1 C 73 % 1019,4 hPa 0,0 l/m 0,5 km/h (0 Bft) W-SW 247 13,2 C 3,1 km/h (1 Bft) 100 %
18.06.2018 10:34 18,1 C 73 % 1019,4 hPa 0,0 l/m 1,8 km/h (1 Bft) S-SW 205 13,2 C 12,6 km/h (3 Bft) 100 %
18.06.2018 10:35 18,2 C 72 % 1019,4 hPa 0,0 l/m 4,9 km/h (1 Bft) NW 320 13,1 C 9,4 km/h (2 Bft) 100 %
18.06.2018 10:36 18,2 C 72 % 1019,4 hPa 0,0 l/m 3,3 km/h (1 Bft) SW 227 13,1 C 9,4 km/h (2 Bft) 100 %
18.06.2018 10:37 18,2 C 72 % 1019,4 hPa 0,0 l/m 3,0 km/h (1 Bft) SW 226 13,1 C 6,3 km/h (2 Bft) 100 %
18.06.2018 10:38 18,2 C 71 % 1019,4 hPa 0,0 l/m 6,9 km/h (2 Bft) W-NW 303 12,9 C 12,6 km/h (3 Bft) 100 %
18.06.2018 10:39 18,2 C 72 % 1019,3 hPa 0,0 l/m 4,2 km/h (1 Bft) SW 219 13,1 C 9,4 km/h (2 Bft) 96 %
18.06.2018 10:40 18,3 C 72 % 1019,3 hPa 0,0 l/m 0,7 km/h (0 Bft) W 274 13,2 C 3,1 km/h (1 Bft) 96 %
18.06.2018 10:41 18,3 C 72 % 1019,3 hPa 0,0 l/m 5,2 km/h (1 Bft) W-SW 255 13,2 C 9,4 km/h (2 Bft) 100 %
18.06.2018 10:42 18,4 C 73 % 1019,3 hPa 0,0 l/m 0,7 km/h (0 Bft) N-NW 329 13,5 C 3,1 km/h (1 Bft) 100 %
18.06.2018 10:43 18,4 C 74 % 1019,4 hPa 0,0 l/m 0,6 km/h (0 Bft) NO 34 13,7 C 3,1 km/h (1 Bft) 100 %
18.06.2018 10:44 18,6 C 72 % 1019,3 hPa 0,0 l/m 0,3 km/h (0 Bft) N-NO 12 13,4 C 3,1 km/h (1 Bft) 100 %
18.06.2018 10:45 18,6 C 71 % 1019,3 hPa 0,0 l/m 1,6 km/h (1 Bft) W 261 13,2 C 6,3 km/h (2 Bft) 100 %
18.06.2018 10:46 18,7 C 71 % 1019,3 hPa 0,0 l/m 0,5 km/h (0 Bft) W-SW 250 13,3 C 3,1 km/h (1 Bft) 100 %
18.06.2018 10:47 18,8 C 71 % 1019,3 hPa 0,0 l/m 2,0 km/h (1 Bft) SO 136 13,4 C 6,3 km/h (2 Bft) 100 %
18.06.2018 10:48 18,8 C 70 % 1019,4 hPa 0,0 l/m 2,5 km/h (1 Bft) W-SW 257 13,2 C 9,4 km/h (2 Bft) 100 %
18.06.2018 10:49 18,9 C 70 % 1019,3 hPa 0,0 l/m 0,3 km/h (0 Bft) NO 39 13,3 C 3,1 km/h (1 Bft) 100 %
18.06.2018 10:50 18,9 C 69 % 1019,3 hPa 0,0 l/m 6,3 km/h (2 Bft) S-SW 213 13,1 C 18,8 km/h (3 Bft) 100 %
18.06.2018 10:51 18,9 C 70 % 1019,4 hPa 0,0 l/m 0,0 km/h (0 Bft) SW 214 13,3 C 0,0 km/h (0 Bft) 100 %
18.06.2018 10:52 18,9 C 70 % 1019,3 hPa 0,0 l/m 2,5 km/h (1 Bft) W 276 13,3 C 9,4 km/h (2 Bft) 100 %
18.06.2018 10:53 18,9 C 70 % 1019,4 hPa 0,0 l/m 6,1 km/h (2 Bft) SW 221 13,3 C 22,0 km/h (4 Bft) 96 %
18.06.2018 10:54 18,9 C 70 % 1019,3 hPa 0,0 l/m 4,7 km/h (1 Bft) W-SW 248 13,3 C 12,6 km/h (3 Bft) 96 %
18.06.2018 10:55 18,8 C 69 % 1019,3 hPa 0,0 l/m 5,9 km/h (2 Bft) S-SW 210 13,0 C 9,4 km/h (2 Bft) 100 %
18.06.2018 10:56 18,8 C 69 % 1019,4 hPa 0,0 l/m 0,9 km/h (0 Bft) W-NW 298 13,0 C 3,1 km/h (1 Bft) 100 %
18.06.2018 10:57 18,7 C 70 % 1019,4 hPa 0,0 l/m 5,5 km/h (1 Bft) W 273 13,1 C 9,4 km/h (2 Bft) 96 %
18.06.2018 10:58 18,7 C 70 % 1019,4 hPa 0,0 l/m 2,7 km/h (1 Bft) SW 233 13,1 C 9,4 km/h (2 Bft) 96 %
18.06.2018 10:59 18,6 C 70 % 1019,4 hPa 0,0 l/m 5,8 km/h (2 Bft) W-SW 248 13,0 C 12,6 km/h (3 Bft) 100 %
18.06.2018 11:00 18,6 C 72 % 1019,4 hPa 0,0 l/m 1,2 km/h (1 Bft) W-NW 298 13,4 C 3,1 km/h (1 Bft) 96 %
18.06.2018 11:01 18,6 C 72 % 1019,4 hPa 0,0 l/m 0,9 km/h (0 Bft) NO 54 13,4 C 3,1 km/h (1 Bft) 100 %
18.06.2018 11:02 18,6 C 71 % 1019,5 hPa 0,0 l/m 1,8 km/h (1 Bft) W-SW 250 13,2 C 6,3 km/h (2 Bft) 96 %
18.06.2018 11:03 18,6 C 71 % 1019,6 hPa 0,0 l/m 2,6 km/h (1 Bft) S-SW 211 13,2 C 6,3 km/h (2 Bft) 100 %
18.06.2018 11:04 18,5 C 71 % 1019,5 hPa 0,0 l/m 1,1 km/h (1 Bft) W-NW 283 13,1 C 3,1 km/h (1 Bft) 100 %
18.06.2018 11:05 18,5 C 71 % 1019,5 hPa 0,0 l/m 3,0 km/h (1 Bft) W-SW 247 13,1 C 6,3 km/h (2 Bft) 100 %
18.06.2018 11:06 18,5 C 72 % 1019,5 hPa 0,0 l/m 0,6 km/h (0 Bft) W-SW 248 13,4 C 6,3 km/h (2 Bft) 100 %
18.06.2018 11:07 18,5 C 71 % 1019,5 hPa 0,0 l/m 0,0 km/h (0 Bft) W 281 13,1 C 0,0 km/h (0 Bft) 100 %
18.06.2018 11:08 18,5 C 72 % 1019,6 hPa 0,0 l/m 0,6 km/h (0 Bft) SW 217 13,4 C 3,1 km/h (1 Bft) 100 %
18.06.2018 11:09 18,5 C 72 % 1019,6 hPa 0,0 l/m 0,0 km/h (0 Bft) SW 229 13,4 C 0,0 km/h (0 Bft) 100 %
18.06.2018 11:10 18,6 C 73 % 1019,6 hPa 0,0 l/m 3,6 km/h (1 Bft) NW 314 13,7 C 9,4 km/h (2 Bft) 100 %
18.06.2018 11:11 18,5 C 71 % 1019,6 hPa 0,0 l/m 3,6 km/h (1 Bft) NW 306 13,1 C 9,4 km/h (2 Bft) 100 %
18.06.2018 11:12 18,4 C 70 % 1019,5 hPa 0,0 l/m 0,0 km/h (0 Bft) SW 226 12,8 C 0,0 km/h (0 Bft) 100 %
18.06.2018 11:13 18,4 C 71 % 1019,5 hPa 0,0 l/m 0,2 km/h (0 Bft) SW 226 13,0 C 3,1 km/h (1 Bft) 100 %
18.06.2018 11:14 18,5 C 71 % 1019,5 hPa 0,0 l/m 0,8 km/h (0 Bft) NW 315 13,1 C 3,1 km/h (1 Bft) 100 %
18.06.2018 11:15 18,5 C 72 % 1019,4 hPa 0,0 l/m 1,0 km/h (0 Bft) W-SW 245 13,4 C 3,1 km/h (1 Bft) 100 %
18.06.2018 11:16 18,6 C 72 % 1019,5 hPa 0,0 l/m 0,1 km/h (0 Bft) S-SW 210 13,4 C 3,1 km/h (1 Bft) 100 %
18.06.2018 11:17 18,6 C 73 % 1019,5 hPa 0,0 l/m 0,0 km/h (0 Bft) S-SW 210 13,7 C 0,0 km/h (0 Bft) 100 %
18.06.2018 11:18 18,7 C 72 % 1019,4 hPa 0,0 l/m 1,0 km/h (0 Bft) SW 228 13,5 C 3,1 km/h (1 Bft) 100 %
18.06.2018 11:19 18,7 C 70 % 1019,4 hPa 0,0 l/m 1,4 km/h (1 Bft) SW 221 13,1 C 3,1 km/h (1 Bft) 100 %
18.06.2018 11:20 18,8 C 71 % 1019,4 hPa 0,0 l/m 0,1 km/h (0 Bft) SW 228 13,4 C 3,1 km/h (1 Bft) 100 %
18.06.2018 11:21 18,8 C 72 % 1019,4 hPa 0,0 l/m 0,0 km/h (0 Bft) SW 228 13,6 C 0,0 km/h (0 Bft) 100 %
18.06.2018 11:22 18,9 C 72 % 1019,4 hPa 0,0 l/m 0,0 km/h (0 Bft) SW 228 13,7 C 0,0 km/h (0 Bft) 100 %
18.06.2018 11:23 19,0 C 72 % 1019,3 hPa 0,0 l/m 0,2 km/h (0 Bft) SW 228 13,8 C 3,1 km/h (1 Bft) 100 %
18.06.2018 11:24 19,1 C 72 % 1019,3 hPa 0,0 l/m 0,0 km/h (0 Bft) SW 228 13,9 C 0,0 km/h (0 Bft) 100 %
18.06.2018 11:25 19,2 C 72 % 1019,3 hPa 0,0 l/m 0,1 km/h (0 Bft) SW 236 14,0 C 3,1 km/h (1 Bft) 100 %
18.06.2018 11:26 19,3 C 72 % 1019,3 hPa 0,0 l/m 0,0 km/h (0 Bft) SW 236 14,1 C 0,0 km/h (0 Bft) 100 %
18.06.2018 11:27 19,4 C 73 % 1019,3 hPa 0,0 l/m 0,0 km/h (0 Bft) SW 231 14,4 C 0,0 km/h (0 Bft) 100 %
18.06.2018 11:28 19,6 C 72 % 1019,3 hPa 0,0 l/m 1,1 km/h (1 Bft) W-SW 239 14,4 C 6,3 km/h (2 Bft) 100 %
18.06.2018 11:29 19,7 C 71 % 1019,3 hPa 0,0 l/m 0,9 km/h (0 Bft) W 260 14,3 C 6,3 km/h (2 Bft) 100 %
18.06.2018 11:30 19,7 C 69 % 1019,3 hPa 0,0 l/m 1,6 km/h (1 Bft) S 186 13,8 C 6,3 km/h (2 Bft) 100 %
18.06.2018 11:31 19,8 C 70 % 1019,3 hPa 0,0 l/m 0,0 km/h (0 Bft) S-SW 193 14,2 C 0,0 km/h (0 Bft) 100 %
18.06.2018 11:32 19,9 C 70 % 1019,3 hPa 0,0 l/m 0,0 km/h (0 Bft) S-SW 193 14,3 C 0,0 km/h (0 Bft) 100 %
18.06.2018 11:33 19,9 C 69 % 1019,3 hPa 0,0 l/m 4,0 km/h (1 Bft) SW 225 14,0 C 12,6 km/h (3 Bft) 100 %
18.06.2018 11:34 19,9 C 67 % 1019,3 hPa 0,0 l/m 1,7 km/h (1 Bft) SW 228 13,6 C 3,1 km/h (1 Bft) 100 %
18.06.2018 11:35 19,9 C 69 % 1019,3 hPa 0,0 l/m 1,3 km/h (1 Bft) N-NO 17 14,0 C 3,1 km/h (1 Bft) 100 %
18.06.2018 11:36 20,0 C 69 % 1019,2 hPa 0,0 l/m 0,5 km/h (0 Bft) N 2 14,1 C 3,1 km/h (1 Bft) 100 %
18.06.2018 11:37 20,1 C 68 % 1019,3 hPa 0,0 l/m 2,7 km/h (1 Bft) W-NW 293 14,0 C 12,6 km/h (3 Bft) 100 %
18.06.2018 11:38 20,1 C 69 % 1019,2 hPa 0,0 l/m 1,0 km/h (0 Bft) N-NO 27 14,2 C 3,1 km/h (1 Bft) 100 %
18.06.2018 11:39 20,2 C 70 % 1019,2 hPa 0,0 l/m 0,9 km/h (0 Bft) N-NO 21 14,5 C 3,1 km/h (1 Bft) 100 %
18.06.2018 11:40 20,2 C 69 % 1019,2 hPa 0,0 l/m 1,6 km/h (1 Bft) S-SW 200 14,3 C 6,3 km/h (2 Bft) 100 %
18.06.2018 11:41 20,3 C 67 % 1019,2 hPa 0,0 l/m 3,1 km/h (1 Bft) N-NW 333 14,0 C 9,4 km/h (2 Bft) 100 %
18.06.2018 11:42 20,3 C 67 % 1019,2 hPa 0,0 l/m 3,0 km/h (1 Bft) W-NW 295 14,0 C 12,6 km/h (3 Bft) 100 %
18.06.2018 11:43 20,3 C 67 % 1019,3 hPa 0,0 l/m 0,7 km/h (0 Bft) N 1 14,0 C 3,1 km/h (1 Bft) 93 %
18.06.2018 11:44 20,3 C 67 % 1019,2 hPa 0,0 l/m 0,0 km/h (0 Bft) N 352 14,0 C 0,0 km/h (0 Bft) 100 %
18.06.2018 11:45 20,3 C 67 % 1019,2 hPa 0,0 l/m 0,3 km/h (0 Bft) SW 226 14,0 C 3,1 km/h (1 Bft) 100 %
18.06.2018 11:46 20,3 C 67 % 1019,2 hPa 0,0 l/m 5,7 km/h (1 Bft) W-NW 293 14,0 C 12,6 km/h (3 Bft) 100 %
18.06.2018 11:47 20,3 C 66 % 1019,3 hPa 0,0 l/m 3,5 km/h (1 Bft) N-NO 30 13,7 C 15,7 km/h (3 Bft) 100 %
18.06.2018 11:48 20,2 C 65 % 1019,3 hPa 0,0 l/m 2,1 km/h (1 Bft) NW 311 13,4 C 9,4 km/h (2 Bft) 100 %
18.06.2018 11:49 20,2 C 66 % 1019,2 hPa 0,0 l/m 2,5 km/h (1 Bft) W 264 13,6 C 6,3 km/h (2 Bft) 96 %
18.06.2018 11:50 20,1 C 65 % 1019,2 hPa 0,0 l/m 1,8 km/h (1 Bft) W 269 13,3 C 3,1 km/h (1 Bft) 96 %
18.06.2018 11:51 20,0 C 66 % 1019,2 hPa 0,0 l/m 1,3 km/h (1 Bft) W 279 13,4 C 3,1 km/h (1 Bft) 100 %
18.06.2018 11:52 20,0 C 68 % 1019,2 hPa 0,0 l/m 0,0 km/h (0 Bft) N 355 13,9 C 0,0 km/h (0 Bft) 96 %
18.06.2018 11:53 20,1 C 68 % 1019,2 hPa 0,0 l/m 0,4 km/h (0 Bft) NO 39 14,0 C 3,1 km/h (1 Bft) 100 %
18.06.2018 11:54 20,0 C 66 % 1019,2 hPa 0,0 l/m 3,0 km/h (1 Bft) W 265 13,4 C 6,3 km/h (2 Bft) 96 %
18.06.2018 11:55 20,0 C 67 % 1019,2 hPa 0,0 l/m 2,5 km/h (1 Bft) S-SW 211 13,7 C 6,3 km/h (2 Bft) 100 %
18.06.2018 11:56 20,0 C 66 % 1019,2 hPa 0,0 l/m 0,5 km/h (0 Bft) S-SW 205 13,4 C 6,3 km/h (2 Bft) 96 %
18.06.2018 11:57 20,0 C 68 % 1019,2 hPa 0,0 l/m 0,7 km/h (0 Bft) W 274 13,9 C 3,1 km/h (1 Bft) 100 %
18.06.2018 11:58 20,0 C 68 % 1019,2 hPa 0,0 l/m 4,8 km/h (1 Bft) S 190 13,9 C 15,7 km/h (3 Bft) 100 %
18.06.2018 11:59 19,9 C 67 % 1019,2 hPa 0,0 l/m 2,7 km/h (1 Bft) W-SW 246 13,6 C 6,3 km/h (2 Bft) 100 %
18.06.2018 12:00 19,9 C 68 % 1019,3 hPa 0,0 l/m 0,0 km/h (0 Bft) W-SW 246 13,8 C 0,0 km/h (0 Bft) 100 %
18.06.2018 12:01 19,9 C 67 % 1019,2 hPa 0,0 l/m 6,1 km/h (2 Bft) S 184 13,6 C 9,4 km/h (2 Bft) 100 %
18.06.2018 12:02 19,9 C 66 % 1019,2 hPa 0,0 l/m 2,0 km/h (1 Bft) S-SW 198 13,4 C 6,3 km/h (2 Bft) 100 %
18.06.2018 12:03 19,9 C 68 % 1019,2 hPa 0,0 l/m 0,0 km/h (0 Bft) S-SW 198 13,8 C 0,0 km/h (0 Bft) 100 %
18.06.2018 12:04 19,9 C 67 % 1019,2 hPa 0,0 l/m 2,1 km/h (1 Bft) W-SW 245 13,6 C 12,6 km/h (3 Bft) 100 %
18.06.2018 12:05 19,9 C 67 % 1019,2 hPa 0,0 l/m 2,6 km/h (1 Bft) SW 232 13,6 C 9,4 km/h (2 Bft) 100 %
18.06.2018 12:06 19,9 C 67 % 1019,2 hPa 0,0 l/m 0,1 km/h (0 Bft) SW 232 13,6 C 3,1 km/h (1 Bft) 100 %
18.06.2018 12:07 20,0 C 67 % 1019,2 hPa 0,0 l/m 0,0 km/h (0 Bft) SW 232 13,7 C 0,0 km/h (0 Bft) 100 %
18.06.2018 12:08 20,0 C 68 % 1019,2 hPa 0,0 l/m 0,1 km/h (0 Bft) SW 234 13,9 C 3,1 km/h (1 Bft) 100 %
18.06.2018 12:09 20,1 C 68 % 1019,2 hPa 0,0 l/m 1,3 km/h (1 Bft) W 267 14,0 C 3,1 km/h (1 Bft) 100 %
18.06.2018 12:10 20,2 C 68 % 1019,2 hPa 0,0 l/m 0,5 km/h (0 Bft) SW 232 14,1 C 3,1 km/h (1 Bft) 100 %
18.06.2018 12:11 20,2 C 67 % 1019,2 hPa 0,0 l/m 1,6 km/h (1 Bft) W 261 13,9 C 3,1 km/h (1 Bft) 100 %
18.06.2018 12:12 20,3 C 68 % 1019,2 hPa 0,0 l/m 0,5 km/h (0 Bft) SW 235 14,2 C 3,1 km/h (1 Bft) 100 %
18.06.2018 12:13 20,3 C 66 % 1019,2 hPa 0,0 l/m 1,8 km/h (1 Bft) SW 227 13,7 C 3,1 km/h (1 Bft) 100 %
18.06.2018 12:14 20,3 C 65 % 1019,1 hPa 0,0 l/m 3,0 km/h (1 Bft) SW 217 13,5 C 9,4 km/h (2 Bft) 100 %
18.06.2018 12:15 20,3 C 66 % 1019,2 hPa 0,0 l/m 2,5 km/h (1 Bft) S-SW 199 13,7 C 6,3 km/h (2 Bft) 100 %
18.06.2018 12:16 20,3 C 66 % 1019,2 hPa 0,0 l/m 0,0 km/h (0 Bft) S-SW 199 13,7 C 0,0 km/h (0 Bft) 100 %
18.06.2018 12:17 20,3 C 67 % 1019,1 hPa 0,0 l/m 1,7 km/h (1 Bft) W-NW 300 14,0 C 6,3 km/h (2 Bft) 100 %
18.06.2018 12:18 20,3 C 66 % 1019,1 hPa 0,0 l/m 1,7 km/h (1 Bft) W 266 13,7 C 6,3 km/h (2 Bft) 100 %
18.06.2018 12:19 20,2 C 68 % 1019,1 hPa 0,0 l/m 0,0 km/h (0 Bft) W 266 14,1 C 0,0 km/h (0 Bft) 100 %
18.06.2018 12:20 20,2 C 69 % 1019,2 hPa 0,0 l/m 0,8 km/h (0 Bft) N-NW 335 14,3 C 3,1 km/h (1 Bft) 100 %
18.06.2018 12:21 20,2 C 66 % 1019,1 hPa 0,0 l/m 0,8 km/h (0 Bft) W 271 13,6 C 3,1 km/h (1 Bft) 100 %
18.06.2018 12:22 20,2 C 66 % 1019,1 hPa 0,0 l/m 0,3 km/h (0 Bft) W 271 13,6 C 3,1 km/h (1 Bft) 100 %
18.06.2018 12:23 20,1 C 66 % 1019,1 hPa 0,0 l/m 4,2 km/h (1 Bft) W-SW 244 13,5 C 9,4 km/h (2 Bft) 100 %
18.06.2018 12:24 20,1 C 66 % 1019,1 hPa 0,0 l/m 0,5 km/h (0 Bft) N 1 13,5 C 3,1 km/h (1 Bft) 100 %
18.06.2018 12:25 20,0 C 66 % 1019,2 hPa 0,0 l/m 1,7 km/h (1 Bft) N 10 13,4 C 3,1 km/h (1 Bft) 100 %
18.06.2018 12:26 20,0 C 67 % 1019,2 hPa 0,0 l/m 1,9 km/h (1 Bft) W-SW 242 13,7 C 9,4 km/h (2 Bft) 100 %
18.06.2018 12:27 19,9 C 67 % 1019,2 hPa 0,0 l/m 0,6 km/h (0 Bft) W-NW 292 13,6 C 3,1 km/h (1 Bft) 100 %
18.06.2018 12:28 19,9 C 67 % 1019,2 hPa 0,0 l/m 4,6 km/h (1 Bft) W 278 13,6 C 18,8 km/h (3 Bft) 100 %
18.06.2018 12:29 19,9 C 67 % 1019,2 hPa 0,0 l/m 3,1 km/h (1 Bft) W-SW 249 13,6 C 9,4 km/h (2 Bft) 100 %
18.06.2018 12:30 19,8 C 67 % 1019,2 hPa 0,0 l/m 1,3 km/h (1 Bft) W 281 13,5 C 6,3 km/h (2 Bft) 99 %
18.06.2018 12:31 19,8 C 67 % 1019,2 hPa 0,0 l/m 1,6 km/h (1 Bft) W-NW 285 13,5 C 6,3 km/h (2 Bft) 100 %
18.06.2018 12:32 19,8 C 68 % 1019,2 hPa 0,0 l/m 1,4 km/h (1 Bft) W-NW 293 13,7 C 6,3 km/h (2 Bft) 96 %
18.06.2018 12:33 19,9 C 68 % 1019,2 hPa 0,0 l/m 1,1 km/h (1 Bft) W-NW 292 13,8 C 6,3 km/h (2 Bft) 100 %
18.06.2018 12:34 20,0 C 70 % 1019,2 hPa 0,0 l/m 0,3 km/h (0 Bft) W-NW 284 14,4 C 3,1 km/h (1 Bft) 100 %
18.06.2018 12:35 20,1 C 69 % 1019,2 hPa 0,0 l/m 4,3 km/h (1 Bft) NW 310 14,2 C 12,6 km/h (3 Bft) 100 %
18.06.2018 12:36 20,1 C 68 % 1019,2 hPa 0,0 l/m 6,7 km/h (2 Bft) W-NW 297 14,0 C 15,7 km/h (3 Bft) 100 %
18.06.2018 12:37 20,1 C 67 % 1019,1 hPa 0,0 l/m 0,5 km/h (0 Bft) W 271 13,8 C 3,1 km/h (1 Bft) 96 %
18.06.2018 12:38 20,2 C 68 % 1019,2 hPa 0,0 l/m 0,3 km/h (0 Bft) W 260 14,1 C 3,1 km/h (1 Bft) 100 %
18.06.2018 12:39 20,1 C 66 % 1019,2 hPa 0,0 l/m 4,3 km/h (1 Bft) NW 310 13,5 C 9,4 km/h (2 Bft) 100 %
18.06.2018 12:40 20,1 C 67 % 1019,1 hPa 0,0 l/m 1,3 km/h (1 Bft) NW 305 13,8 C 6,3 km/h (2 Bft) 96 %
18.06.2018 12:41 20,2 C 67 % 1019,2 hPa 0,0 l/m 3,7 km/h (1 Bft) NW 309 13,9 C 9,4 km/h (2 Bft) 100 %
18.06.2018 12:42 20,2 C 68 % 1019,2 hPa 0,0 l/m 3,3 km/h (1 Bft) NW 304 14,1 C 6,3 km/h (2 Bft) 96 %
18.06.2018 12:43 20,3 C 66 % 1019,2 hPa 0,0 l/m 3,4 km/h (1 Bft) NW 319 13,7 C 6,3 km/h (2 Bft) 100 %
18.06.2018 12:44 20,4 C 68 % 1019,2 hPa 0,0 l/m 4,4 km/h (1 Bft) W 269 14,3 C 9,4 km/h (2 Bft) 93 %
18.06.2018 12:45 20,4 C 67 % 1019,2 hPa 0,0 l/m 3,1 km/h (1 Bft) SW 233 14,1 C 6,3 km/h (2 Bft) 100 %
18.06.2018 12:46 20,5 C 66 % 1019,3 hPa 0,0 l/m 8,3 km/h (2 Bft) W 263 13,9 C 18,8 km/h (3 Bft) 96 %
18.06.2018 12:47 20,4 C 64 % 1019,2 hPa 0,0 l/m 10,2 km/h (2 Bft) O-NO 76 13,4 C 25,1 km/h (4 Bft) 97 %
18.06.2018 12:48 20,4 C 66 % 1019,2 hPa 0,0 l/m 4,5 km/h (1 Bft) SW 233 13,8 C 9,4 km/h (2 Bft) 100 %
18.06.2018 12:49 20,4 C 66 % 1019,2 hPa 0,0 l/m 0,7 km/h (0 Bft) W 265 13,8 C 3,1 km/h (1 Bft) 97 %
18.06.2018 12:50 20,4 C 67 % 1019,3 hPa 0,0 l/m 1,4 km/h (1 Bft) W 259 14,1 C 3,1 km/h (1 Bft) 100 %
18.06.2018 12:51 20,4 C 67 % 1019,2 hPa 0,0 l/m 3,0 km/h (1 Bft) NO 53 14,1 C 12,6 km/h (3 Bft) 100 %
18.06.2018 12:52 20,4 C 67 % 1019,3 hPa 0,0 l/m 0,0 km/h (0 Bft) NO 53 14,1 C 0,0 km/h (0 Bft) 100 %
18.06.2018 12:53 20,4 C 66 % 1019,3 hPa 0,0 l/m 2,5 km/h (1 Bft) NW 311 13,8 C 12,6 km/h (3 Bft) 100 %
18.06.2018 12:54 20,4 C 66 % 1019,3 hPa 0,0 l/m 0,9 km/h (0 Bft) NW 316 13,8 C 3,1 km/h (1 Bft) 100 %
18.06.2018 12:55 20,3 C 65 % 1019,3 hPa 0,0 l/m 0,8 km/h (0 Bft) W-SW 239 13,5 C 3,1 km/h (1 Bft) 100 %
18.06.2018 12:56 20,3 C 66 % 1019,3 hPa 0,0 l/m 0,9 km/h (0 Bft) N-NW 342 13,7 C 3,1 km/h (1 Bft) 100 %
18.06.2018 12:57 20,2 C 67 % 1019,3 hPa 0,0 l/m 0,4 km/h (0 Bft) N-NO 15 13,9 C 3,1 km/h (1 Bft) 100 %
18.06.2018 12:58 20,2 C 67 % 1019,3 hPa 0,0 l/m 0,7 km/h (0 Bft) W-SW 253 13,9 C 3,1 km/h (1 Bft) 100 %
18.06.2018 12:59 20,2 C 66 % 1019,3 hPa 0,0 l/m 4,8 km/h (1 Bft) W-SW 253 13,6 C 9,4 km/h (2 Bft) 100 %
18.06.2018 13:00 20,1 C 66 % 1019,3 hPa 0,0 l/m 1,0 km/h (0 Bft) SW 222 13,5 C 6,3 km/h (2 Bft) 100 %
18.06.2018 13:01 20,0 C 67 % 1019,3 hPa 0,0 l/m 1,1 km/h (1 Bft) W-NW 286 13,7 C 3,1 km/h (1 Bft) 100 %
18.06.2018 13:02 19,9 C 66 % 1019,2 hPa 0,0 l/m 2,2 km/h (1 Bft) S-SW 202 13,4 C 6,3 km/h (2 Bft) 100 %
18.06.2018 13:03 19,9 C 67 % 1019,3 hPa 0,0 l/m 2,2 km/h (1 Bft) SW 230 13,6 C 9,4 km/h (2 Bft) 100 %
18.06.2018 13:04 19,9 C 67 % 1019,3 hPa 0,0 l/m 5,4 km/h (1 Bft) W 266 13,6 C 12,6 km/h (3 Bft) 100 %
18.06.2018 13:05 19,8 C 67 % 1019,3 hPa 0,0 l/m 5,2 km/h (1 Bft) W 260 13,5 C 9,4 km/h (2 Bft) 100 %
18.06.2018 13:06 19,8 C 66 % 1019,3 hPa 0,0 l/m 1,8 km/h (1 Bft) NW 309 13,3 C 6,3 km/h (2 Bft) 100 %
18.06.2018 13:07 19,8 C 67 % 1019,2 hPa 0,0 l/m 1,2 km/h (1 Bft) W-SW 257 13,5 C 6,3 km/h (2 Bft) 100 %
18.06.2018 13:08 19,7 C 67 % 1019,2 hPa 0,0 l/m 2,7 km/h (1 Bft) W-SW 238 13,4 C 9,4 km/h (2 Bft) 100 %
18.06.2018 13:09 19,7 C 66 % 1019,3 hPa 0,0 l/m 1,5 km/h (1 Bft) S-SW 195 13,2 C 3,1 km/h (1 Bft) 100 %
18.06.2018 13:10 19,7 C 67 % 1019,3 hPa 0,0 l/m 4,0 km/h (1 Bft) SW 236 13,4 C 6,3 km/h (2 Bft) 100 %
18.06.2018 13:11 19,7 C 68 % 1019,3 hPa 0,0 l/m 0,8 km/h (0 Bft) S-SW 199 13,6 C 6,3 km/h (2 Bft) 100 %
18.06.2018 13:12 19,7 C 68 % 1019,3 hPa 0,0 l/m 2,2 km/h (1 Bft) SW 219 13,6 C 6,3 km/h (2 Bft) 100 %
18.06.2018 13:13 19,7 C 67 % 1019,2 hPa 0,0 l/m 6,4 km/h (2 Bft) SW 226 13,4 C 12,6 km/h (3 Bft) 100 %
18.06.2018 13:14 19,6 C 67 % 1019,2 hPa 0,0 l/m 4,1 km/h (1 Bft) W 262 13,3 C 9,4 km/h (2 Bft) 100 %
18.06.2018 13:15 19,6 C 67 % 1019,2 hPa 0,0 l/m 4,1 km/h (1 Bft) W-SW 242 13,3 C 9,4 km/h (2 Bft) 100 %
18.06.2018 13:16 19,6 C 68 % 1019,3 hPa 0,0 l/m 4,8 km/h (1 Bft) W-SW 250 13,5 C 9,4 km/h (2 Bft) 100 %
18.06.2018 13:17 19,6 C 68 % 1019,2 hPa 0,0 l/m 2,1 km/h (1 Bft) NW 323 13,5 C 6,3 km/h (2 Bft) 100 %
18.06.2018 13:18 19,6 C 68 % 1019,2 hPa 0,0 l/m 1,3 km/h (1 Bft) NW 305 13,5 C 3,1 km/h (1 Bft) 100 %
18.06.2018 13:19 19,6 C 68 % 1019,2 hPa 0,0 l/m 0,0 km/h (0 Bft) NW 305 13,5 C 0,0 km/h (0 Bft) 100 %
18.06.2018 13:20 19,6 C 69 % 1019,2 hPa 0,0 l/m 2,4 km/h (1 Bft) W-SW 245 13,8 C 6,3 km/h (2 Bft) 100 %
18.06.2018 13:21 19,6 C 67 % 1019,2 hPa 0,0 l/m 6,7 km/h (2 Bft) W-SW 243 13,3 C 12,6 km/h (3 Bft) 100 %
18.06.2018 13:22 19,6 C 68 % 1019,3 hPa 0,0 l/m 7,3 km/h (2 Bft) W-NW 288 13,5 C 15,7 km/h (3 Bft) 100 %
18.06.2018 13:23 19,6 C 68 % 1019,2 hPa 0,0 l/m 1,9 km/h (1 Bft) S-SW 200 13,5 C 6,3 km/h (2 Bft) 100 %
18.06.2018 13:24 19,6 C 68 % 1019,3 hPa 0,0 l/m 2,5 km/h (1 Bft) NW 314 13,5 C 6,3 km/h (2 Bft) 100 %
18.06.2018 13:25 19,6 C 68 % 1019,2 hPa 0,0 l/m 0,1 km/h (0 Bft) S-SW 206 13,5 C 3,1 km/h (1 Bft) 100 %
18.06.2018 13:26 19,6 C 68 % 1019,2 hPa 0,0 l/m 1,7 km/h (1 Bft) SW 232 13,5 C 3,1 km/h (1 Bft) 100 %
18.06.2018 13:27 19,6 C 68 % 1019,2 hPa 0,0 l/m 4,8 km/h (1 Bft) S-SW 193 13,5 C 22,0 km/h (4 Bft) 100 %
18.06.2018 13:28 19,6 C 68 % 1019,3 hPa 0,0 l/m 5,0 km/h (1 Bft) W 263 13,5 C 9,4 km/h (2 Bft) 100 %
18.06.2018 13:29 19,6 C 68 % 1019,3 hPa 0,0 l/m 1,0 km/h (0 Bft) SW 224 13,5 C 3,1 km/h (1 Bft) 100 %
18.06.2018 13:30 19,6 C 67 % 1019,2 hPa 0,0 l/m 6,0 km/h (2 Bft) W-SW 244 13,3 C 15,7 km/h (3 Bft) 100 %
18.06.2018 13:31 19,6 C 68 % 1019,3 hPa 0,0 l/m 2,6 km/h (1 Bft) SW 220 13,5 C 6,3 km/h (2 Bft) 100 %
18.06.2018 13:32 19,6 C 68 % 1019,3 hPa 0,0 l/m 0,1 km/h (0 Bft) SW 220 13,5 C 3,1 km/h (1 Bft) 100 %
18.06.2018 13:33 19,6 C 68 % 1019,2 hPa 0,0 l/m 1,8 km/h (1 Bft) SW 218 13,5 C 3,1 km/h (1 Bft) 100 %
18.06.2018 13:34 19,6 C 68 % 1019,2 hPa 0,0 l/m 2,1 km/h (1 Bft) W-SW 255 13,5 C 6,3 km/h (2 Bft) 100 %
18.06.2018 13:35 19,6 C 69 % 1019,2 hPa 0,0 l/m 5,6 km/h (1 Bft) SW 214 13,8 C 9,4 km/h (2 Bft) 100 %
18.06.2018 13:36 19,6 C 67 % 1019,2 hPa 0,0 l/m 10,1 km/h (2 Bft) W-SW 250 13,3 C 18,8 km/h (3 Bft) 96 %
18.06.2018 13:37 19,6 C 67 % 1019,2 hPa 0,0 l/m 2,2 km/h (1 Bft) NW 306 13,3 C 9,4 km/h (2 Bft) 100 %
18.06.2018 13:38 19,7 C 68 % 1019,2 hPa 0,0 l/m 2,2 km/h (1 Bft) W-NW 294 13,6 C 6,3 km/h (2 Bft) 96 %
18.06.2018 13:39 19,7 C 69 % 1019,2 hPa 0,0 l/m 2,7 km/h (1 Bft) W-SW 254 13,8 C 12,6 km/h (3 Bft) 96 %
18.06.2018 13:40 19,7 C 68 % 1019,1 hPa 0,0 l/m 1,3 km/h (1 Bft) N-NW 333 13,6 C 6,3 km/h (2 Bft) 100 %
18.06.2018 13:41 19,7 C 68 % 1019,2 hPa 0,0 l/m 0,1 km/h (0 Bft) N-NW 328 13,6 C 3,1 km/h (1 Bft) 96 %
18.06.2018 13:42 19,7 C 68 % 1019,2 hPa 0,0 l/m 3,8 km/h (1 Bft) SW 217 13,6 C 9,4 km/h (2 Bft) 100 %
18.06.2018 13:43 19,7 C 67 % 1019,2 hPa 0,0 l/m 1,8 km/h (1 Bft) SW 233 13,4 C 9,4 km/h (2 Bft) 96 %
18.06.2018 13:44 19,7 C 67 % 1019,3 hPa 0,0 l/m 1,8 km/h (1 Bft) W-SW 251 13,4 C 6,3 km/h (2 Bft) 100 %
18.06.2018 13:45 19,7 C 67 % 1019,2 hPa 0,0 l/m 1,0 km/h (0 Bft) W-SW 257 13,4 C 3,1 km/h (1 Bft) 100 %
18.06.2018 13:46 19,7 C 67 % 1019,3 hPa 0,0 l/m 2,7 km/h (1 Bft) N-NW 332 13,4 C 9,4 km/h (2 Bft) 96 %
18.06.2018 13:47 19,7 C 68 % 1019,2 hPa 0,0 l/m 0,9 km/h (0 Bft) S-SW 205 13,6 C 3,1 km/h (1 Bft) 100 %
18.06.2018 13:48 19,7 C 67 % 1019,3 hPa 0,0 l/m 4,0 km/h (1 Bft) SW 214 13,4 C 15,7 km/h (3 Bft) 100 %
18.06.2018 13:49 19,7 C 67 % 1019,2 hPa 0,0 l/m 4,4 km/h (1 Bft) W 262 13,4 C 9,4 km/h (2 Bft) 100 %
18.06.2018 13:50 19,7 C 69 % 1019,2 hPa 0,0 l/m 0,1 km/h (0 Bft) SW 222 13,8 C 3,1 km/h (1 Bft) 100 %
18.06.2018 13:51 19,7 C 69 % 1019,2 hPa 0,0 l/m 0,6 km/h (0 Bft) NW 314 13,8 C 3,1 km/h (1 Bft) 100 %
18.06.2018 13:52 19,7 C 68 % 1019,2 hPa 0,0 l/m 0,8 km/h (0 Bft) SW 224 13,6 C 3,1 km/h (1 Bft) 100 %
18.06.2018 13:53 19,8 C 68 % 1019,2 hPa 0,0 l/m 0,1 km/h (0 Bft) SW 225 13,7 C 3,1 km/h (1 Bft) 100 %
18.06.2018 13:54 19,8 C 69 % 1019,2 hPa 0,0 l/m 0,0 km/h (0 Bft) SW 225 13,9 C 0,0 km/h (0 Bft) 100 %
18.06.2018 13:55 19,8 C 70 % 1019,2 hPa 0,0 l/m 0,1 km/h (0 Bft) SW 226 14,2 C 3,1 km/h (1 Bft) 100 %
18.06.2018 13:56 19,9 C 69 % 1019,2 hPa 0,0 l/m 1,3 km/h (1 Bft) N-NW 328 14,0 C 3,1 km/h (1 Bft) 100 %
18.06.2018 13:57 19,9 C 69 % 1019,2 hPa 0,0 l/m 0,1 km/h (0 Bft) W-SW 245 14,0 C 3,1 km/h (1 Bft) 100 %
18.06.2018 13:58 19,9 C 68 % 1019,2 hPa 0,0 l/m 2,1 km/h (1 Bft) W-SW 239 13,8 C 6,3 km/h (2 Bft) 100 %
18.06.2018 13:59 20,0 C 67 % 1019,2 hPa 0,0 l/m 4,2 km/h (1 Bft) S-SW 201 13,7 C 12,6 km/h (3 Bft) 100 %
18.06.2018 14:00 20,0 C 67 % 1019,2 hPa 0,0 l/m 2,2 km/h (1 Bft) SW 233 13,7 C 12,6 km/h (3 Bft) 100 %
18.06.2018 14:01 20,0 C 68 % 1019,2 hPa 0,0 l/m 0,0 km/h (0 Bft) SW 233 13,9 C 0,0 km/h (0 Bft) 100 %
18.06.2018 14:02 20,0 C 69 % 1019,2 hPa 0,0 l/m 0,0 km/h (0 Bft) W-SW 245 14,1 C 0,0 km/h (0 Bft) 100 %
18.06.2018 14:03 20,1 C 67 % 1019,2 hPa 0,0 l/m 1,0 km/h (0 Bft) W 275 13,8 C 3,1 km/h (1 Bft) 100 %
18.06.2018 14:04 20,0 C 67 % 1019,2 hPa 0,0 l/m 0,3 km/h (0 Bft) NO 39 13,7 C 3,1 km/h (1 Bft) 100 %
18.06.2018 14:05 20,1 C 68 % 1019,2 hPa 0,0 l/m 2,0 km/h (1 Bft) W-NW 284 14,0 C 6,3 km/h (2 Bft) 96 %
18.06.2018 14:06 20,1 C 67 % 1019,2 hPa 0,0 l/m 0,7 km/h (0 Bft) W-SW 252 13,8 C 3,1 km/h (1 Bft) 100 %
18.06.2018 14:07 20,1 C 67 % 1019,2 hPa 0,0 l/m 0,8 km/h (0 Bft) SW 231 13,8 C 3,1 km/h (1 Bft) 100 %
18.06.2018 14:08 20,0 C 66 % 1019,2 hPa 0,0 l/m 4,8 km/h (1 Bft) S 174 13,4 C 12,6 km/h (3 Bft) 100 %
18.06.2018 14:09 20,0 C 67 % 1019,2 hPa 0,0 l/m 1,4 km/h (1 Bft) W-NW 300 13,7 C 3,1 km/h (1 Bft) 100 %
18.06.2018 14:10 20,0 C 67 % 1019,2 hPa 0,0 l/m 0,7 km/h (0 Bft) SW 214 13,7 C 3,1 km/h (1 Bft) 100 %
18.06.2018 14:11 20,0 C 66 % 1019,2 hPa 0,0 l/m 2,7 km/h (1 Bft) W-SW 245 13,4 C 6,3 km/h (2 Bft) 100 %
18.06.2018 14:12 20,0 C 67 % 1019,3 hPa 0,0 l/m 0,9 km/h (0 Bft) W 262 13,7 C 3,1 km/h (1 Bft) 100 %
18.06.2018 14:13 19,9 C 68 % 1019,2 hPa 0,0 l/m 2,7 km/h (1 Bft) W-NW 295 13,8 C 6,3 km/h (2 Bft) 100 %
18.06.2018 14:14 19,9 C 67 % 1019,2 hPa 0,0 l/m 1,6 km/h (1 Bft) W-NW 302 13,6 C 3,1 km/h (1 Bft) 100 %
18.06.2018 14:15 19,9 C 67 % 1019,2 hPa 0,0 l/m 2,0 km/h (1 Bft) W 259 13,6 C 6,3 km/h (2 Bft) 100 %
18.06.2018 14:17 19,9 C 66 % 1019,2 hPa 0,0 l/m 5,2 km/h (1 Bft) W 274 13,4 C 12,6 km/h (3 Bft) 100 %
18.06.2018 14:18 19,9 C 66 % 1019,2 hPa 0,0 l/m 4,2 km/h (1 Bft) W-NW 285 13,4 C 9,4 km/h (2 Bft) 100 %
18.06.2018 14:19 19,8 C 67 % 1019,2 hPa 0,0 l/m 0,9 km/h (0 Bft) W 263 13,5 C 3,1 km/h (1 Bft) 100 %
18.06.2018 14:20 19,8 C 67 % 1019,3 hPa 0,0 l/m 1,0 km/h (0 Bft) W-NW 292 13,5 C 3,1 km/h (1 Bft) 100 %
18.06.2018 14:21 19,8 C 67 % 1019,2 hPa 0,0 l/m 3,3 km/h (1 Bft) SW 229 13,5 C 18,8 km/h (3 Bft) 100 %
18.06.2018 14:22 19,8 C 66 % 1019,3 hPa 0,0 l/m 5,4 km/h (1 Bft) W 260 13,3 C 15,7 km/h (3 Bft) 100 %
18.06.2018 14:23 19,8 C 66 % 1019,3 hPa 0,0 l/m 2,0 km/h (1 Bft) W-SW 240 13,3 C 6,3 km/h (2 Bft) 96 %
18.06.2018 14:24 19,8 C 66 % 1019,3 hPa 0,0 l/m 7,7 km/h (2 Bft) W 271 13,3 C 15,7 km/h (3 Bft) 100 %
18.06.2018 14:25 19,8 C 66 % 1019,3 hPa 0,0 l/m 3,0 km/h (1 Bft) W-NW 294 13,3 C 6,3 km/h (2 Bft) 100 %
18.06.2018 14:26 19,8 C 67 % 1019,3 hPa 0,0 l/m 4,6 km/h (1 Bft) W-NW 293 13,5 C 6,3 km/h (2 Bft) 100 %
18.06.2018 14:27 19,8 C 66 % 1019,3 hPa 0,0 l/m 5,0 km/h (1 Bft) W 274 13,3 C 9,4 km/h (2 Bft) 100 %
18.06.2018 14:28 19,8 C 66 % 1019,3 hPa 0,0 l/m 5,0 km/h (1 Bft) W-NW 295 13,3 C 9,4 km/h (2 Bft) 96 %
18.06.2018 14:29 19,9 C 67 % 1019,3 hPa 0,0 l/m 2,0 km/h (1 Bft) W-NW 295 13,6 C 6,3 km/h (2 Bft) 100 %
18.06.2018 14:30 19,9 C 66 % 1019,3 hPa 0,0 l/m 7,1 km/h (2 Bft) W-NW 298 13,4 C 9,4 km/h (2 Bft) 96 %
18.06.2018 14:31 19,9 C 66 % 1019,3 hPa 0,0 l/m 3,4 km/h (1 Bft) W 274 13,4 C 9,4 km/h (2 Bft) 96 %
18.06.2018 14:32 19,9 C 68 % 1019,3 hPa 0,0 l/m 0,9 km/h (0 Bft) W 274 13,8 C 3,1 km/h (1 Bft) 100 %
18.06.2018 14:33 20,0 C 67 % 1019,3 hPa 0,0 l/m 0,4 km/h (0 Bft) W 264 13,7 C 3,1 km/h (1 Bft) 96 %
18.06.2018 14:34 20,1 C 67 % 1019,3 hPa 0,0 l/m 2,1 km/h (1 Bft) W-NW 293 13,8 C 3,1 km/h (1 Bft) 100 %
18.06.2018 14:35 20,1 C 67 % 1019,3 hPa 0,0 l/m 4,4 km/h (1 Bft) W-NW 293 13,8 C 9,4 km/h (2 Bft) 96 %
18.06.2018 14:36 20,2 C 68 % 1019,3 hPa 0,0 l/m 0,3 km/h (0 Bft) W-NW 287 14,1 C 3,1 km/h (1 Bft) 100 %
18.06.2018 14:37 20,2 C 67 % 1019,3 hPa 0,0 l/m 3,1 km/h (1 Bft) SW 227 13,9 C 9,4 km/h (2 Bft) 96 %
18.06.2018 14:38 20,3 C 66 % 1019,3 hPa 0,0 l/m 3,3 km/h (1 Bft) W 264 13,7 C 6,3 km/h (2 Bft) 100 %
18.06.2018 14:39 20,3 C 66 % 1019,3 hPa 0,0 l/m 2,0 km/h (1 Bft) SW 228 13,7 C 9,4 km/h (2 Bft) 100 %
18.06.2018 14:40 20,4 C 65 % 1019,3 hPa 0,0 l/m 1,8 km/h (1 Bft) W-SW 243 13,6 C 6,3 km/h (2 Bft) 100 %
18.06.2018 14:41 20,5 C 66 % 1019,3 hPa 0,0 l/m 1,8 km/h (1 Bft) W-SW 238 13,9 C 6,3 km/h (2 Bft) 96 %
18.06.2018 14:42 20,6 C 67 % 1019,2 hPa 0,0 l/m 0,8 km/h (0 Bft) W-NW 288 14,3 C 3,1 km/h (1 Bft) 100 %
18.06.2018 14:43 20,7 C 65 % 1019,3 hPa 0,0 l/m 0,7 km/h (0 Bft) W-NW 284 13,9 C 3,1 km/h (1 Bft) 100 %
18.06.2018 14:44 20,8 C 66 % 1019,2 hPa 0,0 l/m 0,4 km/h (0 Bft) NO 54 14,2 C 3,1 km/h (1 Bft) 100 %
18.06.2018 14:45 20,9 C 65 % 1019,2 hPa 0,0 l/m 3,0 km/h (1 Bft) SW 222 14,1 C 6,3 km/h (2 Bft) 100 %
18.06.2018 14:46 20,9 C 64 % 1019,2 hPa 0,0 l/m 4,1 km/h (1 Bft) SW 221 13,8 C 6,3 km/h (2 Bft) 100 %
18.06.2018 14:47 20,9 C 62 % 1019,2 hPa 0,0 l/m 3,5 km/h (1 Bft) W 269 13,3 C 6,3 km/h (2 Bft) 100 %
18.06.2018 14:48 20,9 C 63 % 1019,2 hPa 0,0 l/m 0,7 km/h (0 Bft) W 268 13,6 C 3,1 km/h (1 Bft) 100 %
18.06.2018 14:49 20,9 C 64 % 1019,2 hPa 0,0 l/m 0,8 km/h (0 Bft) O-NO 75 13,8 C 3,1 km/h (1 Bft) 100 %
18.06.2018 14:50 20,9 C 65 % 1019,2 hPa 0,0 l/m 1,3 km/h (1 Bft) W-NW 289 14,1 C 6,3 km/h (2 Bft) 100 %
18.06.2018 14:51 20,9 C 64 % 1019,3 hPa 0,0 l/m 1,6 km/h (1 Bft) W-SW 248 13,8 C 6,3 km/h (2 Bft) 100 %
18.06.2018 14:52 20,8 C 63 % 1019,2 hPa 0,0 l/m 4,6 km/h (1 Bft) W-SW 258 13,5 C 9,4 km/h (2 Bft) 100 %
18.06.2018 14:53 20,8 C 63 % 1019,2 hPa 0,0 l/m 2,5 km/h (1 Bft) W-SW 247 13,5 C 6,3 km/h (2 Bft) 100 %
18.06.2018 14:54 20,8 C 65 % 1019,2 hPa 0,0 l/m 0,0 km/h (0 Bft) W-SW 252 14,0 C 0,0 km/h (0 Bft) 100 %
18.06.2018 14:55 20,7 C 64 % 1019,2 hPa 0,0 l/m 2,0 km/h (1 Bft) W-NW 296 13,6 C 6,3 km/h (2 Bft) 100 %
18.06.2018 14:56 20,7 C 64 % 1019,2 hPa 0,0 l/m 1,6 km/h (1 Bft) W-SW 250 13,6 C 6,3 km/h (2 Bft) 100 %
18.06.2018 14:57 20,7 C 65 % 1019,2 hPa 0,0 l/m 2,0 km/h (1 Bft) W-SW 244 13,9 C 6,3 km/h (2 Bft) 100 %
18.06.2018 14:58 20,6 C 64 % 1019,2 hPa 0,0 l/m 3,4 km/h (1 Bft) W 269 13,5 C 6,3 km/h (2 Bft) 100 %
18.06.2018 14:59 20,6 C 65 % 1019,2 hPa 0,0 l/m 6,3 km/h (2 Bft) SW 236 13,8 C 22,0 km/h (4 Bft) 96 %
18.06.2018 15:00 20,6 C 65 % 1019,3 hPa 0,0 l/m 2,6 km/h (1 Bft) W 281 13,8 C 3,1 km/h (1 Bft) 100 %
18.06.2018 15:01 20,6 C 64 % 1019,3 hPa 0,0 l/m 6,3 km/h (2 Bft) W-NW 283 13,5 C 12,6 km/h (3 Bft) 100 %
18.06.2018 15:02 20,5 C 64 % 1019,3 hPa 0,0 l/m 9,4 km/h (2 Bft) W 264 13,5 C 15,7 km/h (3 Bft) 100 %
18.06.2018 15:03 20,5 C 64 % 1019,3 hPa 0,0 l/m 10,6 km/h (2 Bft) W-NW 294 13,5 C 18,8 km/h (3 Bft) 100 %
18.06.2018 15:04 20,4 C 64 % 1019,3 hPa 0,0 l/m 3,3 km/h (1 Bft) W-SW 251 13,4 C 6,3 km/h (2 Bft) 100 %
18.06.2018 15:05 20,4 C 63 % 1019,3 hPa 0,0 l/m 6,7 km/h (2 Bft) W-NW 302 13,1 C 12,6 km/h (3 Bft) 100 %
18.06.2018 15:06 20,5 C 64 % 1019,3 hPa 0,0 l/m 4,0 km/h (1 Bft) SW 233 13,5 C 12,6 km/h (3 Bft) 100 %
18.06.2018 15:07 20,5 C 63 % 1019,2 hPa 0,0 l/m 9,1 km/h (2 Bft) SW 216 13,2 C 18,8 km/h (3 Bft) 100 %
18.06.2018 15:08 20,6 C 63 % 1019,2 hPa 0,0 l/m 7,8 km/h (2 Bft) NW 304 13,3 C 12,6 km/h (3 Bft) 100 %
18.06.2018 15:09 20,6 C 65 % 1019,2 hPa 0,0 l/m 4,2 km/h (1 Bft) W-SW 248 13,8 C 9,4 km/h (2 Bft) 100 %
18.06.2018 15:10 20,7 C 63 % 1019,2 hPa 0,0 l/m 5,3 km/h (1 Bft) W 262 13,4 C 9,4 km/h (2 Bft) 100 %
18.06.2018 15:11 20,8 C 65 % 1019,2 hPa 0,0 l/m 4,9 km/h (1 Bft) SW 229 14,0 C 9,4 km/h (2 Bft) 100 %
18.06.2018 15:12 20,9 C 64 % 1019,1 hPa 0,0 l/m 5,1 km/h (1 Bft) W-NW 294 13,8 C 9,4 km/h (2 Bft) 100 %
18.06.2018 15:13 20,9 C 63 % 1019,2 hPa 0,0 l/m 4,6 km/h (1 Bft) NW 323 13,6 C 9,4 km/h (2 Bft) 100 %
18.06.2018 15:14 21,0 C 64 % 1019,2 hPa 0,0 l/m 6,4 km/h (2 Bft) NW 304 13,9 C 15,7 km/h (3 Bft) 100 %
18.06.2018 15:15 21,0 C 63 % 1019,2 hPa 0,0 l/m 4,6 km/h (1 Bft) SW 214 13,7 C 12,6 km/h (3 Bft) 100 %
18.06.2018 15:17 21,1 C 63 % 1019,2 hPa 0,0 l/m 3,1 km/h (1 Bft) W-NW 299 13,8 C 12,6 km/h (3 Bft) 100 %
18.06.2018 15:18 21,1 C 63 % 1019,2 hPa 0,0 l/m 5,6 km/h (1 Bft) S-SW 207 13,8 C 12,6 km/h (3 Bft) 100 %
18.06.2018 15:19 21,1 C 63 % 1019,2 hPa 0,0 l/m 2,9 km/h (1 Bft) NW 307 13,8 C 6,3 km/h (2 Bft) 100 %
18.06.2018 15:20 21,1 C 63 % 1019,2 hPa 0,0 l/m 1,1 km/h (1 Bft) SW 216 13,8 C 3,1 km/h (1 Bft) 96 %
18.06.2018 15:21 21,1 C 63 % 1019,2 hPa 0,0 l/m 1,6 km/h (1 Bft) SW 226 13,8 C 6,3 km/h (2 Bft) 100 %
18.06.2018 15:22 21,2 C 63 % 1019,2 hPa 0,0 l/m 1,2 km/h (1 Bft) W-NW 288 13,9 C 6,3 km/h (2 Bft) 96 %
18.06.2018 15:23 21,2 C 64 % 1019,2 hPa 0,0 l/m 4,3 km/h (1 Bft) SW 232 14,1 C 9,4 km/h (2 Bft) 100 %
18.06.2018 15:24 21,3 C 64 % 1019,2 hPa 0,0 l/m 2,0 km/h (1 Bft) S-SW 212 14,2 C 9,4 km/h (2 Bft) 96 %
18.06.2018 15:25 21,3 C 63 % 1019,2 hPa 0,0 l/m 2,9 km/h (1 Bft) W 260 14,0 C 9,4 km/h (2 Bft) 96 %
18.06.2018 15:26 21,4 C 63 % 1019,2 hPa 0,0 l/m 4,2 km/h (1 Bft) SW 228 14,1 C 9,4 km/h (2 Bft) 100 %
18.06.2018 15:27 21,4 C 63 % 1019,2 hPa 0,0 l/m 5,0 km/h (1 Bft) W-SW 253 14,1 C 6,3 km/h (2 Bft) 96 %
18.06.2018 15:28 21,5 C 63 % 1019,2 hPa 0,0 l/m 5,6 km/h (1 Bft) W-SW 238 14,2 C 15,7 km/h (3 Bft) 100 %
18.06.2018 15:29 21,5 C 64 % 1019,2 hPa 0,0 l/m 4,2 km/h (1 Bft) W 275 14,4 C 9,4 km/h (2 Bft) 96 %
18.06.2018 15:30 21,5 C 63 % 1019,2 hPa 0,0 l/m 11,4 km/h (2 Bft) SW 217 14,2 C 18,8 km/h (3 Bft) 100 %
18.06.2018 15:31 21,5 C 64 % 1019,2 hPa 0,0 l/m 6,9 km/h (2 Bft) W-NW 283 14,4 C 12,6 km/h (3 Bft) 100 %
18.06.2018 15:32 21,5 C 63 % 1019,1 hPa 0,0 l/m 11,5 km/h (2 Bft) W 278 14,2 C 18,8 km/h (3 Bft) 100 %
18.06.2018 15:33 21,5 C 62 % 1019,1 hPa 0,0 l/m 11,6 km/h (2 Bft) SW 231 13,9 C 22,0 km/h (4 Bft) 100 %
18.06.2018 15:34 21,4 C 61 % 1019,2 hPa 0,0 l/m 5,1 km/h (1 Bft) W-NW 298 13,6 C 9,4 km/h (2 Bft) 100 %
18.06.2018 15:35 21,4 C 61 % 1019,2 hPa 0,0 l/m 5,2 km/h (1 Bft) SW 229 13,6 C 9,4 km/h (2 Bft) 100 %
18.06.2018 15:36 21,4 C 61 % 1019,1 hPa 0,0 l/m 7,1 km/h (2 Bft) W-SW 257 13,6 C 9,4 km/h (2 Bft) 100 %
18.06.2018 15:37 21,4 C 62 % 1019,1 hPa 0,0 l/m 2,1 km/h (1 Bft) SW 219 13,8 C 9,4 km/h (2 Bft) 100 %
18.06.2018 15:38 21,4 C 62 % 1019,1 hPa 0,0 l/m 5,3 km/h (1 Bft) SW 221 13,8 C 12,6 km/h (3 Bft) 100 %
18.06.2018 15:39 21,5 C 62 % 1019,2 hPa 0,0 l/m 6,0 km/h (2 Bft) SW 218 13,9 C 22,0 km/h (4 Bft) 100 %
18.06.2018 15:40 21,5 C 61 % 1019,2 hPa 0,0 l/m 6,0 km/h (2 Bft) SW 224 13,7 C 12,6 km/h (3 Bft) 100 %
18.06.2018 15:41 21,5 C 61 % 1019,2 hPa 0,0 l/m 7,7 km/h (2 Bft) S-SW 204 13,7 C 15,7 km/h (3 Bft) 100 %
18.06.2018 15:42 21,5 C 62 % 1019,2 hPa 0,0 l/m 2,3 km/h (1 Bft) W-SW 251 13,9 C 6,3 km/h (2 Bft) 100 %
18.06.2018 15:43 21,6 C 62 % 1019,1 hPa 0,0 l/m 4,8 km/h (1 Bft) W 278 14,0 C 9,4 km/h (2 Bft) 100 %
18.06.2018 15:44 21,6 C 63 % 1019,2 hPa 0,0 l/m 1,9 km/h (1 Bft) W-NW 288 14,2 C 6,3 km/h (2 Bft) 100 %
18.06.2018 15:45 21,6 C 62 % 1019,2 hPa 0,0 l/m 3,4 km/h (1 Bft) NW 304 14,0 C 9,4 km/h (2 Bft) 100 %
18.06.2018 15:46 21,6 C 63 % 1019,1 hPa 0,0 l/m 0,1 km/h (0 Bft) W-SW 240 14,2 C 3,1 km/h (1 Bft) 100 %
18.06.2018 15:47 21,6 C 63 % 1019,1 hPa 0,0 l/m 2,4 km/h (1 Bft) SW 232 14,2 C 12,6 km/h (3 Bft) 100 %
18.06.2018 15:48 21,6 C 62 % 1019,1 hPa 0,0 l/m 7,2 km/h (2 Bft) NW 314 14,0 C 12,6 km/h (3 Bft) 100 %
18.06.2018 15:49 21,6 C 63 % 1019,1 hPa 0,0 l/m 6,9 km/h (2 Bft) NW 320 14,2 C 15,7 km/h (3 Bft) 100 %
18.06.2018 15:50 21,7 C 63 % 1019,2 hPa 0,0 l/m 4,2 km/h (1 Bft) W-SW 238 14,3 C 9,4 km/h (2 Bft) 100 %
18.06.2018 15:51 21,7 C 62 % 1019,3 hPa 0,0 l/m 9,0 km/h (2 Bft) W-NW 302 14,1 C 15,7 km/h (3 Bft) 96 %
18.06.2018 15:52 21,7 C 62 % 1019,1 hPa 0,0 l/m 4,2 km/h (1 Bft) W-NW 303 14,1 C 12,6 km/h (3 Bft) 100 %
18.06.2018 15:53 21,7 C 62 % 1019,1 hPa 0,0 l/m 5,4 km/h (1 Bft) SW 222 14,1 C 12,6 km/h (3 Bft) 100 %
18.06.2018 15:54 21,7 C 62 % 1019,1 hPa 0,0 l/m 8,9 km/h (2 Bft) W-SW 256 14,1 C 15,7 km/h (3 Bft) 100 %
18.06.2018 15:55 21,8 C 62 % 1019,1 hPa 0,0 l/m 11,2 km/h (2 Bft) W 281 14,2 C 18,8 km/h (3 Bft) 100 %
18.06.2018 15:56 21,8 C 62 % 1019,1 hPa 0,0 l/m 10,6 km/h (2 Bft) W 266 14,2 C 22,0 km/h (4 Bft) 100 %
18.06.2018 15:57 21,7 C 60 % 1019,1 hPa 0,0 l/m 6,7 km/h (2 Bft) W-NW 300 13,6 C 15,7 km/h (3 Bft) 100 %
18.06.2018 15:58 21,7 C 61 % 1019,1 hPa 0,0 l/m 9,4 km/h (2 Bft) W-SW 254 13,8 C 12,6 km/h (3 Bft) 100 %
18.06.2018 15:59 21,7 C 62 % 1019,1 hPa 0,0 l/m 6,4 km/h (2 Bft) SW 219 14,1 C 9,4 km/h (2 Bft) 100 %
18.06.2018 16:00 21,8 C 63 % 1019,1 hPa 0,0 l/m 1,3 km/h (1 Bft) W 266 14,4 C 6,3 km/h (2 Bft) 100 %
18.06.2018 16:01 21,9 C 63 % 1019,1 hPa 0,0 l/m 6,4 km/h (2 Bft) W-NW 294 14,5 C 15,7 km/h (3 Bft) 100 %
18.06.2018 16:02 21,9 C 62 % 1019,0 hPa 0,0 l/m 6,0 km/h (2 Bft) SW 226 14,3 C 12,6 km/h (3 Bft) 100 %
18.06.2018 16:03 21,9 C 61 % 1019,0 hPa 0,0 l/m 9,7 km/h (2 Bft) W-NW 288 14,0 C 22,0 km/h (4 Bft) 100 %
18.06.2018 16:04 21,9 C 62 % 1019,0 hPa 0,0 l/m 2,7 km/h (1 Bft) SW 221 14,3 C 6,3 km/h (2 Bft) 100 %
18.06.2018 16:05 21,9 C 61 % 1019,0 hPa 0,0 l/m 3,9 km/h (1 Bft) W 271 14,0 C 9,4 km/h (2 Bft) 100 %
18.06.2018 16:06 22,0 C 61 % 1019,0 hPa 0,0 l/m 4,9 km/h (1 Bft) SW 231 14,1 C 9,4 km/h (2 Bft) 100 %
18.06.2018 16:07 22,0 C 61 % 1019,0 hPa 0,0 l/m 2,9 km/h (1 Bft) W-SW 245 14,1 C 6,3 km/h (2 Bft) 100 %
18.06.2018 16:08 22,0 C 61 % 1019,0 hPa 0,0 l/m 4,1 km/h (1 Bft) W-NW 285 14,1 C 12,6 km/h (3 Bft) 100 %
18.06.2018 16:09 21,9 C 61 % 1019,0 hPa 0,0 l/m 4,7 km/h (1 Bft) W-NW 302 14,0 C 9,4 km/h (2 Bft) 100 %
18.06.2018 16:10 21,9 C 62 % 1019,0 hPa 0,0 l/m 0,0 km/h (0 Bft) W-SW 237 14,3 C 0,0 km/h (0 Bft) 97 %
18.06.2018 16:11 22,0 C 62 % 1019,0 hPa 0,0 l/m 4,3 km/h (1 Bft) SW 234 14,4 C 6,3 km/h (2 Bft) 100 %
18.06.2018 16:12 22,1 C 62 % 1019,0 hPa 0,0 l/m 5,5 km/h (1 Bft) SW 231 14,5 C 12,6 km/h (3 Bft) 100 %
18.06.2018 16:13 22,1 C 62 % 1019,0 hPa 0,0 l/m 5,8 km/h (2 Bft) SW 222 14,5 C 9,4 km/h (2 Bft) 100 %
18.06.2018 16:14 22,1 C 61 % 1019,0 hPa 0,0 l/m 8,8 km/h (2 Bft) W 274 14,2 C 15,7 km/h (3 Bft) 100 %
18.06.2018 16:15 22,1 C 61 % 1019,0 hPa 0,0 l/m 7,6 km/h (2 Bft) NW 306 14,2 C 15,7 km/h (3 Bft) 100 %
18.06.2018 16:16 22,0 C 61 % 1019,0 hPa 0,0 l/m 7,6 km/h (2 Bft) W 275 14,1 C 12,6 km/h (3 Bft) 97 %
18.06.2018 16:17 22,0 C 62 % 1019,0 hPa 0,0 l/m 6,3 km/h (2 Bft) S-SW 207 14,4 C 12,6 km/h (3 Bft) 96 %
18.06.2018 16:18 22,0 C 61 % 1019,0 hPa 0,0 l/m 4,2 km/h (1 Bft) SW 231 14,1 C 12,6 km/h (3 Bft) 100 %
18.06.2018 16:19 22,1 C 62 % 1019,0 hPa 0,0 l/m 1,9 km/h (1 Bft) W-NW 288 14,5 C 6,3 km/h (2 Bft) 96 %
18.06.2018 16:20 22,2 C 62 % 1019,0 hPa 0,0 l/m 4,6 km/h (1 Bft) S-SW 196 14,6 C 9,4 km/h (2 Bft) 100 %
18.06.2018 16:21 22,2 C 62 % 1019,0 hPa 0,0 l/m 9,8 km/h (2 Bft) W-NW 297 14,6 C 18,8 km/h (3 Bft) 93 %
18.06.2018 16:22 22,2 C 60 % 1019,0 hPa 0,0 l/m 12,1 km/h (2 Bft) SW 231 14,1 C 22,0 km/h (4 Bft) 100 %
18.06.2018 16:23 22,2 C 60 % 1019,0 hPa 0,0 l/m 11,5 km/h (2 Bft) W-NW 301 14,1 C 15,7 km/h (3 Bft) 96 %
18.06.2018 16:24 22,1 C 60 % 1019,0 hPa 0,0 l/m 13,6 km/h (3 Bft) W 278 14,0 C 22,0 km/h (4 Bft) 100 %
18.06.2018 16:25 22,0 C 61 % 1019,0 hPa 0,0 l/m 10,3 km/h (2 Bft) SW 215 14,1 C 22,0 km/h (4 Bft) 100 %
18.06.2018 16:26 21,9 C 61 % 1019,0 hPa 0,0 l/m 4,3 km/h (1 Bft) W-NW 296 14,0 C 9,4 km/h (2 Bft) 100 %
18.06.2018 16:27 21,9 C 62 % 1019,1 hPa 0,0 l/m 6,9 km/h (2 Bft) NW 306 14,3 C 9,4 km/h (2 Bft) 100 %
18.06.2018 16:28 21,9 C 61 % 1019,0 hPa 0,0 l/m 6,3 km/h (2 Bft) SW 226 14,0 C 12,6 km/h (3 Bft) 100 %
18.06.2018 16:29 21,9 C 60 % 1019,0 hPa 0,0 l/m 10,1 km/h (2 Bft) W-SW 253 13,8 C 18,8 km/h (3 Bft) 100 %
18.06.2018 16:30 21,9 C 61 % 1019,0 hPa 0,0 l/m 6,5 km/h (2 Bft) W 269 14,0 C 9,4 km/h (2 Bft) 100 %
18.06.2018 16:31 21,8 C 62 % 1019,0 hPa 0,0 l/m 6,7 km/h (2 Bft) NO 51 14,2 C 12,6 km/h (3 Bft) 100 %
18.06.2018 16:32 21,8 C 63 % 1019,0 hPa 0,0 l/m 4,4 km/h (1 Bft) W 274 14,4 C 9,4 km/h (2 Bft) 100 %
18.06.2018 16:33 21,8 C 62 % 1019,0 hPa 0,0 l/m 5,2 km/h (1 Bft) W-NW 302 14,2 C 9,4 km/h (2 Bft) 100 %
18.06.2018 16:34 21,8 C 62 % 1019,0 hPa 0,0 l/m 5,0 km/h (1 Bft) S-SW 212 14,2 C 18,8 km/h (3 Bft) 100 %
18.06.2018 16:35 21,8 C 61 % 1019,0 hPa 0,0 l/m 6,7 km/h (2 Bft) W 261 13,9 C 12,6 km/h (3 Bft) 100 %
18.06.2018 16:36 21,8 C 62 % 1019,1 hPa 0,0 l/m 5,1 km/h (1 Bft) W-NW 303 14,2 C 9,4 km/h (2 Bft) 100 %
18.06.2018 16:37 21,8 C 61 % 1019,1 hPa 0,0 l/m 3,0 km/h (1 Bft) SW 217 13,9 C 9,4 km/h (2 Bft) 100 %
18.06.2018 16:38 21,8 C 63 % 1019,1 hPa 0,0 l/m 4,3 km/h (1 Bft) W-NW 282 14,4 C 6,3 km/h (2 Bft) 100 %
18.06.2018 16:39 21,8 C 64 % 1019,1 hPa 0,0 l/m 2,6 km/h (1 Bft) W 272 14,7 C 6,3 km/h (2 Bft) 100 %
18.06.2018 16:40 21,8 C 62 % 1019,1 hPa 0,0 l/m 10,2 km/h (2 Bft) SW 229 14,2 C 15,7 km/h (3 Bft) 100 %
18.06.2018 16:41 21,8 C 61 % 1019,1 hPa 0,0 l/m 6,3 km/h (2 Bft) W-SW 252 13,9 C 12,6 km/h (3 Bft) 100 %
18.06.2018 16:42 21,8 C 62 % 1019,1 hPa 0,0 l/m 5,9 km/h (2 Bft) S-SW 204 14,2 C 15,7 km/h (3 Bft) 100 %
18.06.2018 16:43 21,8 C 62 % 1019,0 hPa 0,0 l/m 5,8 km/h (2 Bft) W-NW 302 14,2 C 9,4 km/h (2 Bft) 100 %
18.06.2018 16:44 21,8 C 62 % 1019,1 hPa 0,0 l/m 4,0 km/h (1 Bft) W-NW 283 14,2 C 6,3 km/h (2 Bft) 100 %
18.06.2018 16:45 21,8 C 62 % 1019,0 hPa 0,0 l/m 3,6 km/h (1 Bft) NW 308 14,2 C 6,3 km/h (2 Bft) 100 %
18.06.2018 16:46 21,8 C 62 % 1019,0 hPa 0,0 l/m 1,2 km/h (1 Bft) W-SW 257 14,2 C 3,1 km/h (1 Bft) 100 %
18.06.2018 16:47 21,9 C 63 % 1019,0 hPa 0,0 l/m 1,0 km/h (0 Bft) W 276 14,5 C 3,1 km/h (1 Bft) 100 %
18.06.2018 16:48 21,9 C 62 % 1019,0 hPa 0,0 l/m 8,8 km/h (2 Bft) SW 221 14,3 C 25,1 km/h (4 Bft) 100 %
18.06.2018 16:49 21,9 C 61 % 1019,0 hPa 0,0 l/m 5,0 km/h (1 Bft) W 271 14,0 C 12,6 km/h (3 Bft) 100 %
18.06.2018 16:50 21,9 C 62 % 1019,0 hPa 0,0 l/m 5,5 km/h (1 Bft) W-NW 289 14,3 C 9,4 km/h (2 Bft) 100 %
18.06.2018 16:51 21,9 C 61 % 1019,1 hPa 0,0 l/m 6,5 km/h (2 Bft) W-NW 289 14,0 C 12,6 km/h (3 Bft) 100 %
18.06.2018 16:52 21,9 C 62 % 1019,0 hPa 0,0 l/m 5,0 km/h (1 Bft) SW 217 14,3 C 9,4 km/h (2 Bft) 100 %
18.06.2018 16:53 21,9 C 62 % 1019,0 hPa 0,0 l/m 5,0 km/h (1 Bft) W 260 14,3 C 12,6 km/h (3 Bft) 100 %
18.06.2018 16:54 21,9 C 62 % 1019,0 hPa 0,0 l/m 1,6 km/h (1 Bft) W-NW 285 14,3 C 6,3 km/h (2 Bft) 100 %
18.06.2018 16:55 21,9 C 63 % 1019,0 hPa 0,0 l/m 1,1 km/h (1 Bft) SW 223 14,5 C 6,3 km/h (2 Bft) 100 %
18.06.2018 16:56 22,0 C 62 % 1019,0 hPa 0,0 l/m 5,2 km/h (1 Bft) W 280 14,4 C 9,4 km/h (2 Bft) 100 %
18.06.2018 16:57 22,0 C 62 % 1018,9 hPa 0,0 l/m 4,9 km/h (1 Bft) W 277 14,4 C 6,3 km/h (2 Bft) 100 %
18.06.2018 16:58 22,0 C 62 % 1019,0 hPa 0,0 l/m 1,6 km/h (1 Bft) W 262 14,4 C 6,3 km/h (2 Bft) 100 %
18.06.2018 16:59 22,0 C 62 % 1018,9 hPa 0,0 l/m 3,4 km/h (1 Bft) W 273 14,4 C 6,3 km/h (2 Bft) 100 %
18.06.2018 17:00 22,0 C 62 % 1018,9 hPa 0,0 l/m 4,3 km/h (1 Bft) W-SW 237 14,4 C 9,4 km/h (2 Bft) 100 %
18.06.2018 17:01 21,9 C 62 % 1019,0 hPa 0,0 l/m 4,4 km/h (1 Bft) W 259 14,3 C 6,3 km/h (2 Bft) 100 %
18.06.2018 17:02 21,9 C 61 % 1018,9 hPa 0,0 l/m 5,2 km/h (1 Bft) W-NW 296 14,0 C 9,4 km/h (2 Bft) 100 %
18.06.2018 17:03 21,9 C 61 % 1019,0 hPa 0,0 l/m 5,8 km/h (2 Bft) S-SW 200 14,0 C 12,6 km/h (3 Bft) 100 %
18.06.2018 17:04 21,8 C 62 % 1018,9 hPa 0,0 l/m 10,9 km/h (2 Bft) W 263 14,2 C 25,1 km/h (4 Bft) 96 %
18.06.2018 17:05 21,7 C 62 % 1018,9 hPa 0,0 l/m 5,2 km/h (1 Bft) SW 233 14,1 C 12,6 km/h (3 Bft) 83 %
18.06.2018 17:06 21,7 C 61 % 1019,0 hPa 0,0 l/m 7,8 km/h (2 Bft) W-SW 240 13,8 C 15,7 km/h (3 Bft) 83 %
18.06.2018 17:07 21,7 C 62 % 1018,9 hPa 0,0 l/m 0,9 km/h (0 Bft) NW 319 14,1 C 3,1 km/h (1 Bft) 96 %
18.06.2018 17:08 21,6 C 62 % 1018,9 hPa 0,0 l/m 0,0 km/h (0 Bft) W-SW 255 14,0 C 0,0 km/h (0 Bft) 75 %
18.06.2018 17:09 21,6 C 62 % 1018,9 hPa 0,0 l/m 2,7 km/h (1 Bft) S 187 14,0 C 9,4 km/h (2 Bft) 91 %
18.06.2018 17:10 21,5 C 62 % 1018,9 hPa 0,0 l/m 6,0 km/h (2 Bft) W 276 13,9 C 9,4 km/h (2 Bft) 96 %
18.06.2018 17:12 21,4 C 63 % 1018,8 hPa 0,0 l/m 1,2 km/h (1 Bft) W-SW 245 14,1 C 3,1 km/h (1 Bft) 96 %
18.06.2018 17:13 21,4 C 63 % 1018,8 hPa 0,0 l/m 1,4 km/h (1 Bft) NW 320 14,1 C 3,1 km/h (1 Bft) 100 %
18.06.2018 17:14 21,4 C 64 % 1018,9 hPa 0,0 l/m 0,0 km/h (0 Bft) NW 316 14,3 C 0,0 km/h (0 Bft) 97 %
18.06.2018 17:15 21,4 C 64 % 1018,8 hPa 0,0 l/m 0,9 km/h (0 Bft) W-SW 242 14,3 C 3,1 km/h (1 Bft) 100 %
18.06.2018 17:16 21,4 C 63 % 1018,9 hPa 0,0 l/m 3,7 km/h (1 Bft) W 262 14,1 C 9,4 km/h (2 Bft) 95 %
18.06.2018 17:17 21,4 C 64 % 1018,9 hPa 0,0 l/m 0,5 km/h (0 Bft) W 260 14,3 C 3,1 km/h (1 Bft) 100 %
18.06.2018 17:18 21,4 C 64 % 1018,9 hPa 0,0 l/m 0,3 km/h (0 Bft) W-SW 244 14,3 C 3,1 km/h (1 Bft) 100 %
18.06.2018 17:19 21,4 C 64 % 1018,9 hPa 0,0 l/m 5,2 km/h (1 Bft) W 281 14,3 C 12,6 km/h (3 Bft) 95 %
18.06.2018 17:20 21,4 C 64 % 1018,8 hPa 0,0 l/m 3,0 km/h (1 Bft) S-SW 205 14,3 C 9,4 km/h (2 Bft) 92 %
18.06.2018 17:21 21,3 C 64 % 1018,8 hPa 0,0 l/m 0,1 km/h (0 Bft) SW 215 14,2 C 3,1 km/h (1 Bft) 100 %
18.06.2018 17:22 21,3 C 64 % 1018,9 hPa 0,0 l/m 5,1 km/h (1 Bft) W-SW 248 14,2 C 12,6 km/h (3 Bft) 96 %
18.06.2018 17:23 21,3 C 63 % 1018,8 hPa 0,0 l/m 4,3 km/h (1 Bft) W 261 14,0 C 12,6 km/h (3 Bft) 91 %
18.06.2018 17:24 21,3 C 64 % 1018,8 hPa 0,0 l/m 3,1 km/h (1 Bft) W 272 14,2 C 9,4 km/h (2 Bft) 100 %
18.06.2018 17:25 21,3 C 63 % 1018,8 hPa 0,0 l/m 2,0 km/h (1 Bft) W-SW 247 14,0 C 6,3 km/h (2 Bft) 96 %
18.06.2018 17:26 21,2 C 64 % 1018,9 hPa 0,0 l/m 6,5 km/h (2 Bft) W 268 14,1 C 15,7 km/h (3 Bft) 87 %
18.06.2018 17:27 21,2 C 64 % 1018,8 hPa 0,0 l/m 3,8 km/h (1 Bft) SW 229 14,1 C 9,4 km/h (2 Bft) 100 %
18.06.2018 17:28 21,2 C 63 % 1018,9 hPa 0,0 l/m 4,8 km/h (1 Bft) NW 304 13,9 C 9,4 km/h (2 Bft) 100 %
18.06.2018 17:29 21,2 C 63 % 1018,9 hPa 0,0 l/m 6,8 km/h (2 Bft) S-SW 198 13,9 C 12,6 km/h (3 Bft) 100 %
18.06.2018 17:30 21,2 C 64 % 1018,9 hPa 0,0 l/m 7,6 km/h (2 Bft) W 270 14,1 C 15,7 km/h (3 Bft) 100 %
18.06.2018 17:31 21,1 C 64 % 1018,9 hPa 0,0 l/m 6,1 km/h (2 Bft) W 269 14,0 C 12,6 km/h (3 Bft) 100 %
18.06.2018 17:32 21,1 C 63 % 1018,9 hPa 0,0 l/m 8,6 km/h (2 Bft) W-SW 241 13,8 C 18,8 km/h (3 Bft) 100 %
18.06.2018 17:33 21,1 C 64 % 1018,9 hPa 0,0 l/m 4,4 km/h (1 Bft) W-NW 303 14,0 C 12,6 km/h (3 Bft) 100 %
18.06.2018 17:34 21,1 C 64 % 1018,9 hPa 0,0 l/m 0,8 km/h (0 Bft) SW 219 14,0 C 6,3 km/h (2 Bft) 100 %
18.06.2018 17:35 21,1 C 64 % 1018,9 hPa 0,0 l/m 4,8 km/h (1 Bft) W-SW 254 14,0 C 9,4 km/h (2 Bft) 100 %
18.06.2018 17:36 21,1 C 64 % 1018,9 hPa 0,0 l/m 3,1 km/h (1 Bft) SW 226 14,0 C 6,3 km/h (2 Bft) 100 %
18.06.2018 17:37 21,1 C 64 % 1018,9 hPa 0,0 l/m 4,4 km/h (1 Bft) SW 219 14,0 C 9,4 km/h (2 Bft) 100 %
18.06.2018 17:38 21,1 C 64 % 1018,9 hPa 0,0 l/m 10,6 km/h (2 Bft) W-NW 300 14,0 C 18,8 km/h (3 Bft) 100 %
18.06.2018 17:39 21,1 C 64 % 1018,9 hPa 0,0 l/m 9,7 km/h (2 Bft) W-NW 297 14,0 C 18,8 km/h (3 Bft) 100 %
18.06.2018 17:40 21,1 C 64 % 1018,8 hPa 0,0 l/m 8,8 km/h (2 Bft) W-NW 285 14,0 C 15,7 km/h (3 Bft) 100 %
18.06.2018 17:41 21,1 C 64 % 1018,9 hPa 0,0 l/m 2,4 km/h (1 Bft) W-NW 290 14,0 C 6,3 km/h (2 Bft) 100 %
18.06.2018 17:42 21,1 C 65 % 1018,9 hPa 0,0 l/m 0,7 km/h (0 Bft) SW 228 14,3 C 3,1 km/h (1 Bft) 100 %
18.06.2018 17:43 21,1 C 65 % 1018,8 hPa 0,0 l/m 0,1 km/h (0 Bft) W-SW 243 14,3 C 3,1 km/h (1 Bft) 100 %
18.06.2018 17:44 21,1 C 65 % 1018,8 hPa 0,0 l/m 2,0 km/h (1 Bft) O-SO 120 14,3 C 6,3 km/h (2 Bft) 100 %
18.06.2018 17:45 21,1 C 65 % 1018,8 hPa 0,0 l/m 1,4 km/h (1 Bft) W 265 14,3 C 6,3 km/h (2 Bft) 96 %
18.06.2018 17:46 21,1 C 66 % 1018,9 hPa 0,0 l/m 2,0 km/h (1 Bft) SW 219 14,5 C 6,3 km/h (2 Bft) 100 %
18.06.2018 17:47 21,1 C 65 % 1018,8 hPa 0,0 l/m 1,4 km/h (1 Bft) SW 230 14,3 C 3,1 km/h (1 Bft) 100 %
18.06.2018 17:48 21,2 C 65 % 1018,8 hPa 0,0 l/m 0,8 km/h (0 Bft) S-SW 193 14,4 C 6,3 km/h (2 Bft) 100 %
18.06.2018 17:49 21,2 C 65 % 1018,8 hPa 0,0 l/m 5,6 km/h (1 Bft) SW 227 14,4 C 15,7 km/h (3 Bft) 96 %
18.06.2018 17:50 21,2 C 65 % 1018,8 hPa 0,0 l/m 2,6 km/h (1 Bft) N-NW 329 14,4 C 3,1 km/h (1 Bft) 96 %
18.06.2018 17:51 21,2 C 65 % 1018,8 hPa 0,0 l/m 1,1 km/h (1 Bft) NW 306 14,4 C 6,3 km/h (2 Bft) 100 %
18.06.2018 17:52 21,2 C 65 % 1018,8 hPa 0,0 l/m 4,9 km/h (1 Bft) W 260 14,4 C 12,6 km/h (3 Bft) 100 %
18.06.2018 17:53 21,2 C 65 % 1018,8 hPa 0,0 l/m 3,0 km/h (1 Bft) NW 322 14,4 C 6,3 km/h (2 Bft) 96 %
18.06.2018 17:54 21,2 C 65 % 1018,8 hPa 0,0 l/m 0,5 km/h (0 Bft) N-NW 332 14,4 C 3,1 km/h (1 Bft) 100 %
18.06.2018 17:55 21,2 C 65 % 1018,8 hPa 0,0 l/m 1,4 km/h (1 Bft) S-SW 212 14,4 C 6,3 km/h (2 Bft) 100 %
18.06.2018 17:56 21,2 C 65 % 1018,8 hPa 0,0 l/m 4,1 km/h (1 Bft) W 280 14,4 C 6,3 km/h (2 Bft) 100 %
18.06.2018 17:57 21,2 C 65 % 1018,7 hPa 0,0 l/m 0,0 km/h (0 Bft) W-SW 238 14,4 C 0,0 km/h (0 Bft) 100 %
18.06.2018 17:58 21,2 C 65 % 1018,7 hPa 0,0 l/m 4,3 km/h (1 Bft) W-SW 240 14,4 C 9,4 km/h (2 Bft) 100 %
18.06.2018 17:59 21,2 C 65 % 1018,7 hPa 0,0 l/m 7,7 km/h (2 Bft) W-NW 301 14,4 C 15,7 km/h (3 Bft) 96 %
18.06.2018 18:00 21,1 C 65 % 1018,7 hPa 0,0 l/m 4,6 km/h (1 Bft) SW 214 14,3 C 12,6 km/h (3 Bft) 100 %
18.06.2018 18:01 21,1 C 64 % 1018,7 hPa 0,0 l/m 6,0 km/h (2 Bft) W-NW 282 14,0 C 12,6 km/h (3 Bft) 100 %
18.06.2018 18:02 21,1 C 65 % 1018,7 hPa 0,0 l/m 2,1 km/h (1 Bft) W-SW 242 14,3 C 9,4 km/h (2 Bft) 100 %
18.06.2018 18:03 21,1 C 65 % 1018,7 hPa 0,0 l/m 3,8 km/h (1 Bft) SW 219 14,3 C 6,3 km/h (2 Bft) 96 %
18.06.2018 18:04 21,1 C 65 % 1018,7 hPa 0,0 l/m 2,0 km/h (1 Bft) NW 308 14,3 C 3,1 km/h (1 Bft) 100 %
18.06.2018 18:05 21,1 C 65 % 1018,7 hPa 0,0 l/m 3,9 km/h (1 Bft) W-NW 302 14,3 C 6,3 km/h (2 Bft) 96 %
18.06.2018 18:06 21,1 C 66 % 1018,7 hPa 0,0 l/m 1,3 km/h (1 Bft) W-SW 258 14,5 C 3,1 km/h (1 Bft) 100 %
18.06.2018 18:07 21,1 C 65 % 1018,7 hPa 0,0 l/m 3,0 km/h (1 Bft) S-SW 210 14,3 C 12,6 km/h (3 Bft) 96 %
18.06.2018 18:08 21,1 C 65 % 1018,7 hPa 0,0 l/m 3,5 km/h (1 Bft) S-SW 212 14,3 C 9,4 km/h (2 Bft) 96 %
18.06.2018 18:09 21,1 C 65 % 1018,6 hPa 0,0 l/m 1,3 km/h (1 Bft) SW 233 14,3 C 3,1 km/h (1 Bft) 100 %
18.06.2018 18:10 21,1 C 66 % 1018,7 hPa 0,0 l/m 4,2 km/h (1 Bft) NW 316 14,5 C 9,4 km/h (2 Bft) 96 %
18.06.2018 18:11 21,1 C 65 % 1018,7 hPa 0,0 l/m 1,8 km/h (1 Bft) W 268 14,3 C 3,1 km/h (1 Bft) 100 %
18.06.2018 18:12 21,1 C 66 % 1018,7 hPa 0,0 l/m 4,1 km/h (1 Bft) NW 320 14,5 C 9,4 km/h (2 Bft) 100 %
18.06.2018 18:13 21,1 C 65 % 1018,7 hPa 0,0 l/m 6,8 km/h (2 Bft) W 261 14,3 C 15,7 km/h (3 Bft) 100 %
18.06.2018 18:14 21,0 C 65 % 1018,7 hPa 0,0 l/m 7,2 km/h (2 Bft) W-NW 287 14,2 C 12,6 km/h (3 Bft) 100 %
18.06.2018 18:15 21,0 C 65 % 1018,7 hPa 0,0 l/m 5,6 km/h (1 Bft) W 264 14,2 C 9,4 km/h (2 Bft) 100 %
18.06.2018 18:16 20,9 C 65 % 1018,7 hPa 0,0 l/m 5,2 km/h (1 Bft) SW 226 14,1 C 9,4 km/h (2 Bft) 100 %
18.06.2018 18:17 20,9 C 65 % 1018,7 hPa 0,0 l/m 1,2 km/h (1 Bft) W-SW 242 14,1 C 3,1 km/h (1 Bft) 100 %
18.06.2018 18:18 20,9 C 66 % 1018,6 hPa 0,0 l/m 0,7 km/h (0 Bft) S-SW 204 14,3 C 3,1 km/h (1 Bft) 100 %
18.06.2018 18:19 20,9 C 66 % 1018,6 hPa 0,0 l/m 2,7 km/h (1 Bft) W 264 14,3 C 6,3 km/h (2 Bft) 100 %
18.06.2018 18:20 20,9 C 66 % 1018,7 hPa 0,0 l/m 7,1 km/h (2 Bft) W 270 14,3 C 18,8 km/h (3 Bft) 100 %
18.06.2018 18:21 20,9 C 65 % 1018,7 hPa 0,0 l/m 8,4 km/h (2 Bft) W-NW 296 14,1 C 15,7 km/h (3 Bft) 100 %
18.06.2018 18:22 20,8 C 65 % 1018,7 hPa 0,0 l/m 1,5 km/h (1 Bft) W 278 14,0 C 6,3 km/h (2 Bft) 100 %
18.06.2018 18:23 20,8 C 66 % 1018,7 hPa 0,0 l/m 3,7 km/h (1 Bft) W-NW 294 14,2 C 9,4 km/h (2 Bft) 100 %
18.06.2018 18:24 20,8 C 66 % 1018,7 hPa 0,0 l/m 4,6 km/h (1 Bft) W-NW 300 14,2 C 6,3 km/h (2 Bft) 100 %
18.06.2018 18:25 20,8 C 66 % 1018,7 hPa 0,0 l/m 4,9 km/h (1 Bft) S-SW 211 14,2 C 12,6 km/h (3 Bft) 100 %
18.06.2018 18:26 20,7 C 66 % 1018,6 hPa 0,0 l/m 2,1 km/h (1 Bft) W-SW 248 14,1 C 9,4 km/h (2 Bft) 100 %
18.06.2018 18:27 20,7 C 66 % 1018,7 hPa 0,0 l/m 2,8 km/h (1 Bft) SW 233 14,1 C 9,4 km/h (2 Bft) 100 %
18.06.2018 18:28 20,7 C 67 % 1018,6 hPa 0,0 l/m 0,7 km/h (0 Bft) W-SW 256 14,3 C 3,1 km/h (1 Bft) 100 %
18.06.2018 18:29 20,7 C 67 % 1018,6 hPa 0,0 l/m 1,4 km/h (1 Bft) W-NW 284 14,3 C 3,1 km/h (1 Bft) 100 %
18.06.2018 18:30 20,6 C 67 % 1018,6 hPa 0,0 l/m 3,8 km/h (1 Bft) NW 311 14,3 C 9,4 km/h (2 Bft) 100 %
18.06.2018 18:31 20,6 C 67 % 1018,7 hPa 0,0 l/m 3,3 km/h (1 Bft) W-NW 299 14,3 C 6,3 km/h (2 Bft) 100 %
18.06.2018 18:32 20,6 C 67 % 1018,7 hPa 0,0 l/m 1,3 km/h (1 Bft) S-SW 207 14,3 C 6,3 km/h (2 Bft) 100 %
18.06.2018 18:33 20,6 C 67 % 1018,8 hPa 0,0 l/m 2,5 km/h (1 Bft) S-SW 209 14,3 C 3,1 km/h (1 Bft) 100 %
18.06.2018 18:34 20,6 C 67 % 1018,7 hPa 0,0 l/m 11,1 km/h (2 Bft) SW 217 14,3 C 25,1 km/h (4 Bft) 100 %
18.06.2018 18:35 20,6 C 67 % 1018,7 hPa 0,0 l/m 3,5 km/h (1 Bft) W-NW 297 14,3 C 12,6 km/h (3 Bft) 100 %
18.06.2018 18:36 20,6 C 68 % 1018,8 hPa 0,0 l/m 5,4 km/h (1 Bft) W-SW 238 14,5 C 9,4 km/h (2 Bft) 100 %
18.06.2018 18:37 20,6 C 67 % 1018,7 hPa 0,0 l/m 0,8 km/h (0 Bft) SW 217 14,3 C 3,1 km/h (1 Bft) 100 %
18.06.2018 18:38 20,6 C 68 % 1018,7 hPa 0,0 l/m 4,1 km/h (1 Bft) SW 214 14,5 C 15,7 km/h (3 Bft) 100 %
18.06.2018 18:39 20,5 C 67 % 1018,8 hPa 0,0 l/m 3,1 km/h (1 Bft) W-SW 250 14,2 C 9,4 km/h (2 Bft) 100 %
18.06.2018 18:40 20,5 C 68 % 1018,8 hPa 0,0 l/m 0,8 km/h (0 Bft) W 262 14,4 C 3,1 km/h (1 Bft) 100 %
18.06.2018 18:41 20,6 C 68 % 1018,8 hPa 0,0 l/m 0,8 km/h (0 Bft) NW 323 14,5 C 3,1 km/h (1 Bft) 100 %
18.06.2018 18:42 20,5 C 68 % 1018,7 hPa 0,0 l/m 4,8 km/h (1 Bft) W 274 14,4 C 9,4 km/h (2 Bft) 100 %
18.06.2018 18:43 20,5 C 68 % 1018,7 hPa 0,0 l/m 3,1 km/h (1 Bft) W 278 14,4 C 6,3 km/h (2 Bft) 100 %
18.06.2018 18:44 20,6 C 68 % 1018,7 hPa 0,0 l/m 4,7 km/h (1 Bft) W-NW 290 14,5 C 9,4 km/h (2 Bft) 100 %
18.06.2018 18:45 20,6 C 68 % 1018,7 hPa 0,0 l/m 5,5 km/h (1 Bft) W 281 14,5 C 9,4 km/h (2 Bft) 100 %
18.06.2018 18:46 20,6 C 68 % 1018,6 hPa 0,0 l/m 4,6 km/h (1 Bft) W-NW 299 14,5 C 9,4 km/h (2 Bft) 100 %
18.06.2018 18:47 20,6 C 68 % 1018,7 hPa 0,0 l/m 2,4 km/h (1 Bft) NW 308 14,5 C 6,3 km/h (2 Bft) 100 %
18.06.2018 18:48 20,6 C 68 % 1018,6 hPa 0,0 l/m 3,0 km/h (1 Bft) W 269 14,5 C 6,3 km/h (2 Bft) 100 %
18.06.2018 18:49 20,6 C 68 % 1018,6 hPa 0,0 l/m 5,2 km/h (1 Bft) W-SW 238 14,5 C 9,4 km/h (2 Bft) 100 %
18.06.2018 18:50 20,6 C 68 % 1018,6 hPa 0,0 l/m 5,1 km/h (1 Bft) SW 235 14,5 C 9,4 km/h (2 Bft) 100 %
18.06.2018 18:51 20,6 C 68 % 1018,6 hPa 0,0 l/m 1,8 km/h (1 Bft) W-SW 240 14,5 C 6,3 km/h (2 Bft) 96 %
18.06.2018 18:52 20,6 C 68 % 1018,6 hPa 0,0 l/m 0,0 km/h (0 Bft) W-SW 240 14,5 C 0,0 km/h (0 Bft) 100 %
18.06.2018 18:53 20,6 C 68 % 1018,6 hPa 0,0 l/m 0,4 km/h (0 Bft) W 271 14,5 C 3,1 km/h (1 Bft) 96 %
18.06.2018 18:54 20,7 C 68 % 1018,6 hPa 0,0 l/m 0,8 km/h (0 Bft) W-SW 240 14,6 C 3,1 km/h (1 Bft) 96 %
18.06.2018 18:55 20,7 C 68 % 1018,6 hPa 0,0 l/m 1,3 km/h (1 Bft) W 276 14,6 C 3,1 km/h (1 Bft) 100 %
18.06.2018 18:56 20,7 C 68 % 1018,6 hPa 0,0 l/m 1,9 km/h (1 Bft) NW 319 14,6 C 3,1 km/h (1 Bft) 100 %
18.06.2018 18:57 20,7 C 68 % 1018,6 hPa 0,0 l/m 0,3 km/h (0 Bft) NW 318 14,6 C 3,1 km/h (1 Bft) 96 %
18.06.2018 18:58 20,7 C 68 % 1018,7 hPa 0,0 l/m 1,2 km/h (1 Bft) W-SW 255 14,6 C 3,1 km/h (1 Bft) 100 %
18.06.2018 18:59 20,7 C 68 % 1018,7 hPa 0,0 l/m 1,3 km/h (1 Bft) W-SW 246 14,6 C 3,1 km/h (1 Bft) 96 %
18.06.2018 19:00 20,7 C 68 % 1018,7 hPa 0,0 l/m 2,2 km/h (1 Bft) W-SW 252 14,6 C 6,3 km/h (2 Bft) 96 %
18.06.2018 19:01 20,7 C 68 % 1018,7 hPa 0,0 l/m 3,1 km/h (1 Bft) W-NW 289 14,6 C 6,3 km/h (2 Bft) 100 %
18.06.2018 19:02 20,7 C 68 % 1018,7 hPa 0,0 l/m 4,0 km/h (1 Bft) W-SW 242 14,6 C 6,3 km/h (2 Bft) 96 %
18.06.2018 19:03 20,6 C 68 % 1018,7 hPa 0,0 l/m 4,1 km/h (1 Bft) W-NW 288 14,5 C 9,4 km/h (2 Bft) 100 %
18.06.2018 19:04 20,6 C 68 % 1018,6 hPa 0,0 l/m 3,1 km/h (1 Bft) NW 322 14,5 C 6,3 km/h (2 Bft) 96 %
18.06.2018 19:05 20,6 C 68 % 1018,7 hPa 0,0 l/m 3,6 km/h (1 Bft) W 277 14,5 C 9,4 km/h (2 Bft) 100 %
18.06.2018 19:06 20,6 C 68 % 1018,7 hPa 0,0 l/m 2,9 km/h (1 Bft) W 276 14,5 C 6,3 km/h (2 Bft) 100 %
18.06.2018 19:07 20,6 C 69 % 1018,6 hPa 0,0 l/m 0,4 km/h (0 Bft) W 277 14,7 C 3,1 km/h (1 Bft) 100 %
18.06.2018 19:08 20,6 C 68 % 1018,7 hPa 0,0 l/m 1,8 km/h (1 Bft) W-NW 296 14,5 C 9,4 km/h (2 Bft) 100 %
18.06.2018 19:09 20,6 C 68 % 1018,7 hPa 0,0 l/m 3,9 km/h (1 Bft) W-NW 290 14,5 C 6,3 km/h (2 Bft) 100 %
18.06.2018 19:10 20,6 C 69 % 1018,7 hPa 0,0 l/m 0,0 km/h (0 Bft) W-NW 290 14,7 C 0,0 km/h (0 Bft) 100 %
18.06.2018 19:11 20,7 C 69 % 1018,7 hPa 0,0 l/m 1,7 km/h (1 Bft) SW 218 14,8 C 6,3 km/h (2 Bft) 100 %
18.06.2018 19:12 20,6 C 68 % 1018,7 hPa 0,0 l/m 3,1 km/h (1 Bft) W-SW 254 14,5 C 6,3 km/h (2 Bft) 100 %
18.06.2018 19:13 20,6 C 68 % 1018,7 hPa 0,0 l/m 4,1 km/h (1 Bft) W-SW 238 14,5 C 9,4 km/h (2 Bft) 100 %
18.06.2018 19:14 20,6 C 69 % 1018,7 hPa 0,0 l/m 1,6 km/h (1 Bft) W 261 14,7 C 6,3 km/h (2 Bft) 100 %
18.06.2018 19:15 20,6 C 69 % 1018,7 hPa 0,0 l/m 1,3 km/h (1 Bft) W-SW 239 14,7 C 6,3 km/h (2 Bft) 100 %
18.06.2018 19:16 20,6 C 69 % 1018,7 hPa 0,0 l/m 0,8 km/h (0 Bft) W-SW 238 14,7 C 3,1 km/h (1 Bft) 100 %
18.06.2018 19:17 20,6 C 69 % 1018,7 hPa 0,0 l/m 0,6 km/h (0 Bft) W-NW 297 14,7 C 3,1 km/h (1 Bft) 100 %
18.06.2018 19:18 20,6 C 69 % 1018,7 hPa 0,0 l/m 1,4 km/h (1 Bft) W-SW 250 14,7 C 6,3 km/h (2 Bft) 100 %
18.06.2018 19:19 20,6 C 69 % 1018,8 hPa 0,0 l/m 2,4 km/h (1 Bft) W-SW 250 14,7 C 6,3 km/h (2 Bft) 100 %
18.06.2018 19:20 20,6 C 69 % 1018,8 hPa 0,0 l/m 2,7 km/h (1 Bft) W 278 14,7 C 6,3 km/h (2 Bft) 100 %
18.06.2018 19:21 20,6 C 70 % 1018,8 hPa 0,0 l/m 1,4 km/h (1 Bft) W 263 14,9 C 3,1 km/h (1 Bft) 100 %
18.06.2018 19:22 20,6 C 69 % 1018,7 hPa 0,0 l/m 2,5 km/h (1 Bft) NW 304 14,7 C 6,3 km/h (2 Bft) 100 %
18.06.2018 19:23 20,6 C 69 % 1018,7 hPa 0,0 l/m 0,8 km/h (0 Bft) SW 215 14,7 C 3,1 km/h (1 Bft) 100 %
18.06.2018 19:24 20,6 C 69 % 1018,7 hPa 0,0 l/m 7,6 km/h (2 Bft) W-NW 290 14,7 C 15,7 km/h (3 Bft) 100 %
18.06.2018 19:25 20,6 C 69 % 1018,8 hPa 0,0 l/m 6,0 km/h (2 Bft) W-SW 248 14,7 C 9,4 km/h (2 Bft) 100 %
18.06.2018 19:26 20,6 C 68 % 1018,8 hPa 0,0 l/m 7,4 km/h (2 Bft) W-NW 286 14,5 C 15,7 km/h (3 Bft) 100 %
18.06.2018 19:27 20,5 C 68 % 1018,8 hPa 0,0 l/m 4,7 km/h (1 Bft) W-NW 285 14,4 C 9,4 km/h (2 Bft) 100 %
18.06.2018 19:28 20,5 C 68 % 1018,7 hPa 0,0 l/m 5,5 km/h (1 Bft) W-SW 249 14,4 C 9,4 km/h (2 Bft) 100 %
18.06.2018 19:29 20,5 C 69 % 1018,7 hPa 0,0 l/m 3,0 km/h (1 Bft) NW 323 14,6 C 6,3 km/h (2 Bft) 100 %
18.06.2018 19:30 20,5 C 68 % 1018,7 hPa 0,0 l/m 4,8 km/h (1 Bft) W-NW 291 14,4 C 9,4 km/h (2 Bft) 100 %
18.06.2018 19:31 20,5 C 69 % 1018,7 hPa 0,0 l/m 2,6 km/h (1 Bft) NW 317 14,6 C 3,1 km/h (1 Bft) 100 %
18.06.2018 19:32 20,5 C 69 % 1018,7 hPa 0,0 l/m 1,7 km/h (1 Bft) W-NW 302 14,6 C 6,3 km/h (2 Bft) 100 %
18.06.2018 19:33 20,4 C 69 % 1018,7 hPa 0,0 l/m 3,3 km/h (1 Bft) W-NW 301 14,5 C 6,3 km/h (2 Bft) 100 %
18.06.2018 19:34 20,4 C 69 % 1018,7 hPa 0,0 l/m 4,8 km/h (1 Bft) W-NW 295 14,5 C 9,4 km/h (2 Bft) 100 %
18.06.2018 19:35 20,4 C 69 % 1018,6 hPa 0,0 l/m 2,7 km/h (1 Bft) W 262 14,5 C 6,3 km/h (2 Bft) 100 %
18.06.2018 19:36 20,4 C 69 % 1018,6 hPa 0,0 l/m 2,2 km/h (1 Bft) W 262 14,5 C 6,3 km/h (2 Bft) 100 %
18.06.2018 19:37 20,4 C 69 % 1018,6 hPa 0,0 l/m 2,6 km/h (1 Bft) W-NW 284 14,5 C 9,4 km/h (2 Bft) 100 %
18.06.2018 19:38 20,4 C 69 % 1018,7 hPa 0,0 l/m 5,0 km/h (1 Bft) W-NW 299 14,5 C 9,4 km/h (2 Bft) 100 %
18.06.2018 19:39 20,5 C 69 % 1018,7 hPa 0,0 l/m 1,3 km/h (1 Bft) W 270 14,6 C 3,1 km/h (1 Bft) 100 %
18.06.2018 19:40 20,5 C 69 % 1018,7 hPa 0,0 l/m 3,3 km/h (1 Bft) W-NW 300 14,6 C 6,3 km/h (2 Bft) 100 %
18.06.2018 19:41 20,5 C 69 % 1018,7 hPa 0,0 l/m 4,2 km/h (1 Bft) W 278 14,6 C 6,3 km/h (2 Bft) 100 %
18.06.2018 19:42 20,5 C 69 % 1018,7 hPa 0,0 l/m 1,4 km/h (1 Bft) W-NW 283 14,6 C 3,1 km/h (1 Bft) 100 %
18.06.2018 19:43 20,5 C 69 % 1018,7 hPa 0,0 l/m 0,3 km/h (0 Bft) W-NW 284 14,6 C 3,1 km/h (1 Bft) 100 %
18.06.2018 19:44 20,5 C 69 % 1018,7 hPa 0,0 l/m 5,8 km/h (2 Bft) W-SW 258 14,6 C 12,6 km/h (3 Bft) 100 %
18.06.2018 19:45 20,5 C 69 % 1018,7 hPa 0,0 l/m 2,8 km/h (1 Bft) N 359 14,6 C 6,3 km/h (2 Bft) 100 %
18.06.2018 19:46 20,5 C 69 % 1018,7 hPa 0,0 l/m 1,8 km/h (1 Bft) W-NW 283 14,6 C 3,1 km/h (1 Bft) 100 %
18.06.2018 19:47 20,5 C 69 % 1018,7 hPa 0,0 l/m 1,5 km/h (1 Bft) W 262 14,6 C 3,1 km/h (1 Bft) 100 %
18.06.2018 19:48 20,5 C 69 % 1018,7 hPa 0,0 l/m 1,0 km/h (0 Bft) SW 233 14,6 C 3,1 km/h (1 Bft) 96 %
18.06.2018 19:49 20,5 C 69 % 1018,7 hPa 0,0 l/m 1,6 km/h (1 Bft) NW 311 14,6 C 6,3 km/h (2 Bft) 100 %
18.06.2018 19:50 20,5 C 69 % 1018,7 hPa 0,0 l/m 4,1 km/h (1 Bft) W 279 14,6 C 9,4 km/h (2 Bft) 96 %
18.06.2018 19:51 20,5 C 69 % 1018,7 hPa 0,0 l/m 2,8 km/h (1 Bft) W 262 14,6 C 6,3 km/h (2 Bft) 100 %
18.06.2018 19:52 20,5 C 69 % 1018,7 hPa 0,0 l/m 3,1 km/h (1 Bft) NW 304 14,6 C 3,1 km/h (1 Bft) 100 %
18.06.2018 19:53 20,5 C 70 % 1018,6 hPa 0,0 l/m 1,4 km/h (1 Bft) NW 314 14,8 C 6,3 km/h (2 Bft) 96 %
18.06.2018 19:54 20,5 C 70 % 1018,7 hPa 0,0 l/m 3,9 km/h (1 Bft) NW 311 14,8 C 6,3 km/h (2 Bft) 96 %
18.06.2018 19:55 20,5 C 70 % 1018,7 hPa 0,0 l/m 4,7 km/h (1 Bft) W-NW 294 14,8 C 9,4 km/h (2 Bft) 100 %
18.06.2018 19:56 20,5 C 70 % 1018,7 hPa 0,0 l/m 3,1 km/h (1 Bft) NW 305 14,8 C 6,3 km/h (2 Bft) 96 %
18.06.2018 19:57 20,5 C 70 % 1018,7 hPa 0,0 l/m 1,4 km/h (1 Bft) W 274 14,8 C 6,3 km/h (2 Bft) 100 %
18.06.2018 19:58 20,5 C 70 % 1018,6 hPa 0,0 l/m 2,6 km/h (1 Bft) W-NW 302 14,8 C 6,3 km/h (2 Bft) 96 %
18.06.2018 19:59 20,5 C 70 % 1018,6 hPa 0,0 l/m 2,2 km/h (1 Bft) W-NW 297 14,8 C 6,3 km/h (2 Bft) 100 %
18.06.2018 20:00 20,5 C 70 % 1018,6 hPa 0,0 l/m 3,8 km/h (1 Bft) W 273 14,8 C 6,3 km/h (2 Bft) 100 %
18.06.2018 20:01 20,5 C 69 % 1018,6 hPa 0,0 l/m 6,4 km/h (2 Bft) W-SW 250 14,6 C 9,4 km/h (2 Bft) 100 %
18.06.2018 20:02 20,5 C 69 % 1018,6 hPa 0,0 l/m 3,9 km/h (1 Bft) SW 219 14,6 C 6,3 km/h (2 Bft) 100 %
18.06.2018 20:03 20,5 C 69 % 1018,6 hPa 0,0 l/m 0,7 km/h (0 Bft) NW 304 14,6 C 3,1 km/h (1 Bft) 100 %
18.06.2018 20:04 20,5 C 70 % 1018,6 hPa 0,0 l/m 3,1 km/h (1 Bft) SW 235 14,8 C 6,3 km/h (2 Bft) 100 %
18.06.2018 20:05 20,5 C 70 % 1018,6 hPa 0,0 l/m 0,4 km/h (0 Bft) SW 214 14,8 C 3,1 km/h (1 Bft) 100 %
18.06.2018 20:06 20,5 C 70 % 1018,7 hPa 0,0 l/m 2,4 km/h (1 Bft) NW 310 14,8 C 6,3 km/h (2 Bft) 100 %
18.06.2018 20:07 20,5 C 70 % 1018,6 hPa 0,0 l/m 1,3 km/h (1 Bft) W-NW 296 14,8 C 6,3 km/h (2 Bft) 100 %
18.06.2018 20:08 20,5 C 70 % 1018,6 hPa 0,0 l/m 2,2 km/h (1 Bft) W-NW 282 14,8 C 3,1 km/h (1 Bft) 100 %
18.06.2018 20:09 20,5 C 70 % 1018,7 hPa 0,0 l/m 0,3 km/h (0 Bft) W-NW 295 14,8 C 3,1 km/h (1 Bft) 100 %
18.06.2018 20:10 20,4 C 70 % 1018,7 hPa 0,0 l/m 2,7 km/h (1 Bft) NW 306 14,7 C 9,4 km/h (2 Bft) 100 %
18.06.2018 20:11 20,5 C 70 % 1018,6 hPa 0,0 l/m 0,0 km/h (0 Bft) NW 306 14,8 C 0,0 km/h (0 Bft) 100 %
18.06.2018 20:12 20,4 C 70 % 1018,7 hPa 0,0 l/m 1,7 km/h (1 Bft) SW 224 14,7 C 3,1 km/h (1 Bft) 100 %
18.06.2018 20:13 20,4 C 70 % 1018,7 hPa 0,0 l/m 0,0 km/h (0 Bft) NW 309 14,7 C 0,0 km/h (0 Bft) 100 %
18.06.2018 20:14 20,4 C 70 % 1018,6 hPa 0,0 l/m 0,1 km/h (0 Bft) NW 309 14,7 C 3,1 km/h (1 Bft) 100 %
18.06.2018 20:15 20,4 C 70 % 1018,6 hPa 0,0 l/m 0,3 km/h (0 Bft) SW 224 14,7 C 3,1 km/h (1 Bft) 96 %
18.06.2018 20:16 20,4 C 71 % 1018,6 hPa 0,0 l/m 0,3 km/h (0 Bft) SW 226 15,0 C 3,1 km/h (1 Bft) 100 %
18.06.2018 20:17 20,4 C 70 % 1018,6 hPa 0,0 l/m 0,0 km/h (0 Bft) SW 226 14,7 C 0,0 km/h (0 Bft) 100 %
18.06.2018 20:18 20,4 C 71 % 1018,7 hPa 0,0 l/m 0,0 km/h (0 Bft) SW 226 15,0 C 0,0 km/h (0 Bft) 100 %
18.06.2018 20:19 20,4 C 71 % 1018,6 hPa 0,0 l/m 0,1 km/h (0 Bft) SW 226 15,0 C 3,1 km/h (1 Bft) 100 %
18.06.2018 20:20 20,4 C 71 % 1018,7 hPa 0,0 l/m 0,0 km/h (0 Bft) SW 226 15,0 C 0,0 km/h (0 Bft) 100 %
18.06.2018 20:21 20,4 C 71 % 1018,7 hPa 0,0 l/m 0,1 km/h (0 Bft) W 274 15,0 C 3,1 km/h (1 Bft) 100 %
18.06.2018 20:22 20,4 C 71 % 1018,7 hPa 0,0 l/m 0,7 km/h (0 Bft) NW 316 15,0 C 3,1 km/h (1 Bft) 100 %
18.06.2018 20:23 20,4 C 71 % 1018,8 hPa 0,0 l/m 0,3 km/h (0 Bft) W-SW 255 15,0 C 3,1 km/h (1 Bft) 100 %
18.06.2018 20:24 20,4 C 70 % 1018,7 hPa 0,0 l/m 3,1 km/h (1 Bft) W-SW 258 14,7 C 12,6 km/h (3 Bft) 100 %
18.06.2018 20:25 20,3 C 70 % 1018,7 hPa 0,0 l/m 0,8 km/h (0 Bft) NW 316 14,6 C 3,1 km/h (1 Bft) 100 %
18.06.2018 20:26 20,3 C 70 % 1018,7 hPa 0,0 l/m 4,6 km/h (1 Bft) SW 217 14,6 C 12,6 km/h (3 Bft) 100 %
18.06.2018 20:27 20,3 C 70 % 1018,7 hPa 0,0 l/m 1,7 km/h (1 Bft) W 265 14,6 C 6,3 km/h (2 Bft) 100 %
18.06.2018 20:28 20,3 C 70 % 1018,7 hPa 0,0 l/m 2,5 km/h (1 Bft) W-NW 288 14,6 C 12,6 km/h (3 Bft) 100 %
18.06.2018 20:29 20,3 C 70 % 1018,7 hPa 0,0 l/m 4,7 km/h (1 Bft) W-SW 239 14,6 C 12,6 km/h (3 Bft) 100 %
18.06.2018 20:30 20,3 C 70 % 1018,7 hPa 0,0 l/m 1,4 km/h (1 Bft) W 263 14,6 C 3,1 km/h (1 Bft) 100 %
18.06.2018 20:31 20,3 C 70 % 1018,7 hPa 0,0 l/m 4,1 km/h (1 Bft) SW 229 14,6 C 9,4 km/h (2 Bft) 100 %
18.06.2018 20:32 20,3 C 70 % 1018,7 hPa 0,0 l/m 0,0 km/h (0 Bft) SW 229 14,6 C 0,0 km/h (0 Bft) 100 %
18.06.2018 20:33 20,3 C 70 % 1018,6 hPa 0,0 l/m 0,5 km/h (0 Bft) SW 229 14,6 C 3,1 km/h (1 Bft) 100 %
18.06.2018 20:34 20,3 C 70 % 1018,7 hPa 0,0 l/m 0,8 km/h (0 Bft) SW 217 14,6 C 3,1 km/h (1 Bft) 100 %
18.06.2018 20:35 20,3 C 70 % 1018,7 hPa 0,0 l/m 0,0 km/h (0 Bft) W 269 14,6 C 0,0 km/h (0 Bft) 100 %
18.06.2018 20:36 20,3 C 70 % 1018,7 hPa 0,0 l/m 0,9 km/h (0 Bft) S-SW 205 14,6 C 3,1 km/h (1 Bft) 100 %
18.06.2018 20:37 20,3 C 69 % 1018,7 hPa 0,0 l/m 3,0 km/h (1 Bft) SW 233 14,4 C 9,4 km/h (2 Bft) 100 %
18.06.2018 20:38 20,3 C 70 % 1018,7 hPa 0,0 l/m 0,0 km/h (0 Bft) SW 233 14,6 C 0,0 km/h (0 Bft) 100 %
18.06.2018 20:39 20,3 C 70 % 1018,7 hPa 0,0 l/m 0,0 km/h (0 Bft) SW 214 14,6 C 0,0 km/h (0 Bft) 96 %
18.06.2018 20:40 20,3 C 70 % 1018,8 hPa 0,0 l/m 1,0 km/h (0 Bft) NW 314 14,6 C 3,1 km/h (1 Bft) 96 %
18.06.2018 20:41 20,2 C 70 % 1018,8 hPa 0,0 l/m 3,4 km/h (1 Bft) S-SW 205 14,5 C 6,3 km/h (2 Bft) 96 %
18.06.2018 20:42 20,2 C 70 % 1018,8 hPa 0,0 l/m 0,8 km/h (0 Bft) W 271 14,5 C 3,1 km/h (1 Bft) 96 %
18.06.2018 20:43 20,2 C 70 % 1018,7 hPa 0,0 l/m 1,0 km/h (0 Bft) W-SW 247 14,5 C 3,1 km/h (1 Bft) 100 %
18.06.2018 20:44 20,2 C 70 % 1018,7 hPa 0,0 l/m 1,8 km/h (1 Bft) SW 216 14,5 C 6,3 km/h (2 Bft) 96 %
18.06.2018 20:45 20,2 C 70 % 1018,7 hPa 0,0 l/m 0,7 km/h (0 Bft) SW 219 14,5 C 3,1 km/h (1 Bft) 100 %
18.06.2018 20:46 20,2 C 70 % 1018,7 hPa 0,0 l/m 0,1 km/h (0 Bft) SW 221 14,5 C 3,1 km/h (1 Bft) 96 %
18.06.2018 20:47 20,2 C 71 % 1018,7 hPa 0,0 l/m 0,0 km/h (0 Bft) SW 227 14,8 C 0,0 km/h (0 Bft) 100 %
18.06.2018 20:48 20,2 C 71 % 1018,7 hPa 0,0 l/m 1,8 km/h (1 Bft) NW 309 14,8 C 9,4 km/h (2 Bft) 96 %
18.06.2018 20:49 20,2 C 71 % 1018,7 hPa 0,0 l/m 2,4 km/h (1 Bft) W-SW 249 14,8 C 9,4 km/h (2 Bft) 100 %
18.06.2018 20:50 20,1 C 70 % 1018,6 hPa 0,0 l/m 2,9 km/h (1 Bft) SW 229 14,5 C 9,4 km/h (2 Bft) 96 %
18.06.2018 20:51 20,1 C 71 % 1018,7 hPa 0,0 l/m 0,9 km/h (0 Bft) W-NW 295 14,7 C 6,3 km/h (2 Bft) 100 %
18.06.2018 20:52 20,1 C 71 % 1018,7 hPa 0,0 l/m 0,8 km/h (0 Bft) NW 310 14,7 C 3,1 km/h (1 Bft) 96 %
18.06.2018 20:53 20,1 C 71 % 1018,7 hPa 0,0 l/m 0,9 km/h (0 Bft) SW 215 14,7 C 3,1 km/h (1 Bft) 100 %
18.06.2018 20:54 20,1 C 71 % 1018,7 hPa 0,0 l/m 1,0 km/h (0 Bft) W-SW 253 14,7 C 3,1 km/h (1 Bft) 100 %
18.06.2018 20:55 20,1 C 71 % 1018,7 hPa 0,0 l/m 0,6 km/h (0 Bft) SW 234 14,7 C 3,1 km/h (1 Bft) 100 %
18.06.2018 20:56 20,1 C 71 % 1018,7 hPa 0,0 l/m 1,3 km/h (1 Bft) W-NW 300 14,7 C 3,1 km/h (1 Bft) 100 %
18.06.2018 20:57 20,0 C 71 % 1018,7 hPa 0,0 l/m 1,3 km/h (1 Bft) W-NW 286 14,6 C 6,3 km/h (2 Bft) 100 %
18.06.2018 20:58 20,0 C 71 % 1018,7 hPa 0,0 l/m 0,3 km/h (0 Bft) W 264 14,6 C 3,1 km/h (1 Bft) 100 %
18.06.2018 20:59 20,0 C 71 % 1018,8 hPa 0,0 l/m 1,9 km/h (1 Bft) SW 219 14,6 C 3,1 km/h (1 Bft) 100 %
18.06.2018 21:00 19,9 C 71 % 1018,8 hPa 0,0 l/m 0,4 km/h (0 Bft) W-SW 257 14,5 C 3,1 km/h (1 Bft) 100 %
18.06.2018 21:01 19,9 C 71 % 1018,8 hPa 0,0 l/m 5,6 km/h (1 Bft) SW 233 14,5 C 12,6 km/h (3 Bft) 100 %
18.06.2018 21:02 19,9 C 72 % 1018,8 hPa 0,0 l/m 0,3 km/h (0 Bft) S-SW 208 14,7 C 3,1 km/h (1 Bft) 100 %
18.06.2018 21:03 19,9 C 72 % 1018,8 hPa 0,0 l/m 0,0 km/h (0 Bft) SW 215 14,7 C 0,0 km/h (0 Bft) 100 %
18.06.2018 21:04 19,9 C 72 % 1018,8 hPa 0,0 l/m 0,5 km/h (0 Bft) NW 310 14,7 C 3,1 km/h (1 Bft) 100 %
18.06.2018 21:05 19,9 C 72 % 1018,8 hPa 0,0 l/m 2,5 km/h (1 Bft) W 272 14,7 C 9,4 km/h (2 Bft) 100 %
18.06.2018 21:06 19,9 C 72 % 1018,7 hPa 0,0 l/m 1,8 km/h (1 Bft) W-SW 243 14,7 C 9,4 km/h (2 Bft) 100 %
18.06.2018 21:07 19,8 C 72 % 1018,7 hPa 0,0 l/m 0,0 km/h (0 Bft) SW 233 14,6 C 0,0 km/h (0 Bft) 100 %
18.06.2018 21:08 19,8 C 72 % 1018,7 hPa 0,0 l/m 2,1 km/h (1 Bft) SW 223 14,6 C 9,4 km/h (2 Bft) 100 %
18.06.2018 21:09 19,8 C 72 % 1018,6 hPa 0,0 l/m 2,1 km/h (1 Bft) SW 230 14,6 C 6,3 km/h (2 Bft) 100 %
18.06.2018 21:10 19,8 C 72 % 1018,7 hPa 0,0 l/m 2,7 km/h (1 Bft) SW 228 14,6 C 9,4 km/h (2 Bft) 100 %
18.06.2018 21:11 19,8 C 72 % 1018,6 hPa 0,0 l/m 1,4 km/h (1 Bft) SW 214 14,6 C 3,1 km/h (1 Bft) 100 %
18.06.2018 21:12 19,8 C 72 % 1018,7 hPa 0,0 l/m 0,1 km/h (0 Bft) SW 214 14,6 C 3,1 km/h (1 Bft) 100 %
18.06.2018 21:13 19,8 C 72 % 1018,6 hPa 0,0 l/m 0,9 km/h (0 Bft) SW 233 14,6 C 3,1 km/h (1 Bft) 100 %
18.06.2018 21:14 19,7 C 72 % 1018,6 hPa 0,0 l/m 1,7 km/h (1 Bft) SW 224 14,5 C 12,6 km/h (3 Bft) 100 %
18.06.2018 21:15 19,7 C 72 % 1018,6 hPa 0,0 l/m 3,6 km/h (1 Bft) W 269 14,5 C 6,3 km/h (2 Bft) 100 %
18.06.2018 21:16 19,7 C 72 % 1018,6 hPa 0,0 l/m 0,3 km/h (0 Bft) W-SW 252 14,5 C 3,1 km/h (1 Bft) 100 %
18.06.2018 21:17 19,7 C 72 % 1018,6 hPa 0,0 l/m 1,3 km/h (1 Bft) S 170 14,5 C 9,4 km/h (2 Bft) 100 %
18.06.2018 21:18 19,7 C 73 % 1018,6 hPa 0,0 l/m 3,0 km/h (1 Bft) O-NO 58 14,7 C 9,4 km/h (2 Bft) 100 %
18.06.2018 21:19 19,7 C 73 % 1018,6 hPa 0,0 l/m 1,6 km/h (1 Bft) W 272 14,7 C 3,1 km/h (1 Bft) 100 %
18.06.2018 21:20 19,7 C 73 % 1018,6 hPa 0,0 l/m 1,0 km/h (0 Bft) SW 226 14,7 C 6,3 km/h (2 Bft) 100 %
18.06.2018 21:21 19,6 C 73 % 1018,7 hPa 0,0 l/m 2,9 km/h (1 Bft) S-SW 210 14,6 C 6,3 km/h (2 Bft) 100 %
18.06.2018 21:22 19,6 C 73 % 1018,6 hPa 0,0 l/m 5,8 km/h (2 Bft) W-SW 242 14,6 C 9,4 km/h (2 Bft) 100 %
18.06.2018 21:23 19,6 C 73 % 1018,6 hPa 0,0 l/m 0,7 km/h (0 Bft) SW 231 14,6 C 3,1 km/h (1 Bft) 100 %
18.06.2018 21:24 19,6 C 73 % 1018,6 hPa 0,0 l/m 0,3 km/h (0 Bft) S-SW 213 14,6 C 3,1 km/h (1 Bft) 100 %
18.06.2018 21:25 19,6 C 73 % 1018,6 hPa 0,0 l/m 2,8 km/h (1 Bft) W-SW 243 14,6 C 6,3 km/h (2 Bft) 100 %
18.06.2018 21:26 19,6 C 73 % 1018,6 hPa 0,0 l/m 4,4 km/h (1 Bft) SW 223 14,6 C 9,4 km/h (2 Bft) 100 %
18.06.2018 21:27 19,6 C 73 % 1018,6 hPa 0,0 l/m 6,7 km/h (2 Bft) W 270 14,6 C 15,7 km/h (3 Bft) 100 %
18.06.2018 21:28 19,6 C 73 % 1018,6 hPa 0,0 l/m 2,9 km/h (1 Bft) W-SW 238 14,6 C 6,3 km/h (2 Bft) 100 %
18.06.2018 21:29 19,6 C 73 % 1018,6 hPa 0,0 l/m 0,1 km/h (0 Bft) SW 236 14,6 C 3,1 km/h (1 Bft) 100 %
18.06.2018 21:30 19,6 C 73 % 1018,7 hPa 0,0 l/m 0,3 km/h (0 Bft) W-SW 252 14,6 C 3,1 km/h (1 Bft) 100 %
18.06.2018 21:31 19,5 C 73 % 1018,7 hPa 0,0 l/m 1,2 km/h (1 Bft) SW 224 14,5 C 3,1 km/h (1 Bft) 100 %
18.06.2018 21:32 19,5 C 73 % 1018,7 hPa 0,0 l/m 0,8 km/h (0 Bft) W 276 14,5 C 3,1 km/h (1 Bft) 100 %
18.06.2018 21:33 19,5 C 73 % 1018,7 hPa 0,0 l/m 5,4 km/h (1 Bft) W-SW 240 14,5 C 12,6 km/h (3 Bft) 96 %
18.06.2018 21:34 19,5 C 74 % 1018,7 hPa 0,0 l/m 4,7 km/h (1 Bft) SW 220 14,7 C 9,4 km/h (2 Bft) 100 %
18.06.2018 21:35 19,5 C 74 % 1018,7 hPa 0,0 l/m 3,1 km/h (1 Bft) SW 229 14,7 C 9,4 km/h (2 Bft) 96 %
18.06.2018 21:36 19,4 C 74 % 1018,7 hPa 0,0 l/m 4,2 km/h (1 Bft) W-SW 248 14,6 C 6,3 km/h (2 Bft) 100 %
18.06.2018 21:37 19,4 C 74 % 1018,7 hPa 0,0 l/m 0,7 km/h (0 Bft) W 277 14,6 C 3,1 km/h (1 Bft) 96 %
18.06.2018 21:38 19,4 C 74 % 1018,7 hPa 0,0 l/m 0,4 km/h (0 Bft) W 264 14,6 C 3,1 km/h (1 Bft) 96 %
18.06.2018 21:39 19,4 C 74 % 1018,7 hPa 0,0 l/m 1,3 km/h (1 Bft) W-SW 250 14,6 C 3,1 km/h (1 Bft) 100 %
18.06.2018 21:40 19,4 C 74 % 1018,7 hPa 0,0 l/m 2,4 km/h (1 Bft) SW 217 14,6 C 6,3 km/h (2 Bft) 96 %
18.06.2018 21:41 19,4 C 74 % 1018,7 hPa 0,0 l/m 0,8 km/h (0 Bft) SW 214 14,6 C 6,3 km/h (2 Bft) 96 %
18.06.2018 21:42 19,3 C 74 % 1018,8 hPa 0,0 l/m 2,6 km/h (1 Bft) W-SW 245 14,5 C 6,3 km/h (2 Bft) 100 %
18.06.2018 21:43 19,3 C 74 % 1018,8 hPa 0,0 l/m 3,0 km/h (1 Bft) NW 320 14,5 C 12,6 km/h (3 Bft) 96 %
18.06.2018 21:44 19,3 C 74 % 1018,8 hPa 0,0 l/m 6,3 km/h (2 Bft) W-SW 238 14,5 C 9,4 km/h (2 Bft) 100 %
18.06.2018 21:45 19,3 C 75 % 1018,8 hPa 0,0 l/m 3,5 km/h (1 Bft) O-SO 107 14,8 C 6,3 km/h (2 Bft) 97 %
18.06.2018 21:46 19,3 C 75 % 1018,8 hPa 0,0 l/m 4,4 km/h (1 Bft) SW 235 14,8 C 9,4 km/h (2 Bft) 100 %
18.06.2018 21:47 19,3 C 75 % 1018,9 hPa 0,0 l/m 2,2 km/h (1 Bft) W-SW 238 14,8 C 6,3 km/h (2 Bft) 100 %
18.06.2018 21:48 19,3 C 75 % 1018,9 hPa 0,0 l/m 2,2 km/h (1 Bft) SW 216 14,8 C 9,4 km/h (2 Bft) 100 %
18.06.2018 21:49 19,3 C 75 % 1018,9 hPa 0,0 l/m 3,0 km/h (1 Bft) S-SW 212 14,8 C 9,4 km/h (2 Bft) 100 %
18.06.2018 21:50 19,3 C 75 % 1018,9 hPa 0,0 l/m 0,5 km/h (0 Bft) SW 224 14,8 C 3,1 km/h (1 Bft) 100 %
18.06.2018 21:51 19,3 C 75 % 1018,8 hPa 0,0 l/m 0,4 km/h (0 Bft) W-SW 240 14,8 C 3,1 km/h (1 Bft) 100 %
18.06.2018 21:52 19,2 C 75 % 1018,8 hPa 0,0 l/m 1,7 km/h (1 Bft) SW 231 14,7 C 6,3 km/h (2 Bft) 100 %
18.06.2018 21:53 19,2 C 75 % 1018,8 hPa 0,0 l/m 4,8 km/h (1 Bft) SW 225 14,7 C 9,4 km/h (2 Bft) 100 %
18.06.2018 21:54 19,2 C 75 % 1018,9 hPa 0,0 l/m 0,3 km/h (0 Bft) W 280 14,7 C 3,1 km/h (1 Bft) 100 %
18.06.2018 21:55 19,2 C 76 % 1018,9 hPa 0,0 l/m 0,1 km/h (0 Bft) W 262 14,9 C 3,1 km/h (1 Bft) 100 %
18.06.2018 21:56 19,1 C 75 % 1018,9 hPa 0,0 l/m 3,1 km/h (1 Bft) SW 227 14,6 C 12,6 km/h (3 Bft) 100 %
18.06.2018 21:57 19,1 C 76 % 1018,9 hPa 0,0 l/m 0,5 km/h (0 Bft) SW 229 14,8 C 3,1 km/h (1 Bft) 100 %
18.06.2018 21:58 19,1 C 76 % 1018,9 hPa 0,0 l/m 0,2 km/h (0 Bft) W-SW 251 14,8 C 3,1 km/h (1 Bft) 100 %
18.06.2018 21:59 19,1 C 76 % 1018,9 hPa 0,0 l/m 0,0 km/h (0 Bft) W-SW 251 14,8 C 0,0 km/h (0 Bft) 100 %
18.06.2018 22:00 19,1 C 76 % 1018,9 hPa 0,0 l/m 0,2 km/h (0 Bft) S-SW 211 14,8 C 3,1 km/h (1 Bft) 100 %
18.06.2018 22:01 19,0 C 76 % 1018,9 hPa 0,0 l/m 0,0 km/h (0 Bft) S-SW 211 14,7 C 0,0 km/h (0 Bft) 100 %
18.06.2018 22:02 19,0 C 76 % 1018,9 hPa 0,0 l/m 0,3 km/h (0 Bft) W-NW 289 14,7 C 3,1 km/h (1 Bft) 100 %
18.06.2018 22:03 18,9 C 76 % 1018,9 hPa 0,0 l/m 0,6 km/h (0 Bft) SW 230 14,6 C 3,1 km/h (1 Bft) 100 %
18.06.2018 22:04 18,9 C 76 % 1018,9 hPa 0,0 l/m 1,2 km/h (1 Bft) W-NW 285 14,6 C 3,1 km/h (1 Bft) 100 %
18.06.2018 22:05 18,8 C 77 % 1019,0 hPa 0,0 l/m 0,0 km/h (0 Bft) W-NW 285 14,7 C 0,0 km/h (0 Bft) 100 %
18.06.2018 22:06 18,8 C 77 % 1019,0 hPa 0,0 l/m 0,3 km/h (0 Bft) W-NW 295 14,7 C 3,1 km/h (1 Bft) 100 %
18.06.2018 22:07 18,8 C 77 % 1019,0 hPa 0,0 l/m 0,4 km/h (0 Bft) W 277 14,7 C 3,1 km/h (1 Bft) 100 %
18.06.2018 22:08 18,7 C 77 % 1019,0 hPa 0,0 l/m 0,0 km/h (0 Bft) SW 231 14,6 C 0,0 km/h (0 Bft) 100 %
18.06.2018 22:09 18,7 C 77 % 1019,1 hPa 0,0 l/m 0,1 km/h (0 Bft) S-SW 213 14,6 C 3,1 km/h (1 Bft) 100 %
18.06.2018 22:10 18,7 C 77 % 1019,1 hPa 0,0 l/m 2,1 km/h (1 Bft) W-NW 285 14,6 C 9,4 km/h (2 Bft) 100 %
18.06.2018 22:11 18,6 C 78 % 1019,0 hPa 0,0 l/m 0,7 km/h (0 Bft) W-SW 250 14,7 C 3,1 km/h (1 Bft) 100 %
18.06.2018 22:12 18,6 C 78 % 1019,1 hPa 0,0 l/m 1,7 km/h (1 Bft) SW 220 14,7 C 6,3 km/h (2 Bft) 100 %
18.06.2018 22:13 18,6 C 78 % 1019,1 hPa 0,0 l/m 0,3 km/h (0 Bft) SW 228 14,7 C 3,1 km/h (1 Bft) 100 %
18.06.2018 22:14 18,6 C 78 % 1019,0 hPa 0,0 l/m 0,0 km/h (0 Bft) SW 228 14,7 C 0,0 km/h (0 Bft) 100 %
18.06.2018 22:15 18,5 C 78 % 1019,0 hPa 0,0 l/m 0,0 km/h (0 Bft) SW 228 14,6 C 0,0 km/h (0 Bft) 100 %
18.06.2018 22:16 18,5 C 78 % 1019,1 hPa 0,0 l/m 0,3 km/h (0 Bft) W-SW 243 14,6 C 3,1 km/h (1 Bft) 100 %
18.06.2018 22:17 18,4 C 78 % 1019,1 hPa 0,0 l/m 2,8 km/h (1 Bft) SW 224 14,5 C 3,1 km/h (1 Bft) 100 %
18.06.2018 22:18 18,4 C 78 % 1019,1 hPa 0,0 l/m 0,5 km/h (0 Bft) SW 224 14,5 C 3,1 km/h (1 Bft) 100 %
18.06.2018 22:19 18,4 C 78 % 1019,1 hPa 0,0 l/m 0,3 km/h (0 Bft) W-SW 242 14,5 C 3,1 km/h (1 Bft) 100 %
18.06.2018 22:20 18,4 C 79 % 1019,1 hPa 0,0 l/m 0,3 km/h (0 Bft) W-SW 237 14,7 C 3,1 km/h (1 Bft) 100 %
18.06.2018 22:21 18,3 C 79 % 1019,0 hPa 0,0 l/m 1,6 km/h (1 Bft) SW 217 14,6 C 6,3 km/h (2 Bft) 100 %
18.06.2018 22:22 18,3 C 79 % 1019,1 hPa 0,0 l/m 0,5 km/h (0 Bft) SW 222 14,6 C 3,1 km/h (1 Bft) 100 %
18.06.2018 22:23 18,3 C 79 % 1019,1 hPa 0,0 l/m 1,8 km/h (1 Bft) SW 226 14,6 C 6,3 km/h (2 Bft) 100 %
18.06.2018 22:24 18,3 C 79 % 1019,1 hPa 0,0 l/m 0,2 km/h (0 Bft) SW 226 14,6 C 3,1 km/h (1 Bft) 100 %
18.06.2018 22:25 18,3 C 79 % 1019,1 hPa 0,0 l/m 0,0 km/h (0 Bft) SW 226 14,6 C 0,0 km/h (0 Bft) 100 %
18.06.2018 22:26 18,3 C 79 % 1019,1 hPa 0,0 l/m 0,2 km/h (0 Bft) W-SW 250 14,6 C 3,1 km/h (1 Bft) 100 %
18.06.2018 22:27 18,2 C 79 % 1019,1 hPa 0,0 l/m 0,8 km/h (0 Bft) SW 226 14,5 C 3,1 km/h (1 Bft) 100 %
18.06.2018 22:28 18,2 C 79 % 1019,1 hPa 0,0 l/m 4,4 km/h (1 Bft) W-SW 245 14,5 C 12,6 km/h (3 Bft) 100 %
18.06.2018 22:29 18,2 C 79 % 1019,1 hPa 0,0 l/m 2,0 km/h (1 Bft) SW 232 14,5 C 6,3 km/h (2 Bft) 96 %
18.06.2018 22:30 18,2 C 79 % 1019,1 hPa 0,0 l/m 0,0 km/h (0 Bft) SW 232 14,5 C 0,0 km/h (0 Bft) 96 %
18.06.2018 22:31 18,2 C 79 % 1019,1 hPa 0,0 l/m 2,0 km/h (1 Bft) SW 231 14,5 C 6,3 km/h (2 Bft) 100 %
18.06.2018 22:32 18,2 C 79 % 1019,1 hPa 0,0 l/m 0,3 km/h (0 Bft) SW 231 14,5 C 3,1 km/h (1 Bft) 100 %
18.06.2018 22:33 18,1 C 79 % 1019,1 hPa 0,0 l/m 1,9 km/h (1 Bft) SW 222 14,4 C 3,1 km/h (1 Bft) 100 %
18.06.2018 22:34 18,1 C 80 % 1019,0 hPa 0,0 l/m 2,2 km/h (1 Bft) SW 217 14,6 C 6,3 km/h (2 Bft) 93 %
18.06.2018 22:35 18,1 C 80 % 1019,1 hPa 0,0 l/m 3,3 km/h (1 Bft) SW 231 14,6 C 12,6 km/h (3 Bft) 97 %
18.06.2018 22:36 18,1 C 80 % 1019,1 hPa 0,0 l/m 0,2 km/h (0 Bft) SW 231 14,6 C 3,1 km/h (1 Bft) 100 %
18.06.2018 22:37 18,1 C 80 % 1019,0 hPa 0,0 l/m 0,1 km/h (0 Bft) SW 231 14,6 C 3,1 km/h (1 Bft) 96 %
18.06.2018 22:38 18,0 C 80 % 1019,0 hPa 0,0 l/m 0,2 km/h (0 Bft) W-SW 243 14,5 C 3,1 km/h (1 Bft) 100 %
18.06.2018 22:39 17,9 C 80 % 1019,1 hPa 0,0 l/m 0,4 km/h (0 Bft) N-NW 340 14,4 C 3,1 km/h (1 Bft) 96 %
18.06.2018 22:40 17,9 C 80 % 1019,1 hPa 0,0 l/m 0,0 km/h (0 Bft) N-NW 335 14,4 C 0,0 km/h (0 Bft) 100 %
18.06.2018 22:41 17,9 C 81 % 1019,1 hPa 0,0 l/m 0,7 km/h (0 Bft) SW 224 14,6 C 3,1 km/h (1 Bft) 96 %
18.06.2018 22:42 17,8 C 80 % 1019,0 hPa 0,0 l/m 0,8 km/h (0 Bft) SW 231 14,3 C 3,1 km/h (1 Bft) 96 %
18.06.2018 22:43 17,8 C 81 % 1019,1 hPa 0,0 l/m 0,1 km/h (0 Bft) W-SW 243 14,5 C 3,1 km/h (1 Bft) 100 %
18.06.2018 22:44 17,8 C 81 % 1019,1 hPa 0,0 l/m 0,5 km/h (0 Bft) SW 236 14,5 C 3,1 km/h (1 Bft) 100 %
18.06.2018 22:45 17,8 C 81 % 1019,1 hPa 0,0 l/m 0,1 km/h (0 Bft) SW 236 14,5 C 3,1 km/h (1 Bft) 100 %
18.06.2018 22:46 17,7 C 81 % 1019,1 hPa 0,0 l/m 1,0 km/h (0 Bft) SW 219 14,4 C 3,1 km/h (1 Bft) 100 %
18.06.2018 22:47 17,7 C 81 % 1019,1 hPa 0,0 l/m 0,5 km/h (0 Bft) W-SW 241 14,4 C 3,1 km/h (1 Bft) 100 %
18.06.2018 22:48 17,7 C 81 % 1019,1 hPa 0,0 l/m 0,0 km/h (0 Bft) W-SW 241 14,4 C 0,0 km/h (0 Bft) 100 %
18.06.2018 22:49 17,7 C 81 % 1019,1 hPa 0,0 l/m 2,1 km/h (1 Bft) SW 236 14,4 C 6,3 km/h (2 Bft) 100 %
18.06.2018 22:50 17,7 C 81 % 1019,1 hPa 0,0 l/m 0,7 km/h (0 Bft) SW 236 14,4 C 6,3 km/h (2 Bft) 100 %
18.06.2018 22:51 17,6 C 81 % 1019,1 hPa 0,0 l/m 0,0 km/h (0 Bft) SW 236 14,3 C 0,0 km/h (0 Bft) 100 %
18.06.2018 22:52 17,6 C 81 % 1019,2 hPa 0,0 l/m 0,0 km/h (0 Bft) W-SW 238 14,3 C 0,0 km/h (0 Bft) 100 %
18.06.2018 22:53 17,6 C 81 % 1019,2 hPa 0,0 l/m 0,0 km/h (0 Bft) W-SW 238 14,3 C 0,0 km/h (0 Bft) 100 %
18.06.2018 22:54 17,6 C 82 % 1019,2 hPa 0,0 l/m 0,0 km/h (0 Bft) W-SW 238 14,5 C 0,0 km/h (0 Bft) 100 %
18.06.2018 22:55 17,5 C 82 % 1019,2 hPa 0,0 l/m 0,0 km/h (0 Bft) W-SW 238 14,4 C 0,0 km/h (0 Bft) 100 %
18.06.2018 22:56 17,5 C 82 % 1019,1 hPa 0,0 l/m 0,0 km/h (0 Bft) W-SW 238 14,4 C 0,0 km/h (0 Bft) 100 %
18.06.2018 22:57 17,4 C 82 % 1019,1 hPa 0,0 l/m 0,3 km/h (0 Bft) W-SW 238 14,3 C 3,1 km/h (1 Bft) 100 %
18.06.2018 22:58 17,4 C 82 % 1019,2 hPa 0,0 l/m 0,1 km/h (0 Bft) W-SW 238 14,3 C 3,1 km/h (1 Bft) 100 %
18.06.2018 22:59 17,4 C 82 % 1019,2 hPa 0,0 l/m 0,0 km/h (0 Bft) W-SW 242 14,3 C 0,0 km/h (0 Bft) 100 %
18.06.2018 23:00 17,3 C 82 % 1019,2 hPa 0,0 l/m 0,0 km/h (0 Bft) W-SW 242 14,2 C 0,0 km/h (0 Bft) 100 %
18.06.2018 23:01 17,3 C 82 % 1019,2 hPa 0,0 l/m 0,0 km/h (0 Bft) W-SW 242 14,2 C 0,0 km/h (0 Bft) 100 %
18.06.2018 23:02 17,3 C 83 % 1019,2 hPa 0,0 l/m 0,8 km/h (0 Bft) SW 223 14,4 C 3,1 km/h (1 Bft) 100 %
18.06.2018 23:03 17,2 C 83 % 1019,2 hPa 0,0 l/m 0,7 km/h (0 Bft) W-NW 288 14,3 C 3,1 km/h (1 Bft) 100 %
18.06.2018 23:04 17,2 C 83 % 1019,2 hPa 0,0 l/m 0,1 km/h (0 Bft) W-SW 246 14,3 C 3,1 km/h (1 Bft) 100 %
18.06.2018 23:05 17,2 C 83 % 1019,2 hPa 0,0 l/m 0,5 km/h (0 Bft) W 264 14,3 C 3,1 km/h (1 Bft) 100 %
18.06.2018 23:06 17,2 C 83 % 1019,2 hPa 0,0 l/m 0,1 km/h (0 Bft) W 264 14,3 C 3,1 km/h (1 Bft) 100 %
18.06.2018 23:07 17,2 C 83 % 1019,2 hPa 0,0 l/m 0,2 km/h (0 Bft) W 261 14,3 C 3,1 km/h (1 Bft) 100 %
18.06.2018 23:08 17,1 C 83 % 1019,3 hPa 0,0 l/m 0,0 km/h (0 Bft) W 268 14,2 C 0,0 km/h (0 Bft) 100 %
18.06.2018 23:09 17,1 C 83 % 1019,2 hPa 0,0 l/m 0,0 km/h (0 Bft) SW 224 14,2 C 0,0 km/h (0 Bft) 100 %
18.06.2018 23:10 17,1 C 83 % 1019,2 hPa 0,0 l/m 0,1 km/h (0 Bft) SW 221 14,2 C 3,1 km/h (1 Bft) 100 %
18.06.2018 23:11 17,1 C 83 % 1019,2 hPa 0,0 l/m 0,2 km/h (0 Bft) SW 221 14,2 C 3,1 km/h (1 Bft) 100 %
18.06.2018 23:12 17,1 C 83 % 1019,2 hPa 0,0 l/m 0,0 km/h (0 Bft) SW 224 14,2 C 0,0 km/h (0 Bft) 100 %
18.06.2018 23:13 17,0 C 83 % 1019,2 hPa 0,0 l/m 0,8 km/h (0 Bft) SW 222 14,1 C 3,1 km/h (1 Bft) 100 %
18.06.2018 23:14 17,0 C 83 % 1019,2 hPa 0,0 l/m 3,7 km/h (1 Bft) SW 234 14,1 C 6,3 km/h (2 Bft) 100 %
18.06.2018 23:15 17,0 C 83 % 1019,3 hPa 0,0 l/m 1,2 km/h (1 Bft) SW 217 14,1 C 3,1 km/h (1 Bft) 100 %
18.06.2018 23:16 17,0 C 83 % 1019,2 hPa 0,0 l/m 0,4 km/h (0 Bft) SW 214 14,1 C 3,1 km/h (1 Bft) 100 %
18.06.2018 23:17 17,0 C 83 % 1019,2 hPa 0,0 l/m 0,5 km/h (0 Bft) SW 229 14,1 C 3,1 km/h (1 Bft) 100 %
18.06.2018 23:18 17,0 C 84 % 1019,3 hPa 0,0 l/m 0,0 km/h (0 Bft) SW 229 14,3 C 0,0 km/h (0 Bft) 100 %
18.06.2018 23:19 16,9 C 84 % 1019,3 hPa 0,0 l/m 0,8 km/h (0 Bft) S-SW 198 14,2 C 3,1 km/h (1 Bft) 100 %
18.06.2018 23:20 16,9 C 84 % 1019,3 hPa 0,0 l/m 0,3 km/h (0 Bft) SW 221 14,2 C 3,1 km/h (1 Bft) 100 %
18.06.2018 23:21 16,9 C 84 % 1019,3 hPa 0,0 l/m 0,4 km/h (0 Bft) SW 221 14,2 C 3,1 km/h (1 Bft) 100 %
18.06.2018 23:22 16,9 C 84 % 1019,2 hPa 0,0 l/m 0,0 km/h (0 Bft) SW 221 14,2 C 0,0 km/h (0 Bft) 100 %
18.06.2018 23:23 16,9 C 84 % 1019,3 hPa 0,0 l/m 0,0 km/h (0 Bft) SW 221 14,2 C 0,0 km/h (0 Bft) 100 %
18.06.2018 23:24 16,9 C 84 % 1019,3 hPa 0,0 l/m 0,0 km/h (0 Bft) SW 221 14,2 C 0,0 km/h (0 Bft) 100 %
18.06.2018 23:25 16,8 C 84 % 1019,3 hPa 0,0 l/m 0,1 km/h (0 Bft) W 263 14,1 C 3,1 km/h (1 Bft) 100 %
18.06.2018 23:26 16,8 C 84 % 1019,4 hPa 0,0 l/m 1,3 km/h (1 Bft) NW 305 14,1 C 6,3 km/h (2 Bft) 100 %
18.06.2018 23:27 16,8 C 84 % 1019,3 hPa 0,0 l/m 0,1 km/h (0 Bft) NW 304 14,1 C 3,1 km/h (1 Bft) 100 %
18.06.2018 23:28 16,8 C 84 % 1019,3 hPa 0,0 l/m 0,0 km/h (0 Bft) NW 305 14,1 C 0,0 km/h (0 Bft) 100 %
18.06.2018 23:29 16,8 C 84 % 1019,3 hPa 0,0 l/m 0,5 km/h (0 Bft) SW 217 14,1 C 3,1 km/h (1 Bft) 100 %
18.06.2018 23:30 16,7 C 84 % 1019,3 hPa 0,0 l/m 0,0 km/h (0 Bft) SW 221 14,0 C 0,0 km/h (0 Bft) 96 %
18.06.2018 23:31 16,7 C 84 % 1019,3 hPa 0,0 l/m 0,3 km/h (0 Bft) SW 224 14,0 C 3,1 km/h (1 Bft) 100 %
18.06.2018 23:32 16,7 C 84 % 1019,3 hPa 0,0 l/m 0,1 km/h (0 Bft) W-SW 244 14,0 C 3,1 km/h (1 Bft) 100 %
18.06.2018 23:33 16,7 C 84 % 1019,3 hPa 0,0 l/m 0,7 km/h (0 Bft) SW 231 14,0 C 3,1 km/h (1 Bft) 96 %
18.06.2018 23:34 16,7 C 84 % 1019,3 hPa 0,0 l/m 0,0 km/h (0 Bft) SW 231 14,0 C 0,0 km/h (0 Bft) 96 %
18.06.2018 23:35 16,7 C 84 % 1019,3 hPa 0,0 l/m 0,5 km/h (0 Bft) SW 235 14,0 C 3,1 km/h (1 Bft) 100 %
18.06.2018 23:36 16,6 C 84 % 1019,3 hPa 0,0 l/m 0,0 km/h (0 Bft) SW 235 13,9 C 0,0 km/h (0 Bft) 100 %
18.06.2018 23:37 16,6 C 85 % 1019,3 hPa 0,0 l/m 0,0 km/h (0 Bft) SW 235 14,1 C 0,0 km/h (0 Bft) 96 %
18.06.2018 23:38 16,6 C 85 % 1019,3 hPa 0,0 l/m 0,0 km/h (0 Bft) SW 235 14,1 C 0,0 km/h (0 Bft) 96 %
18.06.2018 23:39 16,6 C 85 % 1019,3 hPa 0,0 l/m 0,0 km/h (0 Bft) SW 235 14,1 C 0,0 km/h (0 Bft) 100 %
18.06.2018 23:40 16,5 C 85 % 1019,3 hPa 0,0 l/m 0,0 km/h (0 Bft) SW 235 14,0 C 0,0 km/h (0 Bft) 96 %
18.06.2018 23:41 16,5 C 85 % 1019,3 hPa 0,0 l/m 0,4 km/h (0 Bft) SW 235 14,0 C 3,1 km/h (1 Bft) 100 %
18.06.2018 23:42 16,4 C 85 % 1019,3 hPa 0,0 l/m 0,4 km/h (0 Bft) SW 235 13,9 C 3,1 km/h (1 Bft) 96 %
18.06.2018 23:43 16,4 C 85 % 1019,3 hPa 0,0 l/m 0,9 km/h (0 Bft) SW 235 13,9 C 3,1 km/h (1 Bft) 100 %
18.06.2018 23:44 16,4 C 85 % 1019,3 hPa 0,0 l/m 0,1 km/h (0 Bft) W-SW 240 13,9 C 3,1 km/h (1 Bft) 100 %
18.06.2018 23:45 16,4 C 85 % 1019,4 hPa 0,0 l/m 0,3 km/h (0 Bft) SW 220 13,9 C 3,1 km/h (1 Bft) 100 %
18.06.2018 23:46 16,4 C 85 % 1019,3 hPa 0,0 l/m 0,3 km/h (0 Bft) SW 223 13,9 C 3,1 km/h (1 Bft) 100 %
18.06.2018 23:47 16,4 C 85 % 1019,3 hPa 0,0 l/m 0,0 km/h (0 Bft) SW 224 13,9 C 0,0 km/h (0 Bft) 100 %
18.06.2018 23:48 16,4 C 86 % 1019,4 hPa 0,0 l/m 0,0 km/h (0 Bft) SW 224 14,1 C 0,0 km/h (0 Bft) 100 %
18.06.2018 23:49 16,4 C 86 % 1019,3 hPa 0,0 l/m 0,5 km/h (0 Bft) SW 224 14,1 C 3,1 km/h (1 Bft) 100 %
18.06.2018 23:50 16,4 C 86 % 1019,4 hPa 0,0 l/m 0,2 km/h (0 Bft) SW 224 14,1 C 3,1 km/h (1 Bft) 100 %
18.06.2018 23:51 16,4 C 86 % 1019,4 hPa 0,0 l/m 0,0 km/h (0 Bft) SW 224 14,1 C 0,0 km/h (0 Bft) 100 %
18.06.2018 23:52 16,3 C 86 % 1019,3 hPa 0,0 l/m 0,0 km/h (0 Bft) W-SW 257 14,0 C 0,0 km/h (0 Bft) 100 %
18.06.2018 23:53 16,3 C 86 % 1019,4 hPa 0,0 l/m 0,0 km/h (0 Bft) W 264 14,0 C 0,0 km/h (0 Bft) 100 %
18.06.2018 23:54 16,3 C 86 % 1019,4 hPa 0,0 l/m 0,0 km/h (0 Bft) W-SW 253 14,0 C 0,0 km/h (0 Bft) 100 %
18.06.2018 23:55 16,3 C 86 % 1019,4 hPa 0,0 l/m 0,7 km/h (0 Bft) W-SW 243 14,0 C 3,1 km/h (1 Bft) 100 %
18.06.2018 23:56 16,3 C 86 % 1019,4 hPa 0,0 l/m 1,4 km/h (1 Bft) S-SW 213 14,0 C 6,3 km/h (2 Bft) 100 %
18.06.2018 23:57 16,3 C 86 % 1019,3 hPa 0,0 l/m 0,5 km/h (0 Bft) W 260 14,0 C 3,1 km/h (1 Bft) 100 %
18.06.2018 23:58 16,3 C 86 % 1019,4 hPa 0,0 l/m 0,0 km/h (0 Bft) W 259 14,0 C 0,0 km/h (0 Bft) 100 %
18.06.2018 23:59 16,3 C 86 % 1019,4 hPa 0,0 l/m 0,2 km/h (0 Bft) SW 233 14,0 C 3,1 km/h (1 Bft) 100 %
_ Min-Zeit 03:43 15:57 00:00 - 00:00 - - 00:58 00:00 17:08
Minimum _ 13,3 C 60 % 1018,2 hPa - 0,0 km/h (0 Bft) - - 9,6 C 0,0 km/h (0 Bft) 75 %
_ Max-Zeit 16:20 23:48 09:37 00:00 16:24 - - 20:16 12:47 00:00
Maximum _ 22,2 C 86 % 1019,7 hPa 0,0 l/m 13,6 km/h
W (3 Bft)
- - 15,0 C 25,1 km/h
W-SW (4 Bft)
100 %
Durchschnitt _ 17,5 C 74 % 1019,0 hPa #0,0 l/m 1,9 km/h (1 Bft) SW - 12,7 C 5,1 km/h (1 Bft) 99 %